Time,TemperatureF,DewpointF,PressureIn,WindDirection,WindDirectionDegrees,WindSpeedMPH,WindSpeedGustMPH,Humidity,HourlyPrecipIn,Conditions,Clouds,dailyrainin,SoftwareType,DateUTC
2013-03-14 00:00:00,53.6,16.7,25.66,ESE,112,9.4,11.0,23,0.00,,---,0.00,VWS V14.01,2013-03-14 05:00:00,
2013-03-14 00:01:00,53.4,16.6,25.66,SE,135,6.7,11.0,23,0.00,,---,0.00,VWS V14.01,2013-03-14 05:01:00,
2013-03-14 00:02:00,53.4,16.6,25.66,ESE,112,10.3,11.2,23,0.00,,---,0.00,VWS V14.01,2013-03-14 05:02:00,
2013-03-14 00:03:00,53.6,16.7,25.66,SSE,158,12.3,12.3,23,0.00,,---,0.00,VWS V14.01,2013-03-14 05:03:00,
2013-03-14 00:04:00,53.6,16.7,25.66,SSE,158,6.5,12.3,23,0.00,,---,0.00,VWS V14.01,2013-03-14 05:04:00,
2013-03-14 00:05:00,53.6,16.7,25.66,SSE,158,10.5,10.5,23,0.00,,---,0.00,VWS V14.01,2013-03-14 05:05:00,
2013-03-14 00:06:00,53.6,16.7,25.66,SSE,158,8.1,11.0,23,0.00,,---,0.00,VWS V14.01,2013-03-14 05:06:00,
2013-03-14 00:07:00,53.6,16.7,25.66,ESE,112,5.8,8.1,23,0.00,,---,0.00,VWS V14.01,2013-03-14 05:07:00,
2013-03-14 00:08:00,53.6,16.7,25.66,SE,135,8.7,10.1,23,0.00,,---,0.00,VWS V14.01,2013-03-14 05:08:00,
2013-03-14 00:09:00,53.6,16.7,25.66,SSE,158,8.7,10.1,23,0.00,,---,0.00,VWS V14.01,2013-03-14 05:09:00,
2013-03-14 00:10:00,53.4,16.6,25.66,SSE,158,6.3,8.7,23,0.00,,---,0.00,VWS V14.01,2013-03-14 05:10:00,
2013-03-14 00:11:00,53.4,19.4,25.66,SE,135,4.3,9.6,26,0.00,,---,0.00,VWS V14.01,2013-03-14 05:11:00,
2013-03-14 00:12:00,53.4,19.4,25.66,ESE,112,8.7,8.7,26,0.00,,---,0.00,VWS V14.01,2013-03-14 05:12:00,
2013-03-14 00:13:00,53.4,19.4,25.66,SSE,158,9.8,10.1,26,0.00,,---,0.00,VWS V14.01,2013-03-14 05:13:00,
2013-03-14 00:14:00,53.4,19.4,25.66,SE,135,4.3,4.3,26,0.00,,---,0.00,VWS V14.01,2013-03-14 05:14:00,
2013-03-14 00:15:00,53.2,19.3,25.66,SSE,158,4.9,6.3,26,0.00,,---,0.00,VWS V14.01,2013-03-14 05:15:00,
2013-03-14 00:16:00,53.2,19.3,25.66,SE,135,6.3,6.3,26,0.00,,---,0.00,VWS V14.01,2013-03-14 05:16:00,
2013-03-14 00:17:00,53.2,19.3,25.66,ESE,112,3.1,8.1,26,0.00,,---,0.00,VWS V14.01,2013-03-14 05:17:00,
2013-03-14 00:18:00,53.2,19.3,25.66,SE,135,0.0,3.8,26,0.00,,---,0.00,VWS V14.01,2013-03-14 05:18:00,
2013-03-14 00:19:00,53.2,19.3,25.66,SE,135,0.0,0.0,26,0.00,,---,0.00,VWS V14.01,2013-03-14 05:19:00,
2013-03-14 00:20:00,52.9,19.0,25.66,South,180,3.4,3.4,26,0.00,,---,0.00,VWS V14.01,2013-03-14 05:20:00,
2013-03-14 00:21:00,52.9,19.0,25.66,West,270,2.5,3.4,26,0.00,,---,0.00,VWS V14.01,2013-03-14 05:21:00,
2013-03-14 00:22:00,52.9,19.0,25.66,NW,315,2.9,4.7,26,0.00,,---,0.00,VWS V14.01,2013-03-14 05:22:00,
2013-03-14 00:23:00,52.3,15.7,25.66,NNW,338,3.1,3.4,23,0.00,,---,0.00,VWS V14.01,2013-03-14 05:23:00,
2013-03-14 00:24:00,51.8,15.2,25.66,NNW,338,2.2,4.7,23,0.00,,---,0.00,VWS V14.01,2013-03-14 05:24:00,
2013-03-14 00:25:00,51.6,16.0,25.66,NNW,338,3.6,3.6,24,0.00,,---,0.00,VWS V14.01,2013-03-14 05:25:00,
2013-03-14 00:26:00,51.3,15.7,25.66,NNW,338,2.0,4.3,24,0.00,,---,0.00,VWS V14.01,2013-03-14 05:26:00,
2013-03-14 00:27:00,51.1,15.6,25.66,NNW,338,3.1,3.1,24,0.00,,---,0.00,VWS V14.01,2013-03-14 05:27:00,
2013-03-14 00:28:00,51.1,15.6,25.66,NNW,338,3.1,3.1,24,0.00,,---,0.00,VWS V14.01,2013-03-14 05:28:00,
2013-03-14 00:29:00,51.1,15.6,25.66,NE,45,2.5,3.1,24,0.00,,---,0.00,VWS V14.01,2013-03-14 05:29:00,
2013-03-14 00:30:00,50.5,15.1,25.66,North,0,2.0,2.5,24,0.00,,---,0.00,VWS V14.01,2013-03-14 05:30:00,
2013-03-14 00:31:00,50.5,15.1,25.66,ENE,68,2.2,3.4,24,0.00,,---,0.00,VWS V14.01,2013-03-14 05:31:00,
2013-03-14 00:32:00,50.5,15.1,25.66,NNE,22,2.5,2.5,24,0.00,,---,0.00,VWS V14.01,2013-03-14 05:32:00,
2013-03-14 00:33:00,50.4,16.8,25.66,North,0,3.6,3.6,26,0.00,,---,0.00,VWS V14.01,2013-03-14 05:33:00,
2013-03-14 00:34:00,50.4,16.8,25.66,NNE,22,1.6,3.6,26,0.00,,---,0.00,VWS V14.01,2013-03-14 05:34:00,
2013-03-14 00:35:00,50.4,16.8,25.66,NE,45,2.0,2.0,26,0.00,,---,0.00,VWS V14.01,2013-03-14 05:35:00,
2013-03-14 00:36:00,50.2,14.8,25.66,ENE,68,0.0,2.0,24,0.00,,---,0.00,VWS V14.01,2013-03-14 05:36:00,
2013-03-14 00:37:00,50.0,14.6,25.66,ENE,68,0.0,0.0,24,0.00,,---,0.00,VWS V14.01,2013-03-14 05:37:00,
2013-03-14 00:38:00,50.0,14.6,25.66,NNE,22,0.0,0.0,24,0.00,,---,0.00,VWS V14.01,2013-03-14 05:38:00,
2013-03-14 00:39:00,50.0,14.6,25.66,NNE,22,0.0,0.0,24,0.00,,---,0.00,VWS V14.01,2013-03-14 05:39:00,
2013-03-14 00:40:00,49.5,14.2,25.66,WSW,248,0.0,0.0,24,0.00,,---,0.00,VWS V14.01,2013-03-14 05:40:00,
2013-03-14 00:41:00,49.5,14.2,25.66,WNW,292,2.7,2.7,24,0.00,,---,0.00,VWS V14.01,2013-03-14 05:41:00,
2013-03-14 00:42:00,49.6,16.2,25.66,SW,225,2.7,2.7,26,0.00,,---,0.00,VWS V14.01,2013-03-14 05:42:00,
2013-03-14 00:43:00,49.8,16.3,25.66,South,180,2.5,3.1,26,0.00,,---,0.00,VWS V14.01,2013-03-14 05:43:00,
2013-03-14 00:44:00,50.0,16.5,25.66,SSW,202,0.9,2.7,26,0.00,,---,0.00,VWS V14.01,2013-03-14 05:44:00,
2013-03-14 00:45:00,50.2,16.6,25.66,WSW,248,2.0,2.0,26,0.00,,---,0.00,VWS V14.01,2013-03-14 05:45:00,
2013-03-14 00:46:00,50.2,16.6,25.66,SSW,202,2.0,2.2,26,0.00,,---,0.00,VWS V14.01,2013-03-14 05:46:00,
2013-03-14 00:47:00,50.5,17.0,25.66,South,180,3.1,3.6,26,0.00,,---,0.00,VWS V14.01,2013-03-14 05:47:00,
2013-03-14 00:48:00,50.7,17.1,25.66,South,180,3.1,3.8,26,0.00,,---,0.00,VWS V14.01,2013-03-14 05:48:00,
2013-03-14 00:49:00,50.7,17.1,25.66,ESE,112,4.0,4.0,26,0.00,,---,0.00,VWS V14.01,2013-03-14 05:49:00,
2013-03-14 00:50:00,50.7,17.1,25.66,SE,135,3.6,4.0,26,0.00,,---,0.00,VWS V14.01,2013-03-14 05:50:00,
2013-03-14 00:51:00,50.9,17.2,25.66,SSE,158,4.9,4.9,26,0.00,,---,0.00,VWS V14.01,2013-03-14 05:51:00,
2013-03-14 00:52:00,50.9,17.2,25.66,ESE,112,2.5,4.9,26,0.00,,---,0.00,VWS V14.01,2013-03-14 05:52:00,
2013-03-14 00:53:00,50.7,17.1,25.66,East,90,3.1,3.1,26,0.00,,---,0.00,VWS V14.01,2013-03-14 05:53:00,
2013-03-14 00:54:00,50.5,17.0,25.66,ESE,112,2.7,3.1,26,0.00,,---,0.00,VWS V14.01,2013-03-14 05:54:00,
2013-03-14 00:55:00,50.4,16.8,25.66,ESE,112,2.5,2.7,26,0.00,,---,0.00,VWS V14.01,2013-03-14 05:55:00,
2013-03-14 00:56:00,50.4,16.8,25.66,ESE,112,2.9,2.9,26,0.00,,---,0.00,VWS V14.01,2013-03-14 05:56:00,
2013-03-14 00:57:00,50.4,16.8,25.66,ESE,112,2.7,3.8,26,0.00,,---,0.00,VWS V14.01,2013-03-14 05:57:00,
2013-03-14 00:58:00,50.4,16.8,25.66,ESE,112,3.1,3.4,26,0.00,,---,0.00,VWS V14.01,2013-03-14 05:58:00,
2013-03-14 00:59:00,50.4,16.8,25.66,ESE,112,4.9,4.9,26,0.00,,---,0.00,VWS V14.01,2013-03-14 05:59:00,
2013-03-14 01:00:00,50.7,17.1,25.66,East,90,3.4,4.9,26,0.00,,---,0.00,VWS V14.01,2013-03-14 06:00:00,
2013-03-14 01:01:00,50.9,17.2,25.66,SE,135,2.7,3.8,26,0.00,,---,0.00,VWS V14.01,2013-03-14 06:01:00,
2013-03-14 01:02:00,50.9,17.2,25.66,SE,135,2.7,2.7,26,0.00,,---,0.00,VWS V14.01,2013-03-14 06:02:00,
2013-03-14 01:03:00,50.9,17.2,25.66,SE,135,2.0,2.7,26,0.00,,---,0.00,VWS V14.01,2013-03-14 06:03:00,
2013-03-14 01:04:00,51.1,17.4,25.66,SE,135,3.4,3.6,26,0.00,,---,0.00,VWS V14.01,2013-03-14 06:04:00,
2013-03-14 01:05:00,51.1,17.4,25.66,SSE,158,3.8,5.8,26,0.00,,---,0.00,VWS V14.01,2013-03-14 06:05:00,
2013-03-14 01:06:00,51.1,17.4,25.66,ESE,112,4.0,5.8,26,0.00,,---,0.00,VWS V14.01,2013-03-14 06:06:00,
2013-03-14 01:07:00,51.4,17.7,25.66,SSE,158,4.0,7.8,26,0.00,,---,0.00,VWS V14.01,2013-03-14 06:07:00,
2013-03-14 01:08:00,52.0,18.2,25.66,South,180,6.5,8.5,26,0.00,,---,0.00,VWS V14.01,2013-03-14 06:08:00,
2013-03-14 01:09:00,52.2,18.3,25.66,SE,135,5.8,6.5,26,0.00,,---,0.00,VWS V14.01,2013-03-14 06:09:00,
2013-03-14 01:10:00,52.3,18.5,25.66,SE,135,3.6,5.8,26,0.00,,---,0.00,VWS V14.01,2013-03-14 06:10:00,
2013-03-14 01:11:00,52.5,18.6,25.66,SSE,158,9.4,9.4,26,0.00,,---,0.00,VWS V14.01,2013-03-14 06:11:00,
2013-03-14 01:12:00,52.7,18.8,25.66,ESE,112,5.4,9.4,26,0.00,,---,0.00,VWS V14.01,2013-03-14 06:12:00,
2013-03-14 01:13:00,52.9,19.0,25.66,South,180,11.0,11.0,26,0.00,,---,0.00,VWS V14.01,2013-03-14 06:13:00,
2013-03-14 01:14:00,52.9,19.0,25.66,SSE,158,8.5,11.0,26,0.00,,---,0.00,VWS V14.01,2013-03-14 06:14:00,
2013-03-14 01:15:00,53.1,19.1,25.66,SE,135,4.9,4.9,26,0.00,,---,0.00,VWS V14.01,2013-03-14 06:15:00,
2013-03-14 01:16:00,53.1,19.1,25.66,South,180,4.0,4.9,26,0.00,,---,0.00,VWS V14.01,2013-03-14 06:16:00,
2013-03-14 01:17:00,53.1,19.1,25.66,South,180,4.3,6.3,26,0.00,,---,0.00,VWS V14.01,2013-03-14 06:17:00,
2013-03-14 01:18:00,53.1,19.1,25.66,South,180,5.6,5.6,26,0.00,,---,0.00,VWS V14.01,2013-03-14 06:18:00,
2013-03-14 01:19:00,53.1,19.1,25.66,South,180,6.3,6.5,26,0.00,,---,0.00,VWS V14.01,2013-03-14 06:19:00,
2013-03-14 01:20:00,53.1,19.1,25.66,SE,135,10.3,10.3,26,0.00,,---,0.00,VWS V14.01,2013-03-14 06:20:00,
2013-03-14 01:21:00,53.1,19.1,25.66,ESE,112,7.6,10.3,26,0.00,,---,0.00,VWS V14.01,2013-03-14 06:21:00,
2013-03-14 01:22:00,53.1,19.1,25.66,ESE,112,5.6,8.1,26,0.00,,---,0.00,VWS V14.01,2013-03-14 06:22:00,
2013-03-14 01:23:00,53.1,19.1,25.66,SE,135,7.4,7.4,26,0.00,,---,0.00,VWS V14.01,2013-03-14 06:23:00,
2013-03-14 01:24:00,53.2,19.3,25.66,SE,135,6.3,12.1,26,0.00,,---,0.00,VWS V14.01,2013-03-14 06:24:00,
2013-03-14 01:25:00,53.2,19.3,25.66,SSE,158,6.0,9.4,26,0.00,,---,0.00,VWS V14.01,2013-03-14 06:25:00,
2013-03-14 01:26:00,53.2,19.3,25.66,SE,135,8.5,8.5,26,0.00,,---,0.00,VWS V14.01,2013-03-14 06:26:00,
2013-03-14 01:27:00,53.2,19.3,25.66,SE,135,12.1,12.1,26,0.00,,---,0.00,VWS V14.01,2013-03-14 06:27:00,
2013-03-14 01:28:00,53.4,19.4,25.66,SSE,158,10.3,12.1,26,0.00,,---,0.00,VWS V14.01,2013-03-14 06:28:00,
2013-03-14 01:29:00,53.4,19.4,25.66,SSE,158,9.6,10.3,26,0.00,,---,0.00,VWS V14.01,2013-03-14 06:29:00,
2013-03-14 01:30:00,53.4,19.4,25.66,SSE,158,7.6,9.6,26,0.00,,---,0.00,VWS V14.01,2013-03-14 06:30:00,
2013-03-14 01:31:00,53.6,19.6,25.66,SE,135,10.7,10.7,26,0.00,,---,0.00,VWS V14.01,2013-03-14 06:31:00,
2013-03-14 01:32:00,53.6,19.6,25.66,SSE,158,12.8,12.8,26,0.00,,---,0.00,VWS V14.01,2013-03-14 06:32:00,
2013-03-14 01:33:00,53.8,19.7,25.66,SSE,158,12.5,12.8,26,0.00,,---,0.00,VWS V14.01,2013-03-14 06:33:00,
2013-03-14 01:34:00,53.8,19.7,25.66,SSE,158,10.3,13.2,26,0.00,,---,0.00,VWS V14.01,2013-03-14 06:34:00,
2013-03-14 01:35:00,54.0,19.9,25.66,South,180,12.3,12.3,26,0.00,,---,0.00,VWS V14.01,2013-03-14 06:35:00,
2013-03-14 01:36:00,54.0,19.9,25.66,South,180,8.1,12.3,26,0.00,,---,0.00,VWS V14.01,2013-03-14 06:36:00,
2013-03-14 01:37:00,54.0,19.9,25.66,ESE,112,12.3,12.3,26,0.00,,---,0.00,VWS V14.01,2013-03-14 06:37:00,
2013-03-14 01:38:00,54.0,19.9,25.66,SSE,158,11.0,11.0,26,0.00,,---,0.00,VWS V14.01,2013-03-14 06:38:00,
2013-03-14 01:39:00,54.0,19.9,25.66,SSE,158,9.4,11.0,26,0.00,,---,0.00,VWS V14.01,2013-03-14 06:39:00,
2013-03-14 01:40:00,54.0,19.9,25.66,SE,135,10.5,10.5,26,0.00,,---,0.00,VWS V14.01,2013-03-14 06:40:00,
2013-03-14 01:42:00,54.0,19.9,25.66,South,180,6.9,10.7,26,0.00,,---,0.00,VWS V14.01,2013-03-14 06:42:00,
2013-03-14 01:43:00,53.8,19.7,25.66,SSE,158,6.5,7.6,26,0.00,,---,0.00,VWS V14.01,2013-03-14 06:43:00,
2013-03-14 01:44:00,53.8,19.7,25.66,South,180,8.7,11.0,26,0.00,,---,0.00,VWS V14.01,2013-03-14 06:44:00,
2013-03-14 01:45:00,53.8,19.7,25.66,SSE,158,6.3,11.0,26,0.00,,---,0.00,VWS V14.01,2013-03-14 06:45:00,
2013-03-14 01:46:00,53.8,19.7,25.66,SE,135,4.0,6.5,26,0.00,,---,0.00,VWS V14.01,2013-03-14 06:46:00,
2013-03-14 01:47:00,53.6,19.6,25.66,SSE,158,7.6,7.6,26,0.00,,---,0.00,VWS V14.01,2013-03-14 06:47:00,
2013-03-14 01:48:00,53.6,19.6,25.66,SW,225,6.0,8.7,26,0.00,,---,0.00,VWS V14.01,2013-03-14 06:48:00,
2013-03-14 01:49:00,53.8,19.7,25.66,South,180,7.2,8.1,26,0.00,,---,0.00,VWS V14.01,2013-03-14 06:49:00,
2013-03-14 01:50:00,53.6,19.6,25.66,SE,135,9.4,9.4,26,0.00,,---,0.00,VWS V14.01,2013-03-14 06:50:00,
2013-03-14 01:51:00,53.6,19.6,25.66,SSE,158,8.7,9.4,26,0.00,,---,0.00,VWS V14.01,2013-03-14 06:51:00,
2013-03-14 01:52:00,53.6,19.6,25.66,SSE,158,7.6,8.7,26,0.00,,---,0.00,VWS V14.01,2013-03-14 06:52:00,
2013-03-14 01:53:00,53.6,19.6,25.66,SSE,158,10.3,11.0,26,0.00,,---,0.00,VWS V14.01,2013-03-14 06:53:00,
2013-03-14 01:55:00,53.6,19.6,25.66,SE,135,9.8,10.5,26,0.00,,---,0.00,VWS V14.01,2013-03-14 06:55:00,
2013-03-14 01:56:00,53.8,19.7,25.66,SE,135,7.4,11.0,26,0.00,,---,0.00,VWS V14.01,2013-03-14 06:56:00,
2013-03-14 01:57:00,53.6,19.6,25.66,SSE,158,5.8,7.4,26,0.00,,---,0.00,VWS V14.01,2013-03-14 06:57:00,
2013-03-14 01:58:00,53.4,19.4,25.66,SE,135,5.6,7.2,26,0.00,,---,0.00,VWS V14.01,2013-03-14 06:58:00,
2013-03-14 01:59:00,53.2,19.3,25.66,ESE,112,6.9,7.2,26,0.00,,---,0.00,VWS V14.01,2013-03-14 06:59:00,
2013-03-14 02:00:00,53.2,19.3,25.66,SSE,158,3.1,6.9,26,0.00,,---,0.00,VWS V14.01,2013-03-14 07:00:00,
2013-03-14 02:01:00,53.1,19.1,25.66,SSW,202,3.1,6.0,26,0.00,,---,0.00,VWS V14.01,2013-03-14 07:01:00,
2013-03-14 02:02:00,52.9,19.0,25.66,SSW,202,4.9,4.9,26,0.00,,---,0.00,VWS V14.01,2013-03-14 07:02:00,
2013-03-14 02:03:00,52.9,19.0,25.66,South,180,4.0,4.9,26,0.00,,---,0.00,VWS V14.01,2013-03-14 07:03:00,
2013-03-14 02:04:00,52.7,18.8,25.66,SSE,158,4.3,6.3,26,0.00,,---,0.00,VWS V14.01,2013-03-14 07:04:00,
2013-03-14 02:05:00,52.7,18.8,25.66,SE,135,3.8,6.3,26,0.00,,---,0.00,VWS V14.01,2013-03-14 07:05:00,
2013-03-14 02:06:00,52.5,18.6,25.66,South,180,5.6,5.6,26,0.00,,---,0.00,VWS V14.01,2013-03-14 07:06:00,
2013-03-14 02:07:00,52.5,18.6,25.66,SSW,202,4.0,6.0,26,0.00,,---,0.00,VWS V14.01,2013-03-14 07:07:00,
2013-03-14 02:09:00,52.5,18.6,25.66,SSE,158,3.4,4.9,26,0.00,,---,0.00,VWS V14.01,2013-03-14 07:09:00,
2013-03-14 02:10:00,52.2,18.3,25.66,South,180,6.3,8.5,26,0.00,,---,0.00,VWS V14.01,2013-03-14 07:10:00,
2013-03-14 02:11:00,52.2,18.3,25.66,SSW,202,3.6,7.2,26,0.00,,---,0.00,VWS V14.01,2013-03-14 07:11:00,
2013-03-14 02:12:00,52.0,18.2,25.66,South,180,4.9,4.9,26,0.00,,---,0.00,VWS V14.01,2013-03-14 07:12:00,
2013-03-14 02:13:00,52.0,18.2,25.66,SE,135,3.4,5.4,26,0.00,,---,0.00,VWS V14.01,2013-03-14 07:13:00,
2013-03-14 02:14:00,52.0,18.2,25.66,South,180,3.8,5.4,26,0.00,,---,0.00,VWS V14.01,2013-03-14 07:14:00,
2013-03-14 02:15:00,51.8,18.0,25.66,SSW,202,6.3,6.3,26,0.00,,---,0.00,VWS V14.01,2013-03-14 07:15:00,
2013-03-14 02:16:00,51.8,18.0,25.66,SSE,158,6.5,6.5,26,0.00,,---,0.00,VWS V14.01,2013-03-14 07:16:00,
2013-03-14 02:17:00,51.8,18.0,25.66,South,180,3.8,7.4,26,0.00,,---,0.00,VWS V14.01,2013-03-14 07:17:00,
2013-03-14 02:18:00,51.8,18.0,25.66,South,180,5.4,5.4,26,0.00,,---,0.00,VWS V14.01,2013-03-14 07:18:00,
2013-03-14 02:19:00,51.8,18.0,25.66,SSW,202,5.4,6.0,26,0.00,,---,0.00,VWS V14.01,2013-03-14 07:19:00,
2013-03-14 02:20:00,51.8,18.0,25.66,South,180,4.3,5.8,26,0.00,,---,0.00,VWS V14.01,2013-03-14 07:20:00,
2013-03-14 02:21:00,51.8,18.0,25.66,South,180,4.9,4.9,26,0.00,,---,0.00,VWS V14.01,2013-03-14 07:21:00,
2013-03-14 02:22:00,51.6,18.8,25.66,SSE,158,4.0,5.6,27,0.00,,---,0.00,VWS V14.01,2013-03-14 07:22:00,
2013-03-14 02:23:00,51.8,18.0,25.66,South,180,7.6,10.5,26,0.00,,---,0.00,VWS V14.01,2013-03-14 07:23:00,
2013-03-14 02:24:00,51.8,18.0,25.66,South,180,6.0,8.5,26,0.00,,---,0.00,VWS V14.01,2013-03-14 07:24:00,
2013-03-14 02:25:00,52.2,18.3,25.66,SSE,158,7.4,8.1,26,0.00,,---,0.00,VWS V14.01,2013-03-14 07:25:00,
2013-03-14 02:26:00,52.2,18.3,25.66,SSW,202,3.8,7.4,26,0.00,,---,0.00,VWS V14.01,2013-03-14 07:26:00,
2013-03-14 02:27:00,52.0,18.2,25.66,SSW,202,3.4,4.0,26,0.00,,---,0.00,VWS V14.01,2013-03-14 07:27:00,
2013-03-14 02:28:00,51.8,18.0,25.66,South,180,2.9,4.3,26,0.00,,---,0.00,VWS V14.01,2013-03-14 07:28:00,
2013-03-14 02:29:00,51.6,18.8,25.66,SSW,202,3.6,4.9,27,0.00,,---,0.00,VWS V14.01,2013-03-14 07:29:00,
2013-03-14 02:30:00,51.6,18.8,25.66,SSW,202,4.0,4.0,27,0.00,,---,0.00,VWS V14.01,2013-03-14 07:30:00,
2013-03-14 02:31:00,51.6,18.8,25.66,SSW,202,6.3,7.8,27,0.00,,---,0.00,VWS V14.01,2013-03-14 07:31:00,
2013-03-14 02:32:00,51.6,18.8,25.66,SSE,158,5.8,6.3,27,0.00,,---,0.00,VWS V14.01,2013-03-14 07:32:00,
2013-03-14 02:34:00,51.6,18.8,25.66,South,180,6.0,8.1,27,0.00,,---,0.00,VWS V14.01,2013-03-14 07:34:00,
2013-03-14 02:35:00,51.8,18.0,25.66,SE,135,6.5,8.1,26,0.00,,---,0.00,VWS V14.01,2013-03-14 07:35:00,
2013-03-14 02:36:00,51.8,18.0,25.66,SSE,158,7.8,7.8,26,0.00,,---,0.00,VWS V14.01,2013-03-14 07:36:00,
2013-03-14 02:37:00,52.0,18.2,25.66,SSE,158,3.6,7.8,26,0.00,,---,0.00,VWS V14.01,2013-03-14 07:37:00,
2013-03-14 02:38:00,52.0,18.2,25.66,SSE,158,5.8,6.0,26,0.00,,---,0.00,VWS V14.01,2013-03-14 07:38:00,
2013-03-14 02:39:00,52.0,18.2,25.66,South,180,5.6,7.4,26,0.00,,---,0.00,VWS V14.01,2013-03-14 07:39:00,
2013-03-14 02:40:00,51.8,18.0,25.66,South,180,3.1,6.3,26,0.00,,---,0.00,VWS V14.01,2013-03-14 07:40:00,
2013-03-14 02:41:00,52.5,18.6,25.66,SW,225,8.1,9.4,26,0.00,,---,0.00,VWS V14.01,2013-03-14 07:41:00,
2013-03-14 02:42:00,52.5,18.6,25.66,ESE,112,3.4,8.1,26,0.00,,---,0.00,VWS V14.01,2013-03-14 07:42:00,
2013-03-14 02:43:00,52.5,18.6,25.66,SW,225,2.0,3.4,26,0.00,,---,0.00,VWS V14.01,2013-03-14 07:43:00,
2013-03-14 02:44:00,52.9,19.0,25.66,SW,225,2.5,2.7,26,0.00,,---,0.00,VWS V14.01,2013-03-14 07:44:00,
2013-03-14 02:45:00,52.9,19.0,25.66,NW,315,0.0,2.5,26,0.00,,---,0.00,VWS V14.01,2013-03-14 07:45:00,
2013-03-14 02:46:00,52.5,18.6,25.66,West,270,2.5,2.7,26,0.00,,---,0.00,VWS V14.01,2013-03-14 07:46:00,
2013-03-14 02:47:00,52.3,18.5,25.66,NNW,338,4.0,4.0,26,0.00,,---,0.00,VWS V14.01,2013-03-14 07:47:00,
2013-03-14 02:48:00,51.8,18.0,25.66,SSW,202,0.9,4.0,26,0.00,,---,0.00,VWS V14.01,2013-03-14 07:48:00,
2013-03-14 02:49:00,51.6,17.9,25.66,South,180,2.9,2.9,26,0.00,,---,0.00,VWS V14.01,2013-03-14 07:49:00,
2013-03-14 02:50:00,51.4,17.7,25.66,West,270,2.2,2.9,26,0.00,,---,0.00,VWS V14.01,2013-03-14 07:50:00,
2013-03-14 02:51:00,51.3,17.6,25.66,WSW,248,1.6,2.2,26,0.00,,---,0.00,VWS V14.01,2013-03-14 07:51:00,
2013-03-14 02:52:00,51.3,17.6,25.66,SSW,202,0.9,1.6,26,0.00,,---,0.00,VWS V14.01,2013-03-14 07:52:00,
2013-03-14 02:53:00,50.9,17.2,25.66,NNW,338,2.7,2.7,26,0.00,,---,0.00,VWS V14.01,2013-03-14 07:53:00,
2013-03-14 02:54:00,50.9,17.2,25.66,NW,315,2.7,2.7,26,0.00,,---,0.00,VWS V14.01,2013-03-14 07:54:00,
2013-03-14 02:55:00,50.7,17.1,25.66,NW,315,3.1,3.4,26,0.00,,---,0.00,VWS V14.01,2013-03-14 07:55:00,
2013-03-14 02:56:00,50.5,17.0,25.66,NW,315,2.5,3.1,26,0.00,,---,0.00,VWS V14.01,2013-03-14 07:56:00,
2013-03-14 02:58:00,50.5,17.0,25.66,NW,315,2.0,2.0,26,0.00,,---,0.00,VWS V14.01,2013-03-14 07:58:00,
2013-03-14 02:59:00,50.2,16.6,25.66,NNW,338,2.0,2.5,26,0.00,,---,0.00,VWS V14.01,2013-03-14 07:59:00,
2013-03-14 03:00:00,50.2,16.6,25.66,NW,315,0.0,2.2,26,0.00,,---,0.00,VWS V14.01,2013-03-14 08:00:00,
2013-03-14 03:01:00,50.2,16.6,25.66,WSW,248,0.9,0.9,26,0.00,,---,0.00,VWS V14.01,2013-03-14 08:01:00,
2013-03-14 03:02:00,49.8,17.2,25.66,WSW,248,2.7,3.4,27,0.00,,---,0.00,VWS V14.01,2013-03-14 08:02:00,
2013-03-14 03:03:00,50.0,16.5,25.66,West,270,2.7,3.4,26,0.00,,---,0.00,VWS V14.01,2013-03-14 08:03:00,
2013-03-14 03:04:00,50.0,16.5,25.66,WNW,292,2.5,2.7,26,0.00,,---,0.00,VWS V14.01,2013-03-14 08:04:00,
2013-03-14 03:05:00,50.0,16.5,25.66,WNW,292,3.6,3.6,26,0.00,,---,0.00,VWS V14.01,2013-03-14 08:05:00,
2013-03-14 03:06:00,50.0,16.5,25.66,West,270,2.7,4.7,26,0.00,,---,0.00,VWS V14.01,2013-03-14 08:06:00,
2013-03-14 03:07:00,50.0,16.5,25.66,West,270,2.7,3.1,26,0.00,,---,0.00,VWS V14.01,2013-03-14 08:07:00,
2013-03-14 03:08:00,50.0,16.5,25.66,West,270,2.0,2.7,26,0.00,,---,0.00,VWS V14.01,2013-03-14 08:08:00,
2013-03-14 03:09:00,49.8,17.2,25.66,WSW,248,1.6,2.0,27,0.00,,---,0.00,VWS V14.01,2013-03-14 08:09:00,
2013-03-14 03:10:00,49.8,17.2,25.66,SSE,158,2.5,3.6,27,0.00,,---,0.00,VWS V14.01,2013-03-14 08:10:00,
2013-03-14 03:11:00,49.8,17.2,25.66,South,180,0.0,3.6,27,0.00,,---,0.00,VWS V14.01,2013-03-14 08:11:00,
2013-03-14 03:12:00,49.6,17.0,25.66,SE,135,0.0,1.3,27,0.00,,---,0.00,VWS V14.01,2013-03-14 08:12:00,
2013-03-14 03:13:00,49.6,17.0,25.66,SSW,202,0.0,1.3,27,0.00,,---,0.00,VWS V14.01,2013-03-14 08:13:00,
2013-03-14 03:14:00,49.6,17.0,25.66,WSW,248,2.7,2.7,27,0.00,,---,0.00,VWS V14.01,2013-03-14 08:14:00,
2013-03-14 03:15:00,49.8,17.2,25.66,SW,225,2.0,2.7,27,0.00,,---,0.00,VWS V14.01,2013-03-14 08:15:00,
2013-03-14 03:16:00,50.2,16.6,25.66,West,270,4.9,5.6,26,0.00,,---,0.00,VWS V14.01,2013-03-14 08:16:00,
2013-03-14 03:17:00,50.2,17.5,25.66,West,270,3.1,4.3,27,0.00,,---,0.00,VWS V14.01,2013-03-14 08:17:00,
2013-03-14 03:18:00,50.9,18.1,25.66,WSW,248,2.7,4.3,27,0.00,,---,0.00,VWS V14.01,2013-03-14 08:18:00,
2013-03-14 03:19:00,50.9,18.1,25.66,WSW,248,2.5,2.9,27,0.00,,---,0.00,VWS V14.01,2013-03-14 08:19:00,
2013-03-14 03:20:00,51.3,17.6,25.66,SW,225,2.7,2.7,26,0.00,,---,0.00,VWS V14.01,2013-03-14 08:20:00,
2013-03-14 03:21:00,51.3,17.6,25.66,SW,225,2.7,2.7,26,0.00,,---,0.00,VWS V14.01,2013-03-14 08:21:00,
2013-03-14 03:22:00,51.1,17.4,25.66,SW,225,2.2,2.7,26,0.00,,---,0.00,VWS V14.01,2013-03-14 08:22:00,
2013-03-14 03:23:00,51.1,17.4,25.66,SSW,202,1.3,2.2,26,0.00,,---,0.00,VWS V14.01,2013-03-14 08:23:00,
2013-03-14 03:24:00,51.1,17.4,25.66,SW,225,2.2,2.7,26,0.00,,---,0.00,VWS V14.01,2013-03-14 08:24:00,
2013-03-14 03:25:00,51.1,17.4,25.66,SW,225,2.0,2.7,26,0.00,,---,0.00,VWS V14.01,2013-03-14 08:25:00,
2013-03-14 03:26:00,51.1,17.4,25.66,SW,225,0.0,2.0,26,0.00,,---,0.00,VWS V14.01,2013-03-14 08:26:00,
2013-03-14 03:27:00,51.1,17.4,25.66,SW,225,0.0,0.0,26,0.00,,---,0.00,VWS V14.01,2013-03-14 08:27:00,
2013-03-14 03:28:00,50.9,17.2,25.66,SW,225,0.9,0.9,26,0.00,,---,0.00,VWS V14.01,2013-03-14 08:28:00,
2013-03-14 03:29:00,50.9,17.2,25.66,SW,225,0.9,1.3,26,0.00,,---,0.00,VWS V14.01,2013-03-14 08:29:00,
2013-03-14 03:30:00,50.9,17.2,25.66,SW,225,0.0,0.9,26,0.00,,---,0.00,VWS V14.01,2013-03-14 08:30:00,
2013-03-14 03:31:00,50.9,17.2,25.66,SW,225,0.0,0.0,26,0.00,,---,0.00,VWS V14.01,2013-03-14 08:31:00,
2013-03-14 03:32:00,50.9,17.2,25.66,SSW,202,0.0,2.0,26,0.00,,---,0.00,VWS V14.01,2013-03-14 08:32:00,
2013-03-14 03:33:00,51.1,17.4,25.66,SSW,202,2.0,2.0,26,0.00,,---,0.00,VWS V14.01,2013-03-14 08:33:00,
2013-03-14 03:34:00,51.1,17.4,25.66,SSW,202,1.6,2.0,26,0.00,,---,0.00,VWS V14.01,2013-03-14 08:34:00,
2013-03-14 03:35:00,51.3,17.6,25.66,SSW,202,1.1,1.6,26,0.00,,---,0.00,VWS V14.01,2013-03-14 08:35:00,
2013-03-14 03:36:00,51.3,17.6,25.66,SSW,202,1.3,1.3,26,0.00,,---,0.00,VWS V14.01,2013-03-14 08:36:00,
2013-03-14 03:37:00,51.4,17.7,25.66,SSW,202,2.9,4.9,26,0.00,,---,0.00,VWS V14.01,2013-03-14 08:37:00,
2013-03-14 03:38:00,52.0,18.2,25.66,SSW,202,2.2,2.9,26,0.00,,---,0.00,VWS V14.01,2013-03-14 08:38:00,
2013-03-14 03:39:00,52.2,18.3,25.66,SSW,202,2.5,2.9,26,0.00,,---,0.00,VWS V14.01,2013-03-14 08:39:00,
2013-03-14 03:40:00,52.3,18.5,25.66,South,180,1.1,2.5,26,0.00,,---,0.00,VWS V14.01,2013-03-14 08:40:00,
2013-03-14 03:41:00,52.3,18.5,25.66,South,180,2.0,2.5,26,0.00,,---,0.00,VWS V14.01,2013-03-14 08:41:00,
2013-03-14 03:42:00,52.3,18.5,25.66,SSW,202,2.5,2.5,26,0.00,,---,0.00,VWS V14.01,2013-03-14 08:42:00,
2013-03-14 03:43:00,52.5,18.6,25.66,SSW,202,2.0,2.5,26,0.00,,---,0.00,VWS V14.01,2013-03-14 08:43:00,
2013-03-14 03:44:00,52.5,18.6,25.66,South,180,2.0,2.0,26,0.00,,---,0.00,VWS V14.01,2013-03-14 08:44:00,
2013-03-14 03:45:00,52.3,18.5,25.66,SSW,202,1.1,2.0,26,0.00,,---,0.00,VWS V14.01,2013-03-14 08:45:00,
2013-03-14 03:46:00,52.2,18.3,25.66,SSW,202,1.1,1.3,26,0.00,,---,0.00,VWS V14.01,2013-03-14 08:46:00,
2013-03-14 03:47:00,52.2,18.3,25.66,SSW,202,1.6,1.6,26,0.00,,---,0.00,VWS V14.01,2013-03-14 08:47:00,
2013-03-14 03:48:00,52.3,18.5,25.66,SSW,202,2.7,2.7,26,0.00,,---,0.00,VWS V14.01,2013-03-14 08:48:00,
2013-03-14 03:49:00,52.2,18.3,25.66,SSW,202,2.5,2.7,26,0.00,,---,0.00,VWS V14.01,2013-03-14 08:49:00,
2013-03-14 03:50:00,52.2,18.3,25.66,SSW,202,2.9,2.9,26,0.00,,---,0.00,VWS V14.01,2013-03-14 08:50:00,
2013-03-14 03:51:00,52.2,18.3,25.66,SSW,202,2.9,2.9,26,0.00,,---,0.00,VWS V14.01,2013-03-14 08:51:00,
2013-03-14 03:52:00,52.2,18.3,25.66,SSW,202,2.9,2.9,26,0.00,,---,0.00,VWS V14.01,2013-03-14 08:52:00,
2013-03-14 03:53:00,52.3,18.5,25.66,SW,225,3.1,3.1,26,0.00,,---,0.00,VWS V14.01,2013-03-14 08:53:00,
2013-03-14 03:54:00,52.2,18.3,25.63,SW,225,1.3,3.1,26,0.00,,---,0.00,VWS V14.01,2013-03-14 08:54:00,
2013-03-14 03:55:00,51.6,17.9,25.63,SW,225,0.0,0.0,26,0.00,,---,0.00,VWS V14.01,2013-03-14 08:55:00,
2013-03-14 03:56:00,50.9,17.2,25.63,SW,225,0.0,0.0,26,0.00,,---,0.00,VWS V14.01,2013-03-14 08:56:00,
2013-03-14 03:57:00,50.7,17.1,25.63,SW,225,0.0,0.0,26,0.00,,---,0.00,VWS V14.01,2013-03-14 08:57:00,
2013-03-14 03:58:00,50.7,17.1,25.63,SW,225,0.0,0.0,26,0.00,,---,0.00,VWS V14.01,2013-03-14 08:58:00,
2013-03-14 03:59:00,50.5,17.0,25.63,SW,225,0.0,0.0,26,0.00,,---,0.00,VWS V14.01,2013-03-14 08:59:00,
2013-03-14 04:00:00,50.4,16.8,25.63,South,180,0.0,0.0,26,0.00,,---,0.00,VWS V14.01,2013-03-14 09:00:00,
2013-03-14 04:01:00,50.0,16.5,25.63,South,180,0.0,0.0,26,0.00,,---,0.00,VWS V14.01,2013-03-14 09:01:00,
2013-03-14 04:02:00,49.8,17.2,25.63,SSE,158,0.0,0.0,27,0.00,,---,0.00,VWS V14.01,2013-03-14 09:02:00,
2013-03-14 04:03:00,49.5,16.0,25.63,SSE,158,0.0,0.0,26,0.00,,---,0.00,VWS V14.01,2013-03-14 09:03:00,
2013-03-14 04:04:00,49.5,16.0,25.63,SSE,158,0.0,0.0,26,0.00,,---,0.00,VWS V14.01,2013-03-14 09:04:00,
2013-03-14 04:05:00,49.3,16.7,25.63,SSE,158,0.0,0.0,27,0.00,,---,0.00,VWS V14.01,2013-03-14 09:05:00,
2013-03-14 04:06:00,49.1,15.7,25.63,SSE,158,0.0,0.0,26,0.00,,---,0.00,VWS V14.01,2013-03-14 09:06:00,
2013-03-14 04:07:00,49.1,15.7,25.63,SSE,158,0.0,0.0,26,0.00,,---,0.00,VWS V14.01,2013-03-14 09:07:00,
2013-03-14 04:08:00,49.1,16.6,25.63,ESE,112,2.5,2.5,27,0.00,,---,0.00,VWS V14.01,2013-03-14 09:08:00,
2013-03-14 04:09:00,49.3,16.7,25.66,ESE,112,2.9,3.1,27,0.00,,---,0.00,VWS V14.01,2013-03-14 09:09:00,
2013-03-14 04:10:00,49.3,16.7,25.66,ESE,112,2.5,2.9,27,0.00,,---,0.00,VWS V14.01,2013-03-14 09:10:00,
2013-03-14 04:11:00,49.5,16.9,25.66,SE,135,2.5,2.5,27,0.00,,---,0.00,VWS V14.01,2013-03-14 09:11:00,
2013-03-14 04:12:00,49.5,16.9,25.66,SE,135,3.6,4.3,27,0.00,,---,0.00,VWS V14.01,2013-03-14 09:12:00,
2013-03-14 04:13:00,49.5,16.9,25.66,ESE,112,3.8,4.0,27,0.00,,---,0.00,VWS V14.01,2013-03-14 09:13:00,
2013-03-14 04:14:00,49.5,16.9,25.66,SE,135,4.0,5.4,27,0.00,,---,0.00,VWS V14.01,2013-03-14 09:14:00,
2013-03-14 04:15:00,49.6,17.0,25.66,SSE,158,3.1,4.7,27,0.00,,---,0.00,VWS V14.01,2013-03-14 09:15:00,
2013-03-14 04:16:00,49.6,17.0,25.66,SE,135,3.1,3.1,27,0.00,,---,0.00,VWS V14.01,2013-03-14 09:16:00,
2013-03-14 04:17:00,49.8,17.2,25.66,SE,135,2.9,2.9,27,0.00,,---,0.00,VWS V14.01,2013-03-14 09:17:00,
2013-03-14 04:18:00,50.0,16.5,25.66,SSE,158,2.5,3.1,26,0.00,,---,0.00,VWS V14.01,2013-03-14 09:18:00,
2013-03-14 04:19:00,50.0,16.5,25.66,SSE,158,3.4,3.4,26,0.00,,---,0.00,VWS V14.01,2013-03-14 09:19:00,
2013-03-14 04:20:00,50.4,16.8,25.66,SE,135,2.5,3.4,26,0.00,,---,0.00,VWS V14.01,2013-03-14 09:20:00,
2013-03-14 04:21:00,50.4,16.8,25.66,SE,135,1.6,2.5,26,0.00,,---,0.00,VWS V14.01,2013-03-14 09:21:00,
2013-03-14 04:22:00,50.4,16.8,25.66,SE,135,2.5,3.1,26,0.00,,---,0.00,VWS V14.01,2013-03-14 09:22:00,
2013-03-14 04:23:00,50.2,16.6,25.66,SE,135,2.9,3.4,26,0.00,,---,0.00,VWS V14.01,2013-03-14 09:23:00,
2013-03-14 04:24:00,50.2,16.6,25.66,SE,135,2.7,2.9,26,0.00,,---,0.00,VWS V14.01,2013-03-14 09:24:00,
2013-03-14 04:25:00,50.2,16.6,25.66,SSE,158,0.0,2.7,26,0.00,,---,0.00,VWS V14.01,2013-03-14 09:25:00,
2013-03-14 04:26:00,50.2,16.6,25.66,SSE,158,0.0,0.0,26,0.00,,---,0.00,VWS V14.01,2013-03-14 09:26:00,
2013-03-14 04:27:00,50.2,16.6,25.66,SSW,202,1.3,1.3,26,0.00,,---,0.00,VWS V14.01,2013-03-14 09:27:00,
2013-03-14 04:28:00,50.5,17.0,25.66,SSW,202,0.0,1.3,26,0.00,,---,0.00,VWS V14.01,2013-03-14 09:28:00,
2013-03-14 04:29:00,50.7,17.1,25.66,SSW,202,1.3,2.2,26,0.00,,---,0.00,VWS V14.01,2013-03-14 09:29:00,
2013-03-14 04:30:00,50.7,17.1,25.66,SSW,202,0.0,1.3,26,0.00,,---,0.00,VWS V14.01,2013-03-14 09:30:00,
2013-03-14 04:31:00,50.5,17.0,25.66,SE,135,3.1,3.1,26,0.00,,---,0.00,VWS V14.01,2013-03-14 09:31:00,
2013-03-14 04:32:00,50.4,16.8,25.66,SE,135,1.6,3.1,26,0.00,,---,0.00,VWS V14.01,2013-03-14 09:32:00,
2013-03-14 04:33:00,50.4,16.8,25.66,SE,135,1.6,2.0,26,0.00,,---,0.00,VWS V14.01,2013-03-14 09:33:00,
2013-03-14 04:34:00,50.4,16.8,25.66,SSW,202,2.7,2.7,26,0.00,,---,0.00,VWS V14.01,2013-03-14 09:34:00,
2013-03-14 04:35:00,50.4,16.8,25.66,South,180,3.4,4.0,26,0.00,,---,0.00,VWS V14.01,2013-03-14 09:35:00,
2013-03-14 04:36:00,50.4,16.8,25.66,SE,135,3.6,4.0,26,0.00,,---,0.00,VWS V14.01,2013-03-14 09:36:00,
2013-03-14 04:37:00,50.5,17.0,25.66,South,180,3.1,3.6,26,0.00,,---,0.00,VWS V14.01,2013-03-14 09:37:00,
2013-03-14 04:38:00,50.7,17.1,25.66,South,180,1.6,3.1,26,0.00,,---,0.00,VWS V14.01,2013-03-14 09:38:00,
2013-03-14 04:39:00,50.9,17.2,25.66,South,180,0.9,2.0,26,0.00,,---,0.00,VWS V14.01,2013-03-14 09:39:00,
2013-03-14 04:41:00,50.9,17.2,25.66,SSW,202,2.2,2.2,26,0.00,,---,0.00,VWS V14.01,2013-03-14 09:41:00,
2013-03-14 04:42:00,50.9,17.2,25.66,South,180,3.1,3.1,26,0.00,,---,0.00,VWS V14.01,2013-03-14 09:42:00,
2013-03-14 04:43:00,51.4,17.7,25.66,South,180,2.9,3.1,26,0.00,,---,0.00,VWS V14.01,2013-03-14 09:43:00,
2013-03-14 04:44:00,51.4,17.7,25.66,SSE,158,3.8,3.8,26,0.00,,---,0.00,VWS V14.01,2013-03-14 09:44:00,
2013-03-14 04:45:00,51.6,17.9,25.66,South,180,3.6,3.8,26,0.00,,---,0.00,VWS V14.01,2013-03-14 09:45:00,
2013-03-14 04:46:00,52.0,18.2,25.66,South,180,1.6,3.6,26,0.00,,---,0.00,VWS V14.01,2013-03-14 09:46:00,
2013-03-14 04:47:00,52.0,18.2,25.66,SSE,158,2.7,3.6,26,0.00,,---,0.00,VWS V14.01,2013-03-14 09:47:00,
2013-03-14 04:48:00,52.0,18.2,25.66,SW,225,1.1,2.7,26,0.00,,---,0.00,VWS V14.01,2013-03-14 09:48:00,
2013-03-14 04:49:00,52.0,18.2,25.66,SSW,202,1.6,2.2,26,0.00,,---,0.00,VWS V14.01,2013-03-14 09:49:00,
2013-03-14 04:50:00,51.8,18.0,25.66,SSW,202,0.0,1.6,26,0.00,,---,0.00,VWS V14.01,2013-03-14 09:50:00,
2013-03-14 04:51:00,51.4,17.7,25.66,South,180,0.0,0.0,26,0.00,,---,0.00,VWS V14.01,2013-03-14 09:51:00,
2013-03-14 04:52:00,51.4,17.7,25.66,SE,135,1.3,2.2,26,0.00,,---,0.00,VWS V14.01,2013-03-14 09:52:00,
2013-03-14 04:53:00,51.1,17.4,25.66,SSE,158,2.0,2.0,26,0.00,,---,0.00,VWS V14.01,2013-03-14 09:53:00,
2013-03-14 04:54:00,51.1,17.4,25.66,SSE,158,2.7,2.7,26,0.00,,---,0.00,VWS V14.01,2013-03-14 09:54:00,
2013-03-14 04:55:00,51.1,17.4,25.66,SE,135,2.5,2.7,26,0.00,,---,0.00,VWS V14.01,2013-03-14 09:55:00,
2013-03-14 04:56:00,51.1,17.4,25.66,SE,135,2.0,2.5,26,0.00,,---,0.00,VWS V14.01,2013-03-14 09:56:00,
2013-03-14 04:57:00,50.5,17.0,25.66,SE,135,3.4,3.4,26,0.00,,---,0.00,VWS V14.01,2013-03-14 09:57:00,
2013-03-14 04:58:00,50.4,16.8,25.66,SE,135,3.4,3.4,26,0.00,,---,0.00,VWS V14.01,2013-03-14 09:58:00,
2013-03-14 04:59:00,50.2,16.6,25.66,SSW,202,1.1,3.4,26,0.00,,---,0.00,VWS V14.01,2013-03-14 09:59:00,
2013-03-14 05:00:00,50.0,16.5,25.66,SW,225,2.0,2.0,26,0.00,,---,0.00,VWS V14.01,2013-03-14 10:00:00,
2013-03-14 05:01:00,49.8,17.2,25.66,SSW,202,1.6,2.7,27,0.00,,---,0.00,VWS V14.01,2013-03-14 10:01:00,
2013-03-14 05:02:00,49.8,17.2,25.66,SSW,202,0.9,2.2,27,0.00,,---,0.00,VWS V14.01,2013-03-14 10:02:00,
2013-03-14 05:03:00,49.6,17.0,25.66,SSW,202,0.0,1.1,27,0.00,,---,0.00,VWS V14.01,2013-03-14 10:03:00,
2013-03-14 05:04:00,49.6,17.0,25.66,SW,225,2.5,2.5,27,0.00,,---,0.00,VWS V14.01,2013-03-14 10:04:00,
2013-03-14 05:05:00,49.5,16.9,25.66,SW,225,2.0,2.5,27,0.00,,---,0.00,VWS V14.01,2013-03-14 10:05:00,
2013-03-14 05:06:00,49.5,16.9,25.66,South,180,2.9,2.9,27,0.00,,---,0.00,VWS V14.01,2013-03-14 10:06:00,
2013-03-14 05:07:00,49.3,16.7,25.66,South,180,2.7,2.9,27,0.00,,---,0.00,VWS V14.01,2013-03-14 10:07:00,
2013-03-14 05:08:00,49.1,16.6,25.66,South,180,1.3,2.7,27,0.00,,---,0.00,VWS V14.01,2013-03-14 10:08:00,
2013-03-14 05:09:00,49.1,16.6,25.66,SE,135,2.2,2.2,27,0.00,,---,0.00,VWS V14.01,2013-03-14 10:09:00,
2013-03-14 05:10:00,49.1,16.6,25.66,SE,135,2.0,2.5,27,0.00,,---,0.00,VWS V14.01,2013-03-14 10:10:00,
2013-03-14 05:11:00,48.9,16.4,25.66,SE,135,3.1,3.6,27,0.00,,---,0.00,VWS V14.01,2013-03-14 10:11:00,
2013-03-14 05:12:00,49.1,16.6,25.66,ESE,112,2.5,3.1,27,0.00,,---,0.00,VWS V14.01,2013-03-14 10:12:00,
2013-03-14 05:13:00,49.1,16.6,25.66,SE,135,3.6,4.0,27,0.00,,---,0.00,VWS V14.01,2013-03-14 10:13:00,
2013-03-14 05:14:00,49.3,16.7,25.66,ESE,112,3.8,4.0,27,0.00,,---,0.00,VWS V14.01,2013-03-14 10:14:00,
2013-03-14 05:15:00,49.5,16.9,25.66,SSE,158,4.0,4.0,27,0.00,,---,0.00,VWS V14.01,2013-03-14 10:15:00,
2013-03-14 05:16:00,49.5,16.9,25.66,SE,135,4.0,4.0,27,0.00,,---,0.00,VWS V14.01,2013-03-14 10:16:00,
2013-03-14 05:17:00,49.5,16.9,25.66,SE,135,4.0,4.0,27,0.00,,---,0.00,VWS V14.01,2013-03-14 10:17:00,
2013-03-14 05:18:00,49.6,17.0,25.66,SE,135,3.8,4.0,27,0.00,,---,0.00,VWS V14.01,2013-03-14 10:18:00,
2013-03-14 05:19:00,49.8,17.2,25.66,SE,135,3.6,3.8,27,0.00,,---,0.00,VWS V14.01,2013-03-14 10:19:00,
2013-03-14 05:20:00,49.8,17.2,25.66,SSE,158,3.1,3.6,27,0.00,,---,0.00,VWS V14.01,2013-03-14 10:20:00,
2013-03-14 05:21:00,50.2,16.6,25.66,SSE,158,3.4,3.4,26,0.00,,---,0.00,VWS V14.01,2013-03-14 10:21:00,
2013-03-14 05:22:00,50.4,16.8,25.66,SSE,158,3.1,3.4,26,0.00,,---,0.00,VWS V14.01,2013-03-14 10:22:00,
2013-03-14 05:23:00,50.4,16.8,25.66,SE,135,3.4,3.4,26,0.00,,---,0.00,VWS V14.01,2013-03-14 10:23:00,
2013-03-14 05:24:00,50.4,16.8,25.66,South,180,2.5,3.4,26,0.00,,---,0.00,VWS V14.01,2013-03-14 10:24:00,
2013-03-14 05:25:00,50.4,16.8,25.66,South,180,2.2,2.5,26,0.00,,---,0.00,VWS V14.01,2013-03-14 10:25:00,
2013-03-14 05:26:00,50.7,17.1,25.66,South,180,2.7,2.7,26,0.00,,---,0.00,VWS V14.01,2013-03-14 10:26:00,
2013-03-14 05:27:00,50.7,17.1,25.66,SE,135,3.1,3.1,26,0.00,,---,0.00,VWS V14.01,2013-03-14 10:27:00,
2013-03-14 05:29:00,50.7,17.1,25.66,SSE,158,4.5,4.5,26,0.00,,---,0.00,VWS V14.01,2013-03-14 10:29:00,
2013-03-14 05:30:00,51.1,17.4,25.66,South,180,1.6,4.5,26,0.00,,---,0.00,VWS V14.01,2013-03-14 10:30:00,
2013-03-14 05:31:00,51.1,17.4,25.66,SSW,202,2.0,3.1,26,0.00,,---,0.00,VWS V14.01,2013-03-14 10:31:00,
2013-03-14 05:32:00,51.1,17.4,25.66,South,180,3.1,3.1,26,0.00,,---,0.00,VWS V14.01,2013-03-14 10:32:00,
2013-03-14 05:33:00,51.1,17.4,25.66,SSE,158,4.0,4.0,26,0.00,,---,0.00,VWS V14.01,2013-03-14 10:33:00,
2013-03-14 05:34:00,50.9,17.2,25.66,South,180,2.0,4.7,26,0.00,,---,0.00,VWS V14.01,2013-03-14 10:34:00,
2013-03-14 05:35:00,50.7,17.1,25.66,SSW,202,2.7,2.9,26,0.00,,---,0.00,VWS V14.01,2013-03-14 10:35:00,
2013-03-14 05:36:00,50.5,17.0,25.66,SSW,202,2.0,2.7,26,0.00,,---,0.00,VWS V14.01,2013-03-14 10:36:00,
2013-03-14 05:37:00,50.5,17.0,25.66,SSW,202,2.9,2.9,26,0.00,,---,0.00,VWS V14.01,2013-03-14 10:37:00,
2013-03-14 05:38:00,50.5,17.0,25.66,SSW,202,2.7,3.4,26,0.00,,---,0.00,VWS V14.01,2013-03-14 10:38:00,
2013-03-14 05:39:00,50.4,16.8,25.66,South,180,2.5,2.7,26,0.00,,---,0.00,VWS V14.01,2013-03-14 10:39:00,
2013-03-14 05:40:00,50.4,16.8,25.66,SSW,202,2.7,3.1,26,0.00,,---,0.00,VWS V14.01,2013-03-14 10:40:00,
2013-03-14 05:41:00,50.4,16.8,25.66,SSW,202,2.7,2.7,26,0.00,,---,0.00,VWS V14.01,2013-03-14 10:41:00,
2013-03-14 05:42:00,50.2,16.6,25.66,SW,225,2.5,2.9,26,0.00,,---,0.00,VWS V14.01,2013-03-14 10:42:00,
2013-03-14 05:43:00,50.2,16.6,25.66,WSW,248,2.5,2.5,26,0.00,,---,0.00,VWS V14.01,2013-03-14 10:43:00,
2013-03-14 05:44:00,50.4,16.8,25.66,SSW,202,2.9,3.4,26,0.00,,---,0.00,VWS V14.01,2013-03-14 10:44:00,
2013-03-14 05:45:00,50.4,16.8,25.66,SSW,202,2.5,2.9,26,0.00,,---,0.00,VWS V14.01,2013-03-14 10:45:00,
2013-03-14 05:46:00,50.4,16.8,25.66,SSE,158,3.4,3.4,26,0.00,,---,0.00,VWS V14.01,2013-03-14 10:46:00,
2013-03-14 05:47:00,50.4,16.8,25.66,South,180,4.0,4.0,26,0.00,,---,0.00,VWS V14.01,2013-03-14 10:47:00,
2013-03-14 05:48:00,50.2,16.6,25.66,SSE,158,2.7,4.0,26,0.00,,---,0.00,VWS V14.01,2013-03-14 10:48:00,
2013-03-14 05:49:00,50.2,16.6,25.66,SE,135,3.4,3.4,26,0.00,,---,0.00,VWS V14.01,2013-03-14 10:49:00,
2013-03-14 05:50:00,50.2,16.6,25.66,SE,135,2.5,3.4,26,0.00,,---,0.00,VWS V14.01,2013-03-14 10:50:00,
2013-03-14 05:51:00,49.6,16.2,25.66,SE,135,3.1,3.8,26,0.00,,---,0.00,VWS V14.01,2013-03-14 10:51:00,
2013-03-14 05:52:00,49.5,16.0,25.66,South,180,0.9,3.4,26,0.00,,---,0.00,VWS V14.01,2013-03-14 10:52:00,
2013-03-14 05:53:00,49.6,16.2,25.66,South,180,0.0,0.9,26,0.00,,---,0.00,VWS V14.01,2013-03-14 10:53:00,
2013-03-14 05:54:00,49.6,16.2,25.66,South,180,0.0,0.9,26,0.00,,---,0.00,VWS V14.01,2013-03-14 10:54:00,
2013-03-14 05:55:00,49.5,16.0,25.66,South,180,1.3,1.3,26,0.00,,---,0.00,VWS V14.01,2013-03-14 10:55:00,
2013-03-14 05:56:00,49.5,16.0,25.66,South,180,0.0,1.3,26,0.00,,---,0.00,VWS V14.01,2013-03-14 10:56:00,
2013-03-14 05:57:00,49.5,16.0,25.66,South,180,0.0,1.3,26,0.00,,---,0.00,VWS V14.01,2013-03-14 10:57:00,
2013-03-14 05:58:00,49.3,15.9,25.66,SE,135,1.6,1.6,26,0.00,,---,0.00,VWS V14.01,2013-03-14 10:58:00,
2013-03-14 05:59:00,49.1,15.7,25.66,ESE,112,2.5,2.5,26,0.00,,---,0.00,VWS V14.01,2013-03-14 10:59:00,
2013-03-14 06:00:00,48.9,15.6,25.66,ESE,112,2.9,2.9,26,0.00,,---,0.00,VWS V14.01,2013-03-14 11:00:00,
2013-03-14 06:01:00,48.9,15.6,25.66,East,90,2.5,2.9,26,0.00,,---,0.00,VWS V14.01,2013-03-14 11:01:00,
2013-03-14 06:02:00,48.9,15.6,25.66,South,180,1.6,2.5,26,0.00,,---,0.00,VWS V14.01,2013-03-14 11:02:00,
2013-03-14 06:03:00,48.9,15.6,25.66,SSE,158,1.3,2.0,26,0.00,,---,0.00,VWS V14.01,2013-03-14 11:03:00,
2013-03-14 06:04:00,48.9,15.6,25.66,South,180,0.0,1.3,26,0.00,,---,0.00,VWS V14.01,2013-03-14 11:04:00,
2013-03-14 06:05:00,48.9,15.6,25.66,South,180,0.0,0.0,26,0.00,,---,0.00,VWS V14.01,2013-03-14 11:05:00,
2013-03-14 06:06:00,48.9,15.6,25.66,ESE,112,2.5,2.5,26,0.00,,---,0.00,VWS V14.01,2013-03-14 11:06:00,
2013-03-14 06:07:00,48.9,15.6,25.66,ESE,112,1.1,2.5,26,0.00,,---,0.00,VWS V14.01,2013-03-14 11:07:00,
2013-03-14 06:08:00,48.6,15.2,25.66,ENE,68,1.6,1.6,26,0.00,,---,0.00,VWS V14.01,2013-03-14 11:08:00,
2013-03-14 06:09:00,48.4,15.1,25.66,NE,45,0.9,1.6,26,0.00,,---,0.00,VWS V14.01,2013-03-14 11:09:00,
2013-03-14 06:10:00,48.4,15.1,25.66,NE,45,0.0,0.9,26,0.00,,---,0.00,VWS V14.01,2013-03-14 11:10:00,
2013-03-14 06:11:00,48.2,14.9,25.66,NE,45,0.0,0.0,26,0.00,,---,0.00,VWS V14.01,2013-03-14 11:11:00,
2013-03-14 06:12:00,48.2,14.9,25.66,East,90,0.0,0.0,26,0.00,,---,0.00,VWS V14.01,2013-03-14 11:12:00,
2013-03-14 06:13:00,47.8,15.5,25.66,East,90,0.0,0.0,27,0.00,,---,0.00,VWS V14.01,2013-03-14 11:13:00,
2013-03-14 06:14:00,47.8,15.5,25.66,East,90,0.0,0.0,27,0.00,,---,0.00,VWS V14.01,2013-03-14 11:14:00,
2013-03-14 06:17:00,47.8,15.5,25.66,ESE,112,2.5,2.5,27,0.00,,---,0.00,VWS V14.01,2013-03-14 11:17:00,
2013-03-14 06:18:00,47.7,15.3,25.66,ESE,112,3.6,3.6,27,0.00,,---,0.00,VWS V14.01,2013-03-14 11:18:00,
2013-03-14 06:19:00,47.8,15.5,25.66,ESE,112,2.7,3.6,27,0.00,,---,0.00,VWS V14.01,2013-03-14 11:19:00,
2013-03-14 06:20:00,48.0,15.6,25.66,SE,135,2.2,2.7,27,0.00,,---,0.00,VWS V14.01,2013-03-14 11:20:00,
2013-03-14 06:21:00,48.4,15.1,25.66,South,180,1.3,2.2,26,0.00,,---,0.00,VWS V14.01,2013-03-14 11:21:00,
2013-03-14 06:22:00,48.4,15.1,25.66,South,180,0.0,1.3,26,0.00,,---,0.00,VWS V14.01,2013-03-14 11:22:00,
2013-03-14 06:23:00,48.4,15.1,25.66,SSE,158,2.5,2.5,26,0.00,,---,0.00,VWS V14.01,2013-03-14 11:23:00,
2013-03-14 06:24:00,48.7,16.3,25.66,SE,135,2.5,2.9,27,0.00,,---,0.00,VWS V14.01,2013-03-14 11:24:00,
2013-03-14 06:25:00,48.7,15.4,25.66,ESE,112,2.7,3.6,26,0.00,,---,0.00,VWS V14.01,2013-03-14 11:25:00,
2013-03-14 06:26:00,48.7,15.4,25.66,SE,135,2.7,2.7,26,0.00,,---,0.00,VWS V14.01,2013-03-14 11:26:00,
2013-03-14 06:27:00,48.7,16.3,25.66,SE,135,2.7,3.1,27,0.00,,---,0.00,VWS V14.01,2013-03-14 11:27:00,
2013-03-14 06:28:00,48.7,16.3,25.66,SE,135,3.1,3.1,27,0.00,,---,0.00,VWS V14.01,2013-03-14 11:28:00,
2013-03-14 06:29:00,48.9,16.4,25.66,SE,135,3.4,3.6,27,0.00,,---,0.00,VWS V14.01,2013-03-14 11:29:00,
2013-03-14 06:30:00,49.1,15.7,25.66,SE,135,2.5,3.4,26,0.00,,---,0.00,VWS V14.01,2013-03-14 11:30:00,
2013-03-14 06:31:00,49.1,15.7,25.66,SSE,158,0.0,2.7,26,0.00,,---,0.00,VWS V14.01,2013-03-14 11:31:00,
2013-03-14 06:32:00,49.1,15.7,25.66,SSE,158,0.0,0.0,26,0.00,,---,0.00,VWS V14.01,2013-03-14 11:32:00,
2013-03-14 06:33:00,49.8,16.3,25.66,South,180,0.0,0.0,26,0.00,,---,0.00,VWS V14.01,2013-03-14 11:33:00,
2013-03-14 06:34:00,49.8,16.3,25.66,South,180,1.3,1.3,26,0.00,,---,0.00,VWS V14.01,2013-03-14 11:34:00,
2013-03-14 06:35:00,49.5,16.0,25.66,South,180,1.6,1.6,26,0.00,,---,0.00,VWS V14.01,2013-03-14 11:35:00,
2013-03-14 06:36:00,49.3,15.9,25.66,South,180,1.6,1.6,26,0.00,,---,0.00,VWS V14.01,2013-03-14 11:36:00,
2013-03-14 06:37:00,49.5,16.0,25.66,South,180,0.0,1.6,26,0.00,,---,0.00,VWS V14.01,2013-03-14 11:37:00,
2013-03-14 06:38:00,49.6,16.2,25.66,South,180,0.0,0.0,26,0.00,,---,0.00,VWS V14.01,2013-03-14 11:38:00,
2013-03-14 06:39:00,49.6,16.2,25.66,South,180,1.3,1.3,26,0.00,,---,0.00,VWS V14.01,2013-03-14 11:39:00,
2013-03-14 06:40:00,49.6,16.2,25.66,South,180,0.0,1.3,26,0.00,,---,0.00,VWS V14.01,2013-03-14 11:40:00,
2013-03-14 06:41:00,49.8,16.3,25.66,South,180,0.0,0.0,26,0.00,,---,0.00,VWS V14.01,2013-03-14 11:41:00,
2013-03-14 06:42:00,49.6,16.2,25.66,South,180,0.0,0.0,26,0.00,,---,0.00,VWS V14.01,2013-03-14 11:42:00,
2013-03-14 06:43:00,49.6,16.2,25.66,West,270,2.7,2.7,26,0.00,,---,0.00,VWS V14.01,2013-03-14 11:43:00,
2013-03-14 06:44:00,49.5,16.0,25.66,West,270,2.9,3.1,26,0.00,,---,0.00,VWS V14.01,2013-03-14 11:44:00,
2013-03-14 06:45:00,49.3,15.9,25.66,West,270,2.5,2.9,26,0.00,,---,0.00,VWS V14.01,2013-03-14 11:45:00,
2013-03-14 06:47:00,49.1,15.7,25.66,West,270,2.9,2.9,26,0.00,,---,0.00,VWS V14.01,2013-03-14 11:47:00,
2013-03-14 06:48:00,48.9,15.6,25.66,SW,225,2.0,2.9,26,0.00,,---,0.00,VWS V14.01,2013-03-14 11:48:00,
2013-03-14 06:49:00,48.9,15.6,25.66,WSW,248,0.0,2.0,26,0.00,,---,0.00,VWS V14.01,2013-03-14 11:49:00,
2013-03-14 06:50:00,48.2,14.9,25.66,WSW,248,0.0,0.0,26,0.00,,---,0.00,VWS V14.01,2013-03-14 11:50:00,
2013-03-14 06:51:00,48.0,15.6,25.66,WSW,248,0.0,0.0,27,0.00,,---,0.00,VWS V14.01,2013-03-14 11:51:00,
2013-03-14 06:52:00,48.0,15.6,25.66,WNW,292,1.1,1.1,27,0.00,,---,0.00,VWS V14.01,2013-03-14 11:52:00,
2013-03-14 06:53:00,47.7,15.3,25.66,WNW,292,2.7,2.7,27,0.00,,---,0.00,VWS V14.01,2013-03-14 11:53:00,
2013-03-14 06:54:00,47.7,15.3,25.66,West,270,2.0,2.9,27,0.00,,---,0.00,VWS V14.01,2013-03-14 11:54:00,
2013-03-14 06:55:00,47.7,15.3,25.66,West,270,2.0,2.0,27,0.00,,---,0.00,VWS V14.01,2013-03-14 11:55:00,
2013-03-14 06:56:00,47.7,15.3,25.66,West,270,1.3,2.0,27,0.00,,---,0.00,VWS V14.01,2013-03-14 11:56:00,
2013-03-14 06:57:00,47.8,15.5,25.66,West,270,2.7,2.7,27,0.00,,---,0.00,VWS V14.01,2013-03-14 11:57:00,
2013-03-14 06:58:00,47.8,15.5,25.66,West,270,2.5,2.7,27,0.00,,---,0.00,VWS V14.01,2013-03-14 11:58:00,
2013-03-14 06:59:00,47.7,15.3,25.66,West,270,2.0,2.5,27,0.00,,---,0.00,VWS V14.01,2013-03-14 11:59:00,
2013-03-14 07:01:00,47.7,15.3,25.66,WSW,248,2.0,2.2,27,0.00,,---,0.00,VWS V14.01,2013-03-14 12:01:00,
2013-03-14 07:02:00,47.7,15.3,25.66,WSW,248,0.0,2.0,27,0.00,,---,0.00,VWS V14.01,2013-03-14 12:02:00,
2013-03-14 07:03:00,47.7,15.3,25.66,WSW,248,0.0,0.0,27,0.00,,---,0.00,VWS V14.01,2013-03-14 12:03:00,
2013-03-14 07:04:00,47.7,15.3,25.66,WSW,248,0.0,0.0,27,0.00,,---,0.00,VWS V14.01,2013-03-14 12:04:00,
2013-03-14 07:05:00,47.5,15.2,25.66,WSW,248,0.0,0.0,27,0.00,,---,0.00,VWS V14.01,2013-03-14 12:05:00,
2013-03-14 07:06:00,47.5,15.2,25.66,WSW,248,0.0,0.0,27,0.00,,---,0.00,VWS V14.01,2013-03-14 12:06:00,
2013-03-14 07:08:00,47.3,15.0,25.66,WSW,248,0.0,0.0,27,0.00,,---,0.00,VWS V14.01,2013-03-14 12:08:00,
2013-03-14 07:09:00,46.9,14.7,25.66,NE,45,0.0,0.0,27,0.00,,---,0.00,VWS V14.01,2013-03-14 12:09:00,
2013-03-14 07:10:00,46.9,14.7,25.66,NE,45,0.0,0.0,27,0.00,,---,0.00,VWS V14.01,2013-03-14 12:10:00,
2013-03-14 07:11:00,46.9,14.7,25.66,NNE,22,0.0,0.0,27,0.00,,---,0.00,VWS V14.01,2013-03-14 12:11:00,
2013-03-14 07:12:00,46.8,14.6,25.66,NNW,338,1.6,1.6,27,0.00,,---,0.00,VWS V14.01,2013-03-14 12:12:00,
2013-03-14 07:13:00,46.8,14.6,25.66,NNW,338,1.1,1.6,27,0.00,,---,0.00,VWS V14.01,2013-03-14 12:13:00,
2013-03-14 07:14:00,46.8,14.6,25.66,North,0,0.0,1.1,27,0.00,,---,0.00,VWS V14.01,2013-03-14 12:14:00,
2013-03-14 07:15:00,46.8,14.6,25.66,NE,45,0.0,0.0,27,0.00,,---,0.00,VWS V14.01,2013-03-14 12:15:00,
2013-03-14 07:16:00,46.6,14.4,25.66,ENE,68,0.0,0.0,27,0.00,,---,0.00,VWS V14.01,2013-03-14 12:16:00,
2013-03-14 07:17:00,46.6,14.4,25.66,NE,45,0.0,0.0,27,0.00,,---,0.00,VWS V14.01,2013-03-14 12:17:00,
2013-03-14 07:18:00,46.6,14.4,25.66,NE,45,0.0,0.0,27,0.00,,---,0.00,VWS V14.01,2013-03-14 12:18:00,
2013-03-14 07:19:00,46.6,14.4,25.66,NE,45,0.0,0.0,27,0.00,,---,0.00,VWS V14.01,2013-03-14 12:19:00,
2013-03-14 07:20:00,46.4,14.2,25.66,NNE,22,0.0,0.0,27,0.00,,---,0.00,VWS V14.01,2013-03-14 12:20:00,
2013-03-14 07:21:00,46.4,14.2,25.66,NNE,22,0.0,0.0,27,0.00,,---,0.00,VWS V14.01,2013-03-14 12:21:00,
2013-03-14 07:22:00,46.2,14.1,25.66,NE,45,0.0,0.0,27,0.00,,---,0.00,VWS V14.01,2013-03-14 12:22:00,
2013-03-14 07:23:00,46.2,14.1,25.66,NE,45,2.7,2.7,27,0.00,,---,0.00,VWS V14.01,2013-03-14 12:23:00,
2013-03-14 07:24:00,46.2,14.1,25.66,NE,45,2.7,2.7,27,0.00,,---,0.00,VWS V14.01,2013-03-14 12:24:00,
2013-03-14 07:25:00,46.2,14.1,25.66,NE,45,2.5,2.7,27,0.00,,---,0.00,VWS V14.01,2013-03-14 12:25:00,
2013-03-14 07:26:00,46.4,14.2,25.66,NNE,22,2.0,2.5,27,0.00,,---,0.00,VWS V14.01,2013-03-14 12:26:00,
2013-03-14 07:27:00,46.4,14.2,25.66,NNE,22,1.6,2.0,27,0.00,,---,0.00,VWS V14.01,2013-03-14 12:27:00,
2013-03-14 07:28:00,46.6,14.4,25.66,NNE,22,1.3,1.6,27,0.00,,---,0.00,VWS V14.01,2013-03-14 12:28:00,
2013-03-14 07:29:00,46.6,14.4,25.66,NNE,22,2.0,2.0,27,0.00,,---,0.00,VWS V14.01,2013-03-14 12:29:00,
2013-03-14 07:30:00,46.6,14.4,25.66,NNE,22,2.5,2.7,27,0.00,,---,0.00,VWS V14.01,2013-03-14 12:30:00,
2013-03-14 07:31:00,46.8,14.6,25.66,NNE,22,2.9,2.9,27,0.00,,---,0.00,VWS V14.01,2013-03-14 12:31:00,
2013-03-14 07:32:00,46.9,14.7,25.66,NNE,22,2.9,2.9,27,0.00,,---,0.00,VWS V14.01,2013-03-14 12:32:00,
2013-03-14 07:33:00,47.1,14.9,25.66,NE,45,2.5,2.9,27,0.00,,---,0.00,VWS V14.01,2013-03-14 12:33:00,
2013-03-14 07:34:00,47.3,15.0,25.66,ENE,68,1.6,2.5,27,0.00,,---,0.00,VWS V14.01,2013-03-14 12:34:00,
2013-03-14 07:35:00,47.5,15.2,25.66,ENE,68,0.0,1.6,27,0.00,,---,0.00,VWS V14.01,2013-03-14 12:35:00,
2013-03-14 07:36:00,48.0,15.6,25.66,SSW,202,0.0,0.0,27,0.00,,---,0.00,VWS V14.01,2013-03-14 12:36:00,
2013-03-14 07:37:00,48.2,14.9,25.66,SSW,202,0.0,0.0,26,0.00,,---,0.00,VWS V14.01,2013-03-14 12:37:00,
2013-03-14 07:38:00,48.6,15.2,25.66,SSW,202,0.0,0.0,26,0.00,,---,0.00,VWS V14.01,2013-03-14 12:38:00,
2013-03-14 07:39:00,48.6,15.2,25.66,SSW,202,0.0,0.0,26,0.00,,---,0.00,VWS V14.01,2013-03-14 12:39:00,
2013-03-14 07:40:00,48.7,15.4,25.66,SSW,202,0.0,0.0,26,0.00,,---,0.00,VWS V14.01,2013-03-14 12:40:00,
2013-03-14 07:41:00,48.7,15.4,25.66,SSW,202,0.0,0.0,26,0.00,,---,0.00,VWS V14.01,2013-03-14 12:41:00,
2013-03-14 07:42:00,48.7,15.4,25.66,SSW,202,0.0,0.0,26,0.00,,---,0.00,VWS V14.01,2013-03-14 12:42:00,
2013-03-14 07:43:00,49.1,15.7,25.66,SSW,202,0.0,0.0,26,0.00,,---,0.00,VWS V14.01,2013-03-14 12:43:00,
2013-03-14 07:44:00,49.3,15.9,25.66,SSW,202,0.0,0.0,26,0.00,,---,0.00,VWS V14.01,2013-03-14 12:44:00,
2013-03-14 07:45:00,49.5,16.0,25.66,SE,135,0.0,0.0,26,0.00,,---,0.00,VWS V14.01,2013-03-14 12:45:00,
2013-03-14 07:46:00,49.6,17.0,25.66,SE,135,1.6,1.6,27,0.00,,---,0.00,VWS V14.01,2013-03-14 12:46:00,
2013-03-14 07:47:00,49.8,16.3,25.66,SE,135,0.0,1.6,26,0.00,,---,0.00,VWS V14.01,2013-03-14 12:47:00,
2013-03-14 07:48:00,50.0,16.5,25.66,SE,135,0.0,0.0,26,0.00,,---,0.00,VWS V14.01,2013-03-14 12:48:00,
2013-03-14 07:49:00,50.2,16.6,25.66,SE,135,0.0,0.0,26,0.00,,---,0.00,VWS V14.01,2013-03-14 12:49:00,
2013-03-14 07:50:00,50.5,17.0,25.66,SSW,202,0.0,0.0,26,0.00,,---,0.00,VWS V14.01,2013-03-14 12:50:00,
2013-03-14 07:51:00,50.9,17.2,25.66,SSW,202,1.1,1.1,26,0.00,,---,0.00,VWS V14.01,2013-03-14 12:51:00,
2013-03-14 07:52:00,51.1,17.4,25.66,SSW,202,1.3,1.6,26,0.00,,---,0.00,VWS V14.01,2013-03-14 12:52:00,
2013-03-14 07:53:00,51.1,17.4,25.66,SSW,202,0.0,1.3,26,0.00,,---,0.00,VWS V14.01,2013-03-14 12:53:00,
2013-03-14 07:54:00,51.1,17.4,25.66,SSW,202,0.0,0.0,26,0.00,,---,0.00,VWS V14.01,2013-03-14 12:54:00,
2013-03-14 07:55:00,51.6,17.9,25.66,South,180,2.7,2.9,26,0.00,,---,0.00,VWS V14.01,2013-03-14 12:55:00,
2013-03-14 07:56:00,51.6,17.9,25.66,South,180,1.3,2.7,26,0.00,,---,0.00,VWS V14.01,2013-03-14 12:56:00,
2013-03-14 07:57:00,51.6,17.9,25.66,South,180,0.0,1.3,26,0.00,,---,0.00,VWS V14.01,2013-03-14 12:57:00,
2013-03-14 07:58:00,52.2,18.3,25.66,South,180,2.7,2.7,26,0.00,,---,0.00,VWS V14.01,2013-03-14 12:58:00,
2013-03-14 07:59:00,52.3,18.5,25.66,South,180,1.6,2.7,26,0.00,,---,0.00,VWS V14.01,2013-03-14 12:59:00,
2013-03-14 08:00:00,52.7,18.8,25.66,South,180,0.0,1.6,26,0.00,,---,0.00,VWS V14.01,2013-03-14 13:00:00,
2013-03-14 08:01:00,52.7,18.8,25.66,South,180,0.0,0.0,26,0.00,,---,0.00,VWS V14.01,2013-03-14 13:01:00,
2013-03-14 08:02:00,53.1,19.1,25.66,South,180,1.1,1.1,26,0.00,,---,0.00,VWS V14.01,2013-03-14 13:02:00,
2013-03-14 08:03:00,53.2,19.3,25.66,SSE,158,3.8,4.0,26,0.00,,---,0.00,VWS V14.01,2013-03-14 13:03:00,
2013-03-14 08:04:00,53.2,19.3,25.66,SSE,158,3.1,3.8,26,0.00,,---,0.00,VWS V14.01,2013-03-14 13:04:00,
2013-03-14 08:05:00,53.2,19.3,25.66,SSE,158,3.1,4.0,26,0.00,,---,0.00,VWS V14.01,2013-03-14 13:05:00,
2013-03-14 08:07:00,54.5,19.4,25.66,SSE,158,2.2,3.4,25,0.00,,---,0.00,VWS V14.01,2013-03-14 13:07:00,
2013-03-14 08:08:00,55.2,20.0,25.66,SSE,158,2.0,2.7,25,0.00,,---,0.00,VWS V14.01,2013-03-14 13:08:00,
2013-03-14 08:09:00,55.2,20.0,25.66,SSE,158,2.0,2.0,25,0.00,,---,0.00,VWS V14.01,2013-03-14 13:09:00,
2013-03-14 08:10:00,55.4,20.2,25.66,SE,135,2.0,2.0,25,0.00,,---,0.00,VWS V14.01,2013-03-14 13:10:00,
2013-03-14 08:12:00,55.9,20.6,25.66,ESE,112,2.5,2.5,25,0.00,,---,0.00,VWS V14.01,2013-03-14 13:12:00,
2013-03-14 08:13:00,56.3,21.0,25.66,SE,135,3.1,3.1,25,0.00,,---,0.00,VWS V14.01,2013-03-14 13:13:00,
2013-03-14 08:14:00,56.3,21.0,25.66,SE,135,2.9,3.1,25,0.00,,---,0.00,VWS V14.01,2013-03-14 13:14:00,
2013-03-14 08:15:00,56.5,21.1,25.66,SSE,158,3.1,3.1,25,0.00,,---,0.00,VWS V14.01,2013-03-14 13:15:00,
2013-03-14 08:16:00,56.7,21.3,25.66,SSE,158,3.1,3.4,25,0.00,,---,0.00,VWS V14.01,2013-03-14 13:16:00,
2013-03-14 08:17:00,56.7,21.3,25.66,SSE,158,0.0,3.1,25,0.00,,---,0.00,VWS V14.01,2013-03-14 13:17:00,
2013-03-14 08:18:00,56.7,21.3,25.66,South,180,0.0,0.0,25,0.00,,---,0.00,VWS V14.01,2013-03-14 13:18:00,
2013-03-14 08:19:00,56.7,21.3,25.66,South,180,0.0,0.0,25,0.00,,---,0.00,VWS V14.01,2013-03-14 13:19:00,
2013-03-14 08:20:00,56.5,21.1,25.66,South,180,0.0,0.0,25,0.00,,---,0.00,VWS V14.01,2013-03-14 13:20:00,
2013-03-14 08:21:00,56.8,21.4,25.66,South,180,0.0,0.0,25,0.00,,---,0.00,VWS V14.01,2013-03-14 13:21:00,
2013-03-14 08:22:00,57.0,21.6,25.66,South,180,0.0,0.0,25,0.00,,---,0.00,VWS V14.01,2013-03-14 13:22:00,
2013-03-14 08:23:00,57.2,20.8,25.66,South,180,0.0,0.0,24,0.00,,---,0.00,VWS V14.01,2013-03-14 13:23:00,
2013-03-14 08:24:00,57.6,21.1,25.66,South,180,0.0,0.0,24,0.00,,---,0.00,VWS V14.01,2013-03-14 13:24:00,
2013-03-14 08:25:00,57.9,21.4,25.66,South,180,0.0,0.0,24,0.00,,---,0.00,VWS V14.01,2013-03-14 13:25:00,
2013-03-14 08:26:00,58.1,21.5,25.66,South,180,0.0,0.0,24,0.00,,---,0.00,VWS V14.01,2013-03-14 13:26:00,
2013-03-14 08:27:00,58.5,21.8,25.66,South,180,0.0,0.0,24,0.00,,---,0.00,VWS V14.01,2013-03-14 13:27:00,
2013-03-14 08:28:00,58.8,22.1,25.66,South,180,0.0,0.0,24,0.00,,---,0.00,VWS V14.01,2013-03-14 13:28:00,
2013-03-14 08:29:00,59.4,22.6,25.66,South,180,0.0,0.0,24,0.00,,---,0.00,VWS V14.01,2013-03-14 13:29:00,
2013-03-14 08:30:00,59.7,22.9,25.66,SSE,158,0.0,0.0,24,0.00,,---,0.00,VWS V14.01,2013-03-14 13:30:00,
2013-03-14 08:31:00,59.7,22.9,25.66,SSE,158,0.0,0.0,24,0.00,,---,0.00,VWS V14.01,2013-03-14 13:31:00,
2013-03-14 08:32:00,60.1,23.2,25.66,SW,225,0.0,0.0,24,0.00,,---,0.00,VWS V14.01,2013-03-14 13:32:00,
2013-03-14 08:33:00,60.1,23.2,25.66,WNW,292,2.9,2.9,24,0.00,,---,0.00,VWS V14.01,2013-03-14 13:33:00,
2013-03-14 08:34:00,60.4,23.5,25.66,WNW,292,2.2,2.9,24,0.00,,---,0.00,VWS V14.01,2013-03-14 13:34:00,
2013-03-14 08:35:00,60.6,23.6,25.66,WNW,292,0.9,2.2,24,0.00,,---,0.00,VWS V14.01,2013-03-14 13:35:00,
2013-03-14 08:36:00,61.2,24.1,25.66,WNW,292,0.0,0.9,24,0.00,,---,0.00,VWS V14.01,2013-03-14 13:36:00,
2013-03-14 08:37:00,61.3,24.3,25.66,WNW,292,0.0,0.0,24,0.00,,---,0.00,VWS V14.01,2013-03-14 13:37:00,
2013-03-14 08:38:00,61.5,24.4,25.66,WNW,292,2.5,2.5,24,0.00,,---,0.00,VWS V14.01,2013-03-14 13:38:00,
2013-03-14 08:39:00,61.7,24.6,25.66,WNW,292,2.5,2.5,24,0.00,,---,0.00,VWS V14.01,2013-03-14 13:39:00,
2013-03-14 08:40:00,61.7,24.6,25.66,WNW,292,1.6,2.5,24,0.00,,---,0.00,VWS V14.01,2013-03-14 13:40:00,
2013-03-14 08:41:00,61.7,24.6,25.66,WNW,292,2.0,2.2,24,0.00,,---,0.00,VWS V14.01,2013-03-14 13:41:00,
2013-03-14 08:42:00,61.9,24.7,25.66,WNW,292,2.5,2.7,24,0.00,,---,0.00,VWS V14.01,2013-03-14 13:42:00,
2013-03-14 08:43:00,62.1,24.9,25.66,WNW,292,2.2,2.7,24,0.00,,---,0.00,VWS V14.01,2013-03-14 13:43:00,
2013-03-14 08:44:00,62.2,21.9,25.66,NW,315,2.0,2.5,21,0.00,,---,0.00,VWS V14.01,2013-03-14 13:44:00,
2013-03-14 08:45:00,62.4,22.0,25.66,NW,315,2.2,2.2,21,0.00,,---,0.00,VWS V14.01,2013-03-14 13:45:00,
2013-03-14 08:46:00,62.6,22.1,25.66,NW,315,1.6,2.2,21,0.00,,---,0.00,VWS V14.01,2013-03-14 13:46:00,
2013-03-14 08:47:00,62.8,22.3,25.66,NW,315,1.1,1.1,21,0.00,,---,0.00,VWS V14.01,2013-03-14 13:47:00,
2013-03-14 08:48:00,63.0,22.5,25.66,NW,315,2.2,2.2,21,0.00,,---,0.00,VWS V14.01,2013-03-14 13:48:00,
2013-03-14 08:49:00,63.1,22.6,25.66,WNW,292,2.2,2.2,21,0.00,,---,0.00,VWS V14.01,2013-03-14 13:49:00,
2013-03-14 08:50:00,63.3,22.8,25.66,NW,315,2.7,2.7,21,0.00,,---,0.00,VWS V14.01,2013-03-14 13:50:00,
2013-03-14 08:51:00,63.3,22.8,25.66,NW,315,2.7,2.7,21,0.00,,---,0.00,VWS V14.01,2013-03-14 13:51:00,
2013-03-14 08:52:00,63.9,23.2,25.66,NW,315,2.0,2.7,21,0.00,,---,0.00,VWS V14.01,2013-03-14 13:52:00,
2013-03-14 08:53:00,64.0,23.3,25.66,NNW,338,2.0,2.0,21,0.00,,---,0.00,VWS V14.01,2013-03-14 13:53:00,
2013-03-14 08:54:00,64.0,23.3,25.66,NW,315,2.5,2.5,21,0.00,,---,0.00,VWS V14.01,2013-03-14 13:54:00,
2013-03-14 08:55:00,64.2,23.5,25.66,NW,315,2.5,2.5,21,0.00,,---,0.00,VWS V14.01,2013-03-14 13:55:00,
2013-03-14 08:56:00,64.2,23.5,25.66,NW,315,2.5,2.5,21,0.00,,---,0.00,VWS V14.01,2013-03-14 13:56:00,
2013-03-14 08:57:00,64.6,22.6,25.66,WNW,292,2.7,2.9,20,0.00,,---,0.00,VWS V14.01,2013-03-14 13:57:00,
2013-03-14 08:58:00,64.6,22.6,25.66,WNW,292,2.7,2.7,20,0.00,,---,0.00,VWS V14.01,2013-03-14 13:58:00,
2013-03-14 08:59:00,64.8,22.8,25.66,WNW,292,2.0,2.0,20,0.00,,---,0.00,VWS V14.01,2013-03-14 13:59:00,
2013-03-14 09:00:00,64.8,22.8,25.66,NNW,338,2.5,2.5,20,0.00,,---,0.00,VWS V14.01,2013-03-14 14:00:00,
2013-03-14 09:01:00,64.9,22.9,25.66,NW,315,1.3,2.5,20,0.00,,---,0.00,VWS V14.01,2013-03-14 14:01:00,
2013-03-14 09:02:00,64.9,22.9,25.66,NW,315,1.3,1.6,20,0.00,,---,0.00,VWS V14.01,2013-03-14 14:02:00,
2013-03-14 09:03:00,64.9,22.9,25.66,NNW,338,2.0,2.0,20,0.00,,---,0.00,VWS V14.01,2013-03-14 14:03:00,
2013-03-14 09:04:00,65.5,23.4,25.66,NW,315,1.3,2.5,20,0.00,,---,0.00,VWS V14.01,2013-03-14 14:04:00,
2013-03-14 09:05:00,65.5,23.4,25.66,WNW,292,2.5,2.5,20,0.00,,---,0.00,VWS V14.01,2013-03-14 14:05:00,
2013-03-14 09:06:00,65.8,23.7,25.66,NNW,338,1.3,2.7,20,0.00,,---,0.00,VWS V14.01,2013-03-14 14:06:00,
2013-03-14 09:07:00,66.0,23.8,25.66,NNW,338,1.6,2.0,20,0.00,,---,0.00,VWS V14.01,2013-03-14 14:07:00,
2013-03-14 09:08:00,66.0,23.8,25.66,NW,315,1.6,2.2,20,0.00,,---,0.00,VWS V14.01,2013-03-14 14:08:00,
2013-03-14 09:09:00,66.2,24.0,25.66,NW,315,0.9,1.6,20,0.00,,---,0.00,VWS V14.01,2013-03-14 14:09:00,
2013-03-14 09:10:00,66.4,24.1,25.66,NNW,338,1.6,2.7,20,0.00,,---,0.00,VWS V14.01,2013-03-14 14:10:00,
2013-03-14 09:11:00,66.4,24.1,25.66,NNW,338,2.0,2.0,20,0.00,,---,0.00,VWS V14.01,2013-03-14 14:11:00,
2013-03-14 09:12:00,66.7,20.6,25.66,NW,315,0.0,2.0,17,0.00,,---,0.00,VWS V14.01,2013-03-14 14:12:00,
2013-03-14 09:13:00,66.9,20.7,25.66,NNW,338,3.1,3.1,17,0.00,,---,0.00,VWS V14.01,2013-03-14 14:13:00,
2013-03-14 09:14:00,67.1,20.9,25.66,North,0,2.5,3.1,17,0.00,,---,0.00,VWS V14.01,2013-03-14 14:14:00,
2013-03-14 09:15:00,67.3,21.0,25.66,NNW,338,2.0,2.0,17,0.00,,---,0.00,VWS V14.01,2013-03-14 14:15:00,
2013-03-14 09:16:00,67.5,21.2,25.66,NNW,338,2.2,2.2,17,0.00,,---,0.00,VWS V14.01,2013-03-14 14:16:00,
2013-03-14 09:17:00,67.5,21.2,25.66,North,0,0.0,1.1,17,0.00,,---,0.00,VWS V14.01,2013-03-14 14:17:00,
2013-03-14 09:18:00,67.5,21.2,25.66,NNW,338,1.1,1.1,17,0.00,,---,0.00,VWS V14.01,2013-03-14 14:18:00,
2013-03-14 09:19:00,68.0,21.6,25.66,NE,45,1.3,1.3,17,0.00,,---,0.00,VWS V14.01,2013-03-14 14:19:00,
2013-03-14 09:20:00,68.2,21.7,25.66,NW,315,2.2,2.2,17,0.00,,---,0.00,VWS V14.01,2013-03-14 14:20:00,
2013-03-14 09:21:00,68.7,22.2,25.66,WNW,292,2.5,2.5,17,0.00,,---,0.00,VWS V14.01,2013-03-14 14:21:00,
2013-03-14 09:22:00,68.9,22.3,25.66,NNE,22,0.0,0.0,17,0.00,,---,0.00,VWS V14.01,2013-03-14 14:22:00,
2013-03-14 09:23:00,68.9,22.3,25.66,NNE,22,1.6,1.6,17,0.00,,---,0.00,VWS V14.01,2013-03-14 14:23:00,
2013-03-14 09:24:00,69.1,22.5,25.66,ENE,68,1.3,1.6,17,0.00,,---,0.00,VWS V14.01,2013-03-14 14:24:00,
2013-03-14 09:25:00,69.3,22.6,25.66,WNW,292,0.0,1.3,17,0.00,,---,0.00,VWS V14.01,2013-03-14 14:25:00,
2013-03-14 09:26:00,69.4,22.8,25.66,WNW,292,2.0,2.2,17,0.00,,---,0.00,VWS V14.01,2013-03-14 14:26:00,
2013-03-14 09:27:00,69.4,22.8,25.66,WNW,292,2.9,3.1,17,0.00,,---,0.00,VWS V14.01,2013-03-14 14:27:00,
2013-03-14 09:28:00,69.4,22.8,25.66,WSW,248,2.0,2.9,17,0.00,,---,0.00,VWS V14.01,2013-03-14 14:28:00,
2013-03-14 09:29:00,69.8,23.1,25.66,WSW,248,1.1,2.0,17,0.00,,---,0.00,VWS V14.01,2013-03-14 14:29:00,
2013-03-14 09:30:00,70.0,23.2,25.66,West,270,2.5,2.5,17,0.00,,---,0.00,VWS V14.01,2013-03-14 14:30:00,
2013-03-14 09:31:00,70.0,23.2,25.66,SW,225,2.7,2.7,17,0.00,,---,0.00,VWS V14.01,2013-03-14 14:31:00,
2013-03-14 09:32:00,70.0,23.2,25.66,SW,225,0.0,2.7,17,0.00,,---,0.00,VWS V14.01,2013-03-14 14:32:00,
2013-03-14 09:33:00,70.3,23.5,25.66,SW,225,0.0,1.1,17,0.00,,---,0.00,VWS V14.01,2013-03-14 14:33:00,
2013-03-14 09:34:00,70.5,23.6,25.66,SW,225,0.0,0.0,17,0.00,,---,0.00,VWS V14.01,2013-03-14 14:34:00,
2013-03-14 09:35:00,70.5,23.6,25.66,SW,225,2.5,2.5,17,0.00,,---,0.00,VWS V14.01,2013-03-14 14:35:00,
2013-03-14 09:36:00,70.3,23.5,25.66,WSW,248,2.7,3.1,17,0.00,,---,0.00,VWS V14.01,2013-03-14 14:36:00,
2013-03-14 09:37:00,69.8,23.1,25.66,West,270,3.6,3.6,17,0.00,,---,0.00,VWS V14.01,2013-03-14 14:37:00,
2013-03-14 09:38:00,70.3,23.5,25.66,SW,225,5.8,5.8,17,0.00,,---,0.00,VWS V14.01,2013-03-14 14:38:00,
2013-03-14 09:39:00,69.6,22.9,25.66,SW,225,2.5,5.8,17,0.00,,---,0.00,VWS V14.01,2013-03-14 14:39:00,
2013-03-14 09:40:00,69.6,22.9,25.66,West,270,3.4,4.0,17,0.00,,---,0.00,VWS V14.01,2013-03-14 14:40:00,
2013-03-14 09:41:00,70.0,23.2,25.66,SSW,202,1.3,3.4,17,0.00,,---,0.00,VWS V14.01,2013-03-14 14:41:00,
2013-03-14 09:42:00,70.0,23.2,25.66,South,180,3.8,3.8,17,0.00,,---,0.00,VWS V14.01,2013-03-14 14:42:00,
2013-03-14 09:43:00,69.8,23.1,25.66,SSE,158,2.9,3.8,17,0.00,,---,0.00,VWS V14.01,2013-03-14 14:43:00,
2013-03-14 09:44:00,69.8,23.1,25.66,South,180,7.8,7.8,17,0.00,,---,0.00,VWS V14.01,2013-03-14 14:44:00,
2013-03-14 09:45:00,69.8,23.1,25.66,South,180,2.9,7.8,17,0.00,,---,0.00,VWS V14.01,2013-03-14 14:45:00,
2013-03-14 09:46:00,70.0,23.2,25.66,South,180,2.7,2.9,17,0.00,,---,0.00,VWS V14.01,2013-03-14 14:46:00,
2013-03-14 09:47:00,70.2,23.4,25.66,SSW,202,3.1,5.8,17,0.00,,---,0.00,VWS V14.01,2013-03-14 14:47:00,
2013-03-14 09:48:00,70.0,23.2,25.66,South,180,5.4,5.8,17,0.00,,---,0.00,VWS V14.01,2013-03-14 14:48:00,
2013-03-14 09:49:00,70.2,23.4,25.66,West,270,5.8,7.2,17,0.00,,---,0.00,VWS V14.01,2013-03-14 14:49:00,
2013-03-14 09:50:00,70.3,23.5,25.66,SE,135,6.3,6.3,17,0.00,,---,0.00,VWS V14.01,2013-03-14 14:50:00,
2013-03-14 09:51:00,70.3,23.5,25.66,South,180,6.3,6.3,17,0.00,,---,0.00,VWS V14.01,2013-03-14 14:51:00,
2013-03-14 09:52:00,70.7,23.8,25.66,SE,135,3.8,6.3,17,0.00,,---,0.00,VWS V14.01,2013-03-14 14:52:00,
2013-03-14 09:53:00,70.7,23.8,25.66,ESE,112,7.6,7.6,17,0.00,,---,0.00,VWS V14.01,2013-03-14 14:53:00,
2013-03-14 09:54:00,70.9,23.9,25.66,SE,135,5.4,7.6,17,0.00,,---,0.00,VWS V14.01,2013-03-14 14:54:00,
2013-03-14 09:55:00,70.9,23.9,25.66,ESE,112,8.1,8.1,17,0.00,,---,0.00,VWS V14.01,2013-03-14 14:55:00,
2013-03-14 09:56:00,70.9,23.9,25.66,South,180,6.0,8.1,17,0.00,,---,0.00,VWS V14.01,2013-03-14 14:56:00,
2013-03-14 09:57:00,70.5,23.6,25.66,SSW,202,2.9,6.0,17,0.00,,---,0.00,VWS V14.01,2013-03-14 14:57:00,
2013-03-14 09:58:00,70.5,23.6,25.66,South,180,3.6,3.6,17,0.00,,---,0.00,VWS V14.01,2013-03-14 14:58:00,
2013-03-14 09:59:00,70.5,23.6,25.66,SSW,202,5.4,5.4,17,0.00,,---,0.00,VWS V14.01,2013-03-14 14:59:00,
2013-03-14 10:00:00,70.2,23.4,25.66,SSW,202,2.5,6.0,17,0.00,,---,0.00,VWS V14.01,2013-03-14 15:00:00,
2013-03-14 10:01:00,70.3,23.5,25.66,SSW,202,3.1,3.8,17,0.00,,---,0.00,VWS V14.01,2013-03-14 15:01:00,
2013-03-14 10:02:00,70.5,23.6,25.66,SSW,202,5.6,5.6,17,0.00,,---,0.00,VWS V14.01,2013-03-14 15:02:00,
2013-03-14 10:03:00,70.7,19.2,25.66,SW,225,7.4,7.6,14,0.00,,---,0.00,VWS V14.01,2013-03-14 15:03:00,
2013-03-14 10:04:00,70.7,19.2,25.66,SW,225,5.6,7.4,14,0.00,,---,0.00,VWS V14.01,2013-03-14 15:04:00,
2013-03-14 10:05:00,70.9,23.9,25.66,SW,225,6.0,6.0,17,0.00,,---,0.00,VWS V14.01,2013-03-14 15:05:00,
2013-03-14 10:06:00,70.9,23.9,25.66,SSW,202,6.0,6.0,17,0.00,,---,0.00,VWS V14.01,2013-03-14 15:06:00,
2013-03-14 10:07:00,70.3,18.9,25.66,SSW,202,3.8,7.8,14,0.00,,---,0.00,VWS V14.01,2013-03-14 15:07:00,
2013-03-14 10:08:00,70.3,18.9,25.66,SSW,202,3.8,3.8,14,0.00,,---,0.00,VWS V14.01,2013-03-14 15:08:00,
2013-03-14 10:09:00,70.7,19.2,25.66,SSE,158,5.4,6.0,14,0.00,,---,0.00,VWS V14.01,2013-03-14 15:09:00,
2013-03-14 10:10:00,70.7,19.2,25.66,SSW,202,5.8,6.3,14,0.00,,---,0.00,VWS V14.01,2013-03-14 15:10:00,
2013-03-14 10:11:00,70.7,19.2,25.66,SE,135,4.3,5.8,14,0.00,,---,0.00,VWS V14.01,2013-03-14 15:11:00,
2013-03-14 10:12:00,70.7,19.2,25.66,SW,225,3.1,4.3,14,0.00,,---,0.00,VWS V14.01,2013-03-14 15:12:00,
2013-03-14 10:13:00,71.4,24.4,25.66,WSW,248,6.3,6.3,17,0.00,,---,0.00,VWS V14.01,2013-03-14 15:13:00,
2013-03-14 10:14:00,71.6,19.9,25.66,SW,225,5.8,6.5,14,0.00,,---,0.00,VWS V14.01,2013-03-14 15:14:00,
2013-03-14 10:15:00,71.8,20.1,25.66,SW,225,5.4,6.3,14,0.00,,---,0.00,VWS V14.01,2013-03-14 15:15:00,
2013-03-14 10:16:00,72.0,20.2,25.66,South,180,5.6,5.8,14,0.00,,---,0.00,VWS V14.01,2013-03-14 15:16:00,
2013-03-14 10:17:00,71.8,20.1,25.66,SW,225,4.7,5.6,14,0.00,,---,0.00,VWS V14.01,2013-03-14 15:17:00,
2013-03-14 10:18:00,72.1,20.4,25.66,SSE,158,4.9,4.9,14,0.00,,---,0.00,VWS V14.01,2013-03-14 15:18:00,
2013-03-14 10:19:00,72.1,20.4,25.66,SSE,158,3.4,5.8,14,0.00,,---,0.00,VWS V14.01,2013-03-14 15:19:00,
2013-03-14 10:20:00,72.3,20.5,25.66,SSW,202,6.5,6.7,14,0.00,,---,0.00,VWS V14.01,2013-03-14 15:20:00,
2013-03-14 10:21:00,72.3,20.5,25.66,South,180,7.6,8.1,14,0.00,,---,0.00,VWS V14.01,2013-03-14 15:21:00,
2013-03-14 10:22:00,72.1,20.4,25.66,South,180,4.9,7.6,14,0.00,,---,0.00,VWS V14.01,2013-03-14 15:22:00,
2013-03-14 10:23:00,72.3,20.5,25.66,SSE,158,5.8,5.8,14,0.00,,---,0.00,VWS V14.01,2013-03-14 15:23:00,
2013-03-14 10:24:00,72.5,20.6,25.66,South,180,5.6,6.0,14,0.00,,---,0.00,VWS V14.01,2013-03-14 15:24:00,
2013-03-14 10:25:00,72.9,20.9,25.66,SW,225,4.0,5.6,14,0.00,,---,0.00,VWS V14.01,2013-03-14 15:25:00,
2013-03-14 10:26:00,72.5,20.6,25.66,South,180,3.6,3.6,14,0.00,,---,0.00,VWS V14.01,2013-03-14 15:26:00,
2013-03-14 10:27:00,72.5,20.6,25.66,SW,225,4.9,6.3,14,0.00,,---,0.00,VWS V14.01,2013-03-14 15:27:00,
2013-03-14 10:28:00,72.3,20.5,25.66,SW,225,4.0,4.9,14,0.00,,---,0.00,VWS V14.01,2013-03-14 15:28:00,
2013-03-14 10:29:00,72.5,20.6,25.66,SSW,202,4.9,6.5,14,0.00,,---,0.00,VWS V14.01,2013-03-14 15:29:00,
2013-03-14 10:30:00,72.7,20.8,25.66,SSW,202,2.7,4.9,14,0.00,,---,0.00,VWS V14.01,2013-03-14 15:30:00,
2013-03-14 10:31:00,73.2,21.2,25.66,SSW,202,4.0,4.0,14,0.00,,---,0.00,VWS V14.01,2013-03-14 15:31:00,
2013-03-14 10:32:00,73.6,19.8,25.66,SSW,202,3.1,5.4,13,0.00,,---,0.00,VWS V14.01,2013-03-14 15:32:00,
2013-03-14 10:33:00,73.8,19.9,25.66,SW,225,7.6,7.6,13,0.00,,---,0.00,VWS V14.01,2013-03-14 15:33:00,
2013-03-14 10:34:00,73.2,21.2,25.66,SW,225,4.3,7.6,14,0.00,,---,0.00,VWS V14.01,2013-03-14 15:34:00,
2013-03-14 10:35:00,73.2,21.2,25.66,SSE,158,3.8,4.3,14,0.00,,---,0.00,VWS V14.01,2013-03-14 15:35:00,
2013-03-14 10:36:00,73.2,21.2,25.66,South,180,3.1,6.5,14,0.00,,---,0.00,VWS V14.01,2013-03-14 15:36:00,
2013-03-14 10:37:00,73.9,20.0,25.66,South,180,3.1,3.1,13,0.00,,---,0.00,VWS V14.01,2013-03-14 15:37:00,
2013-03-14 10:38:00,74.1,20.2,25.66,SSE,158,4.0,5.8,13,0.00,,---,0.00,VWS V14.01,2013-03-14 15:38:00,
2013-03-14 10:39:00,74.5,20.5,25.66,SSE,158,3.1,3.1,13,0.00,,---,0.00,VWS V14.01,2013-03-14 15:39:00,
2013-03-14 10:40:00,74.5,20.5,25.66,SSW,202,5.6,5.6,13,0.00,,---,0.00,VWS V14.01,2013-03-14 15:40:00,
2013-03-14 10:41:00,74.5,20.5,25.66,SSW,202,3.4,5.6,13,0.00,,---,0.00,VWS V14.01,2013-03-14 15:41:00,
2013-03-14 10:42:00,74.5,20.5,25.66,SSW,202,3.4,3.4,13,0.00,,---,0.00,VWS V14.01,2013-03-14 15:42:00,
2013-03-14 10:43:00,74.5,20.5,25.66,SW,225,3.4,3.4,13,0.00,,---,0.00,VWS V14.01,2013-03-14 15:43:00,
2013-03-14 10:44:00,74.8,20.7,25.66,WSW,248,6.3,6.5,13,0.00,,---,0.00,VWS V14.01,2013-03-14 15:44:00,
2013-03-14 10:46:00,74.7,20.6,25.66,ESE,112,6.5,6.5,13,0.00,,---,0.00,VWS V14.01,2013-03-14 15:46:00,
2013-03-14 10:47:00,74.7,20.6,25.66,South,180,3.4,6.5,13,0.00,,---,0.00,VWS V14.01,2013-03-14 15:47:00,
2013-03-14 10:48:00,75.4,21.2,25.66,South,180,3.4,5.4,13,0.00,,---,0.00,VWS V14.01,2013-03-14 15:48:00,
2013-03-14 10:49:00,75.6,21.3,25.66,SSW,202,6.5,6.5,13,0.00,,---,0.00,VWS V14.01,2013-03-14 15:49:00,
2013-03-14 10:50:00,74.8,20.7,25.66,SSE,158,4.0,4.0,13,0.00,,---,0.00,VWS V14.01,2013-03-14 15:50:00,
2013-03-14 10:51:00,75.4,21.2,25.66,South,180,6.0,8.7,13,0.00,,---,0.00,VWS V14.01,2013-03-14 15:51:00,
2013-03-14 10:52:00,75.0,20.9,25.66,SSW,202,4.7,4.7,13,0.00,,---,0.00,VWS V14.01,2013-03-14 15:52:00,
2013-03-14 10:53:00,75.4,21.2,25.66,South,180,3.6,4.7,13,0.00,,---,0.00,VWS V14.01,2013-03-14 15:53:00,
2013-03-14 10:54:00,75.4,21.2,25.66,SE,135,4.3,5.6,13,0.00,,---,0.00,VWS V14.01,2013-03-14 15:54:00,
2013-03-14 10:55:00,75.9,21.6,25.66,SSW,202,1.6,4.3,13,0.00,,---,0.00,VWS V14.01,2013-03-14 15:55:00,
2013-03-14 10:56:00,75.9,21.6,25.66,South,180,2.9,3.1,13,0.00,,---,0.00,VWS V14.01,2013-03-14 15:56:00,
2013-03-14 10:57:00,76.3,21.9,25.66,SSW,202,0.9,2.9,13,0.00,,---,0.00,VWS V14.01,2013-03-14 15:57:00,
2013-03-14 10:59:00,76.8,22.3,25.66,SW,225,2.5,2.5,13,0.00,,---,0.00,VWS V14.01,2013-03-14 15:59:00,
2013-03-14 11:00:00,78.3,23.4,25.66,SW,225,2.7,3.4,13,0.00,,---,0.00,VWS V14.01,2013-03-14 16:00:00,
2013-03-14 11:01:00,77.4,22.7,25.66,SSW,202,6.0,7.4,13,0.00,,---,0.00,VWS V14.01,2013-03-14 16:01:00,
2013-03-14 11:02:00,77.4,22.7,25.66,SW,225,8.5,8.5,13,0.00,,---,0.00,VWS V14.01,2013-03-14 16:02:00,
2013-03-14 11:03:00,75.7,21.5,25.66,West,270,7.6,8.5,13,0.00,,---,0.00,VWS V14.01,2013-03-14 16:03:00,
2013-03-14 11:04:00,75.7,21.5,25.66,SSW,202,4.5,7.6,13,0.00,,---,0.00,VWS V14.01,2013-03-14 16:04:00,
2013-03-14 11:05:00,75.7,21.5,25.66,WSW,248,5.6,6.3,13,0.00,,---,0.00,VWS V14.01,2013-03-14 16:05:00,
2013-03-14 11:06:00,76.3,21.9,25.66,West,270,9.2,9.2,13,0.00,,---,0.00,VWS V14.01,2013-03-14 16:06:00,
2013-03-14 11:07:00,75.9,21.6,25.66,West,270,9.8,9.8,13,0.00,,---,0.00,VWS V14.01,2013-03-14 16:07:00,
2013-03-14 11:08:00,75.9,21.6,25.66,SW,225,9.6,9.8,13,0.00,,---,0.00,VWS V14.01,2013-03-14 16:08:00,
2013-03-14 11:09:00,75.6,21.3,25.66,WSW,248,7.8,9.6,13,0.00,,---,0.00,VWS V14.01,2013-03-14 16:09:00,
2013-03-14 11:10:00,75.2,21.0,25.66,West,270,8.1,9.8,13,0.00,,---,0.00,VWS V14.01,2013-03-14 16:10:00,
2013-03-14 11:11:00,74.7,20.6,25.66,West,270,10.1,10.1,13,0.00,,---,0.00,VWS V14.01,2013-03-14 16:11:00,
2013-03-14 11:12:00,74.7,20.6,25.66,WSW,248,7.6,10.1,13,0.00,,---,0.00,VWS V14.01,2013-03-14 16:12:00,
2013-03-14 11:14:00,74.7,20.6,25.66,West,270,8.1,8.7,13,0.00,,---,0.00,VWS V14.01,2013-03-14 16:14:00,
2013-03-14 11:15:00,74.8,20.7,25.66,West,270,4.7,8.7,13,0.00,,---,0.00,VWS V14.01,2013-03-14 16:15:00,
2013-03-14 11:16:00,75.2,21.0,25.66,West,270,10.3,10.3,13,0.00,,---,0.00,VWS V14.01,2013-03-14 16:16:00,
2013-03-14 11:17:00,76.1,21.7,25.66,WNW,292,6.3,10.3,13,0.00,,---,0.00,VWS V14.01,2013-03-14 16:17:00,
2013-03-14 11:18:00,76.1,21.7,25.66,West,270,6.3,6.3,13,0.00,,---,0.00,VWS V14.01,2013-03-14 16:18:00,
2013-03-14 11:19:00,76.1,21.7,25.66,SW,225,10.1,10.3,13,0.00,,---,0.00,VWS V14.01,2013-03-14 16:19:00,
2013-03-14 11:20:00,75.4,21.2,25.66,WSW,248,10.3,10.3,13,0.00,,---,0.00,VWS V14.01,2013-03-14 16:20:00,
2013-03-14 11:21:00,75.4,21.2,25.66,West,270,7.6,10.3,13,0.00,,---,0.00,VWS V14.01,2013-03-14 16:21:00,
2013-03-14 11:22:00,74.8,20.7,25.66,West,270,8.7,9.6,13,0.00,,---,0.00,VWS V14.01,2013-03-14 16:22:00,
2013-03-14 11:23:00,75.9,21.6,25.66,WNW,292,3.8,8.7,13,0.00,,---,0.00,VWS V14.01,2013-03-14 16:23:00,
2013-03-14 11:24:00,74.5,20.5,25.66,West,270,10.1,10.1,13,0.00,,---,0.00,VWS V14.01,2013-03-14 16:24:00,
2013-03-14 11:25:00,75.2,21.0,25.66,WSW,248,4.7,10.1,13,0.00,,---,0.00,VWS V14.01,2013-03-14 16:25:00,
2013-03-14 11:26:00,75.2,21.0,25.66,West,270,1.3,4.7,13,0.00,,---,0.00,VWS V14.01,2013-03-14 16:26:00,
2013-03-14 11:27:00,77.0,22.4,25.66,West,270,6.9,6.9,13,0.00,,---,0.00,VWS V14.01,2013-03-14 16:27:00,
2013-03-14 11:28:00,76.6,22.1,25.66,West,270,5.6,5.6,13,0.00,,---,0.00,VWS V14.01,2013-03-14 16:28:00,
2013-03-14 11:29:00,76.5,22.0,25.66,WSW,248,5.8,8.1,13,0.00,,---,0.00,VWS V14.01,2013-03-14 16:29:00,
2013-03-14 11:30:00,77.4,22.7,25.66,SSW,202,3.8,5.8,13,0.00,,---,0.00,VWS V14.01,2013-03-14 16:30:00,
2013-03-14 11:31:00,77.2,22.6,25.66,SW,225,3.8,3.8,13,0.00,,---,0.00,VWS V14.01,2013-03-14 16:31:00,
2013-03-14 11:32:00,76.5,22.0,25.66,SSW,202,6.3,6.3,13,0.00,,---,0.00,VWS V14.01,2013-03-14 16:32:00,
2013-03-14 11:33:00,76.5,22.0,25.66,SW,225,9.6,9.6,13,0.00,,---,0.00,VWS V14.01,2013-03-14 16:33:00,
2013-03-14 11:34:00,76.1,21.7,25.66,WSW,248,7.4,9.6,13,0.00,,---,0.00,VWS V14.01,2013-03-14 16:34:00,
2013-03-14 11:35:00,76.3,21.9,25.66,WSW,248,6.5,8.5,13,0.00,,---,0.00,VWS V14.01,2013-03-14 16:35:00,
2013-03-14 11:36:00,76.5,22.0,25.66,WSW,248,4.3,6.5,13,0.00,,---,0.00,VWS V14.01,2013-03-14 16:36:00,
2013-03-14 11:37:00,76.5,22.0,25.66,SW,225,4.0,4.3,13,0.00,,---,0.00,VWS V14.01,2013-03-14 16:37:00,
2013-03-14 11:38:00,77.2,22.6,25.66,SSE,158,2.0,5.4,13,0.00,,---,0.00,VWS V14.01,2013-03-14 16:38:00,
2013-03-14 11:39:00,78.3,23.4,25.66,SW,225,4.9,4.9,13,0.00,,---,0.00,VWS V14.01,2013-03-14 16:39:00,
2013-03-14 11:41:00,78.1,23.3,25.66,WSW,248,2.9,6.7,13,0.00,,---,0.00,VWS V14.01,2013-03-14 16:41:00,
2013-03-14 11:42:00,77.7,23.0,25.66,ESE,112,2.7,6.7,13,0.00,,---,0.00,VWS V14.01,2013-03-14 16:42:00,
2013-03-14 11:43:00,78.6,23.7,25.66,ESE,112,2.7,3.6,13,0.00,,---,0.00,VWS V14.01,2013-03-14 16:43:00,
2013-03-14 11:45:00,79.0,22.1,25.66,ESE,112,3.6,5.6,12,0.00,,---,0.00,VWS V14.01,2013-03-14 16:45:00,
2013-03-14 11:46:00,80.1,22.9,25.66,SE,135,2.0,3.8,12,0.00,,---,0.00,VWS V14.01,2013-03-14 16:46:00,
2013-03-14 11:47:00,80.6,23.4,25.66,SSE,158,2.5,2.5,12,0.00,,---,0.00,VWS V14.01,2013-03-14 16:47:00,
2013-03-14 11:48:00,81.0,23.6,25.66,East,90,3.1,3.6,12,0.00,,---,0.00,VWS V14.01,2013-03-14 16:48:00,
2013-03-14 11:49:00,81.0,23.6,25.66,WSW,248,2.0,3.1,12,0.00,,---,0.00,VWS V14.01,2013-03-14 16:49:00,
2013-03-14 11:50:00,81.0,23.6,25.66,SW,225,7.6,7.6,12,0.00,,---,0.00,VWS V14.01,2013-03-14 16:50:00,
2013-03-14 11:51:00,78.1,23.3,25.66,WSW,248,8.7,8.7,13,0.00,,---,0.00,VWS V14.01,2013-03-14 16:51:00,
2013-03-14 11:52:00,77.7,23.0,25.66,West,270,9.4,9.4,13,0.00,,---,0.00,VWS V14.01,2013-03-14 16:52:00,
2013-03-14 11:53:00,77.9,23.1,25.66,WSW,248,6.5,9.4,13,0.00,,---,0.00,VWS V14.01,2013-03-14 16:53:00,
2013-03-14 11:54:00,78.1,23.3,25.66,SW,225,5.4,6.5,13,0.00,,---,0.00,VWS V14.01,2013-03-14 16:54:00,
2013-03-14 11:55:00,78.1,23.3,25.66,SW,225,2.7,5.4,13,0.00,,---,0.00,VWS V14.01,2013-03-14 16:55:00,
2013-03-14 11:56:00,78.1,23.3,25.66,WSW,248,4.3,4.3,13,0.00,,---,0.00,VWS V14.01,2013-03-14 16:56:00,
2013-03-14 11:57:00,78.8,22.0,25.66,NW,315,3.1,4.3,12,0.00,,---,0.00,VWS V14.01,2013-03-14 16:57:00,
2013-03-14 11:58:00,79.9,22.8,25.66,West,270,3.1,3.4,12,0.00,,---,0.00,VWS V14.01,2013-03-14 16:58:00,
2013-03-14 11:59:00,80.4,23.2,25.66,NW,315,4.0,5.8,12,0.00,,---,0.00,VWS V14.01,2013-03-14 16:59:00,
2013-03-14 12:00:00,81.1,23.8,25.66,West,270,8.5,8.5,12,0.00,,---,0.00,VWS V14.01,2013-03-14 17:00:00,
2013-03-14 12:01:00,79.5,22.5,25.66,SW,225,3.8,8.5,12,0.00,,---,0.00,VWS V14.01,2013-03-14 17:01:00,
2013-03-14 12:02:00,79.0,22.1,25.66,South,180,2.9,5.6,12,0.00,,---,0.00,VWS V14.01,2013-03-14 17:02:00,
2013-03-14 12:03:00,79.5,22.5,25.66,SW,225,1.6,3.4,12,0.00,,---,0.00,VWS V14.01,2013-03-14 17:03:00,
2013-03-14 12:04:00,79.9,22.8,25.66,SW,225,8.5,8.5,12,0.00,,---,0.00,VWS V14.01,2013-03-14 17:04:00,
2013-03-14 12:05:00,79.2,22.2,25.66,SW,225,6.3,10.3,12,0.00,,---,0.00,VWS V14.01,2013-03-14 17:05:00,
2013-03-14 12:06:00,78.4,23.6,25.66,SW,225,6.3,9.2,13,0.00,,---,0.00,VWS V14.01,2013-03-14 17:06:00,
2013-03-14 12:07:00,78.4,23.6,25.66,WSW,248,8.5,8.7,13,0.00,,---,0.00,VWS V14.01,2013-03-14 17:07:00,
2013-03-14 12:08:00,77.5,22.9,25.66,WSW,248,11.2,11.2,13,0.00,,---,0.00,VWS V14.01,2013-03-14 17:08:00,
2013-03-14 12:09:00,77.5,22.9,25.66,West,270,8.7,11.2,13,0.00,,---,0.00,VWS V14.01,2013-03-14 17:09:00,
2013-03-14 12:10:00,77.5,22.9,25.66,WSW,248,6.3,8.7,13,0.00,,---,0.00,VWS V14.01,2013-03-14 17:10:00,
2013-03-14 12:11:00,77.5,22.9,25.66,WSW,248,5.4,7.4,13,0.00,,---,0.00,VWS V14.01,2013-03-14 17:11:00,
2013-03-14 12:12:00,78.1,23.3,25.66,SW,225,7.6,7.6,13,0.00,,---,0.00,VWS V14.01,2013-03-14 17:12:00,
2013-03-14 12:13:00,78.1,23.3,25.66,SW,225,8.7,9.8,13,0.00,,---,0.00,VWS V14.01,2013-03-14 17:13:00,
2013-03-14 12:14:00,78.1,23.3,25.66,SSW,202,10.1,10.1,13,0.00,,---,0.00,VWS V14.01,2013-03-14 17:14:00,
2013-03-14 12:15:00,77.4,22.7,25.66,SW,225,7.4,10.1,13,0.00,,---,0.00,VWS V14.01,2013-03-14 17:15:00,
2013-03-14 12:16:00,76.6,22.1,25.66,SW,225,5.8,7.4,13,0.00,,---,0.00,VWS V14.01,2013-03-14 17:16:00,
2013-03-14 12:17:00,76.6,22.1,25.66,SW,225,5.6,6.0,13,0.00,,---,0.00,VWS V14.01,2013-03-14 17:17:00,
2013-03-14 12:18:00,77.7,23.0,25.66,West,270,6.5,6.5,13,0.00,,---,0.00,VWS V14.01,2013-03-14 17:18:00,
2013-03-14 12:19:00,77.7,23.0,25.66,West,270,7.2,7.8,13,0.00,,---,0.00,VWS V14.01,2013-03-14 17:19:00,
2013-03-14 12:20:00,78.4,23.6,25.66,NW,315,2.7,7.2,13,0.00,,---,0.00,VWS V14.01,2013-03-14 17:20:00,
2013-03-14 12:21:00,79.9,22.8,25.66,West,270,1.6,2.7,12,0.00,,---,0.00,VWS V14.01,2013-03-14 17:21:00,
2013-03-14 12:22:00,81.0,23.6,25.66,South,180,2.7,2.7,12,0.00,,---,0.00,VWS V14.01,2013-03-14 17:22:00,
2013-03-14 12:23:00,81.1,23.8,25.66,SSW,202,2.7,2.9,12,0.00,,---,0.00,VWS V14.01,2013-03-14 17:23:00,
2013-03-14 12:24:00,80.6,23.4,25.66,SSW,202,0.9,3.4,12,0.00,,---,0.00,VWS V14.01,2013-03-14 17:24:00,
2013-03-14 12:25:00,80.6,23.4,25.66,SSW,202,3.4,3.4,12,0.00,,---,0.00,VWS V14.01,2013-03-14 17:25:00,
2013-03-14 12:26:00,80.6,23.4,25.66,SSW,202,3.4,3.4,12,0.00,,---,0.00,VWS V14.01,2013-03-14 17:26:00,
2013-03-14 12:29:00,81.1,23.8,25.66,WSW,248,2.7,3.4,12,0.00,,---,0.00,VWS V14.01,2013-03-14 17:29:00,
2013-03-14 12:30:00,79.5,22.5,25.66,WSW,248,6.5,6.5,12,0.00,,---,0.00,VWS V14.01,2013-03-14 17:30:00,
2013-03-14 12:31:00,79.9,22.8,25.66,SW,225,6.0,6.5,12,0.00,,---,0.00,VWS V14.01,2013-03-14 17:31:00,
2013-03-14 12:32:00,79.9,22.8,25.66,WSW,248,2.0,6.0,12,0.00,,---,0.00,VWS V14.01,2013-03-14 17:32:00,
2013-03-14 12:33:00,80.4,23.2,25.66,SW,225,1.6,2.0,12,0.00,,---,0.00,VWS V14.01,2013-03-14 17:33:00,
2013-03-14 12:34:00,79.9,22.8,25.66,SW,225,4.3,4.3,12,0.00,,---,0.00,VWS V14.01,2013-03-14 17:34:00,
2013-03-14 12:35:00,79.9,22.8,25.66,SSW,202,5.4,5.4,12,0.00,,---,0.00,VWS V14.01,2013-03-14 17:35:00,
2013-03-14 12:36:00,79.2,22.2,25.66,SW,225,8.5,8.5,12,0.00,,---,0.00,VWS V14.01,2013-03-14 17:36:00,
2013-03-14 12:37:00,79.5,22.5,25.66,West,270,6.0,8.5,12,0.00,,---,0.00,VWS V14.01,2013-03-14 17:37:00,
2013-03-14 12:38:00,79.5,22.5,25.66,West,270,5.8,6.5,12,0.00,,---,0.00,VWS V14.01,2013-03-14 17:38:00,
2013-03-14 12:39:00,80.2,23.1,25.66,WNW,292,3.6,5.8,12,0.00,,---,0.00,VWS V14.01,2013-03-14 17:39:00,
2013-03-14 12:40:00,81.1,23.8,25.66,WNW,292,3.8,4.3,12,0.00,,---,0.00,VWS V14.01,2013-03-14 17:40:00,
2013-03-14 12:41:00,81.1,23.8,25.66,NW,315,2.9,3.8,12,0.00,,---,0.00,VWS V14.01,2013-03-14 17:41:00,
2013-03-14 12:42:00,81.1,23.8,25.66,West,270,1.3,2.9,12,0.00,,---,0.00,VWS V14.01,2013-03-14 17:42:00,
2013-03-14 12:43:00,84.4,24.2,25.66,SW,225,0.0,1.3,11,0.00,,---,0.00,VWS V14.01,2013-03-14 17:43:00,
2013-03-14 12:44:00,84.6,24.3,25.66,SSW,202,2.5,2.7,11,0.00,,---,0.00,VWS V14.01,2013-03-14 17:44:00,
2013-03-14 12:45:00,84.9,24.6,25.66,West,270,3.6,3.6,11,0.00,,---,0.00,VWS V14.01,2013-03-14 17:45:00,
2013-03-14 12:46:00,84.6,24.3,25.66,West,270,3.1,3.6,11,0.00,,---,0.00,VWS V14.01,2013-03-14 17:46:00,
2013-03-14 12:47:00,85.1,24.7,25.66,SW,225,2.9,3.1,11,0.00,,---,0.00,VWS V14.01,2013-03-14 17:47:00,
2013-03-14 12:48:00,84.7,24.5,25.66,South,180,2.5,2.5,11,0.00,,---,0.00,VWS V14.01,2013-03-14 17:48:00,
2013-03-14 12:49:00,84.9,24.6,25.66,SSE,158,2.2,2.5,11,0.00,,---,0.00,VWS V14.01,2013-03-14 17:49:00,
2013-03-14 12:50:00,85.1,24.7,25.66,SW,225,2.5,2.5,11,0.00,,---,0.00,VWS V14.01,2013-03-14 17:50:00,
2013-03-14 12:51:00,84.2,24.0,25.66,West,270,5.4,5.4,11,0.00,,---,0.00,VWS V14.01,2013-03-14 17:51:00,
2013-03-14 12:52:00,83.3,23.4,25.66,West,270,4.3,6.5,11,0.00,,---,0.00,VWS V14.01,2013-03-14 17:52:00,
2013-03-14 12:53:00,83.5,23.5,25.66,SW,225,4.3,6.0,11,0.00,,---,0.00,VWS V14.01,2013-03-14 17:53:00,
2013-03-14 12:54:00,81.9,24.3,25.66,West,270,6.3,6.3,12,0.00,,---,0.00,VWS V14.01,2013-03-14 17:54:00,
2013-03-14 12:55:00,80.2,23.1,25.63,SW,225,10.5,10.5,12,0.00,,---,0.00,VWS V14.01,2013-03-14 17:55:00,
2013-03-14 12:56:00,80.1,22.9,25.63,WSW,248,10.5,10.5,12,0.00,,---,0.00,VWS V14.01,2013-03-14 17:56:00,
2013-03-14 12:57:00,79.7,22.6,25.63,WSW,248,13.6,13.6,12,0.00,,---,0.00,VWS V14.01,2013-03-14 17:57:00,
2013-03-14 12:58:00,79.5,22.5,25.63,WSW,248,10.3,13.6,12,0.00,,---,0.00,VWS V14.01,2013-03-14 17:58:00,
2013-03-14 12:59:00,78.6,23.7,25.63,West,270,13.4,15.2,13,0.00,,---,0.00,VWS V14.01,2013-03-14 17:59:00,
2013-03-14 13:00:00,77.7,23.0,25.63,WNW,292,8.5,13.4,13,0.00,,---,0.00,VWS V14.01,2013-03-14 18:00:00,
2013-03-14 13:01:00,79.2,22.2,25.63,WNW,292,7.4,8.5,12,0.00,,---,0.00,VWS V14.01,2013-03-14 18:01:00,
2013-03-14 13:02:00,79.5,22.5,25.63,WNW,292,6.3,7.8,12,0.00,,---,0.00,VWS V14.01,2013-03-14 18:02:00,
2013-03-14 13:03:00,79.9,22.8,25.63,WSW,248,5.4,6.3,12,0.00,,---,0.00,VWS V14.01,2013-03-14 18:03:00,
2013-03-14 13:04:00,79.3,22.4,25.63,SW,225,10.1,10.1,12,0.00,,---,0.00,VWS V14.01,2013-03-14 18:04:00,
2013-03-14 13:05:00,79.2,22.2,25.63,SW,225,5.8,10.1,12,0.00,,---,0.00,VWS V14.01,2013-03-14 18:05:00,
2013-03-14 13:06:00,79.0,22.1,25.63,SW,225,9.8,9.8,12,0.00,,---,0.00,VWS V14.01,2013-03-14 18:06:00,
2013-03-14 13:07:00,78.6,23.7,25.63,WSW,248,10.5,13.0,13,0.00,,---,0.00,VWS V14.01,2013-03-14 18:07:00,
2013-03-14 13:08:00,77.7,23.0,25.63,West,270,9.8,11.0,13,0.00,,---,0.00,VWS V14.01,2013-03-14 18:08:00,
2013-03-14 13:09:00,77.7,23.0,25.63,SW,225,6.3,18.1,13,0.00,,---,0.00,VWS V14.01,2013-03-14 18:09:00,
2013-03-14 13:10:00,78.6,23.7,25.63,NW,315,5.8,8.7,13,0.00,,---,0.00,VWS V14.01,2013-03-14 18:10:00,
2013-03-14 13:11:00,79.5,22.5,25.63,North,0,5.4,7.2,12,0.00,,---,0.00,VWS V14.01,2013-03-14 18:11:00,
2013-03-14 13:12:00,80.4,23.2,25.63,NNW,338,5.4,5.4,12,0.00,,---,0.00,VWS V14.01,2013-03-14 18:12:00,
2013-03-14 13:13:00,81.1,23.8,25.63,West,270,5.8,5.8,12,0.00,,---,0.00,VWS V14.01,2013-03-14 18:13:00,
2013-03-14 13:14:00,80.8,23.5,25.63,SSW,202,8.5,8.5,12,0.00,,---,0.00,VWS V14.01,2013-03-14 18:14:00,
2013-03-14 13:15:00,79.0,22.1,25.63,SSW,202,4.0,8.5,12,0.00,,---,0.00,VWS V14.01,2013-03-14 18:15:00,
2013-03-14 13:17:00,79.0,22.1,25.63,SW,225,7.4,7.4,12,0.00,,---,0.00,VWS V14.01,2013-03-14 18:17:00,
2013-03-14 13:18:00,78.4,23.6,25.63,SW,225,12.1,13.0,13,0.00,,---,0.00,VWS V14.01,2013-03-14 18:18:00,
2013-03-14 13:19:00,77.9,23.1,25.63,SW,225,7.6,12.1,13,0.00,,---,0.00,VWS V14.01,2013-03-14 18:19:00,
2013-03-14 13:20:00,77.5,22.9,25.63,SW,225,3.6,7.8,13,0.00,,---,0.00,VWS V14.01,2013-03-14 18:20:00,
2013-03-14 13:21:00,78.3,23.4,25.63,WNW,292,7.6,7.6,13,0.00,,---,0.00,VWS V14.01,2013-03-14 18:21:00,
2013-03-14 13:22:00,78.8,22.0,25.63,NNW,338,3.8,7.6,12,0.00,,---,0.00,VWS V14.01,2013-03-14 18:22:00,
2013-03-14 13:23:00,80.1,22.9,25.63,NW,315,2.0,3.8,12,0.00,,---,0.00,VWS V14.01,2013-03-14 18:23:00,
2013-03-14 13:24:00,81.7,24.2,25.60,South,180,3.1,4.3,12,0.00,,---,0.00,VWS V14.01,2013-03-14 18:24:00,
2013-03-14 13:25:00,82.4,22.7,25.60,ENE,68,2.7,4.0,11,0.00,,---,0.00,VWS V14.01,2013-03-14 18:25:00,
2013-03-14 13:26:00,82.4,22.7,25.60,NE,45,4.0,5.4,11,0.00,,---,0.00,VWS V14.01,2013-03-14 18:26:00,
2013-03-14 13:27:00,82.4,22.7,25.60,NE,45,4.0,4.0,11,0.00,,---,0.00,VWS V14.01,2013-03-14 18:27:00,
2013-03-14 13:28:00,84.4,24.2,25.60,SE,135,1.3,4.0,11,0.00,,---,0.00,VWS V14.01,2013-03-14 18:28:00,
2013-03-14 13:29:00,84.4,24.2,25.60,SW,225,5.8,5.8,11,0.00,,---,0.00,VWS V14.01,2013-03-14 18:29:00,
2013-03-14 13:30:00,84.4,24.2,25.60,WSW,248,6.0,6.0,11,0.00,,---,0.00,VWS V14.01,2013-03-14 18:30:00,
2013-03-14 13:31:00,84.4,24.2,25.60,SSE,158,2.9,6.0,11,0.00,,---,0.00,VWS V14.01,2013-03-14 18:31:00,
2013-03-14 13:32:00,81.9,24.3,25.60,ESE,112,6.3,6.3,12,0.00,,---,0.00,VWS V14.01,2013-03-14 18:32:00,
2013-03-14 13:33:00,82.0,24.5,25.60,ESE,112,5.6,6.3,12,0.00,,---,0.00,VWS V14.01,2013-03-14 18:33:00,
2013-03-14 13:34:00,82.0,24.5,25.60,ESE,112,4.3,5.6,12,0.00,,---,0.00,VWS V14.01,2013-03-14 18:34:00,
2013-03-14 13:35:00,82.0,24.5,25.60,ESE,112,7.8,7.8,12,0.00,,---,0.00,VWS V14.01,2013-03-14 18:35:00,
2013-03-14 13:36:00,82.0,24.5,25.60,South,180,1.3,7.8,12,0.00,,---,0.00,VWS V14.01,2013-03-14 18:36:00,
2013-03-14 13:37:00,82.6,22.8,25.60,SSW,202,2.9,4.3,11,0.00,,---,0.00,VWS V14.01,2013-03-14 18:37:00,
2013-03-14 13:38:00,83.1,23.2,25.60,South,180,4.9,4.9,11,0.00,,---,0.00,VWS V14.01,2013-03-14 18:38:00,
2013-03-14 13:39:00,83.7,23.6,25.60,SE,135,3.4,4.9,11,0.00,,---,0.00,VWS V14.01,2013-03-14 18:39:00,
2013-03-14 13:40:00,83.7,23.6,25.60,ESE,112,2.7,3.4,11,0.00,,---,0.00,VWS V14.01,2013-03-14 18:40:00,
2013-03-14 13:41:00,84.6,24.3,25.60,West,270,4.9,4.9,11,0.00,,---,0.00,VWS V14.01,2013-03-14 18:41:00,
2013-03-14 13:42:00,83.8,23.8,25.60,West,270,6.0,6.5,11,0.00,,---,0.00,VWS V14.01,2013-03-14 18:42:00,
2013-03-14 13:43:00,83.1,23.2,25.60,West,270,4.0,8.7,11,0.00,,---,0.00,VWS V14.01,2013-03-14 18:43:00,
2013-03-14 13:44:00,82.4,22.7,25.60,WSW,248,10.7,10.7,11,0.00,,---,0.00,VWS V14.01,2013-03-14 18:44:00,
2013-03-14 13:45:00,81.7,24.2,25.60,WNW,292,7.4,10.7,12,0.00,,---,0.00,VWS V14.01,2013-03-14 18:45:00,
2013-03-14 13:46:00,81.5,24.0,25.60,West,270,1.6,1.6,12,0.00,,---,0.00,VWS V14.01,2013-03-14 18:46:00,
2013-03-14 13:47:00,83.1,23.2,25.60,SSE,158,4.3,4.3,11,0.00,,---,0.00,VWS V14.01,2013-03-14 18:47:00,
2013-03-14 13:48:00,81.7,24.2,25.60,WSW,248,4.0,4.9,12,0.00,,---,0.00,VWS V14.01,2013-03-14 18:48:00,
2013-03-14 13:49:00,81.9,24.3,25.60,SW,225,3.4,5.6,12,0.00,,---,0.00,VWS V14.01,2013-03-14 18:49:00,
2013-03-14 13:50:00,81.9,24.3,25.60,WNW,292,11.0,11.0,12,0.00,,---,0.00,VWS V14.01,2013-03-14 18:50:00,
2013-03-14 13:51:00,81.1,23.8,25.60,SW,225,6.0,11.0,12,0.00,,---,0.00,VWS V14.01,2013-03-14 18:51:00,
2013-03-14 13:52:00,81.1,23.8,25.60,WNW,292,8.7,8.7,12,0.00,,---,0.00,VWS V14.01,2013-03-14 18:52:00,
2013-03-14 13:53:00,81.1,23.8,25.60,NNW,338,5.4,8.7,12,0.00,,---,0.00,VWS V14.01,2013-03-14 18:53:00,
2013-03-14 13:54:00,82.0,24.5,25.57,NW,315,5.6,8.5,12,0.00,,---,0.00,VWS V14.01,2013-03-14 18:54:00,
2013-03-14 13:55:00,81.3,23.9,25.57,WNW,292,8.5,9.8,12,0.00,,---,0.00,VWS V14.01,2013-03-14 18:55:00,
2013-03-14 13:56:00,80.2,23.1,25.57,WNW,292,9.4,13.2,12,0.00,,---,0.00,VWS V14.01,2013-03-14 18:56:00,
2013-03-14 13:57:00,80.1,22.9,25.57,West,270,7.8,9.8,12,0.00,,---,0.00,VWS V14.01,2013-03-14 18:57:00,
2013-03-14 13:58:00,80.1,22.9,25.57,WNW,292,5.6,7.8,12,0.00,,---,0.00,VWS V14.01,2013-03-14 18:58:00,
2013-03-14 13:59:00,80.1,22.9,25.57,NW,315,5.8,6.5,12,0.00,,---,0.00,VWS V14.01,2013-03-14 18:59:00,
2013-03-14 14:00:00,80.1,22.9,25.57,NNW,338,3.6,5.8,12,0.00,,---,0.00,VWS V14.01,2013-03-14 19:00:00,
2013-03-14 14:01:00,83.3,23.4,25.57,North,0,2.7,4.7,11,0.00,,---,0.00,VWS V14.01,2013-03-14 19:01:00,
2013-03-14 14:02:00,84.0,23.9,25.57,North,0,4.0,4.0,11,0.00,,---,0.00,VWS V14.01,2013-03-14 19:02:00,
2013-03-14 14:03:00,84.9,24.6,25.57,NNE,22,1.6,4.0,11,0.00,,---,0.00,VWS V14.01,2013-03-14 19:03:00,
2013-03-14 14:04:00,84.9,24.6,25.57,WNW,292,4.0,4.0,11,0.00,,---,0.00,VWS V14.01,2013-03-14 19:04:00,
2013-03-14 14:05:00,84.9,24.6,25.57,SSW,202,6.7,8.1,11,0.00,,---,0.00,VWS V14.01,2013-03-14 19:05:00,
2013-03-14 14:06:00,84.9,24.6,25.57,SSW,202,5.8,7.6,11,0.00,,---,0.00,VWS V14.01,2013-03-14 19:06:00,
2013-03-14 14:08:00,81.3,23.9,25.57,SW,225,5.6,6.3,12,0.00,,---,0.00,VWS V14.01,2013-03-14 19:08:00,
2013-03-14 14:09:00,82.4,22.7,25.60,NW,315,4.9,6.3,11,0.00,,---,0.00,VWS V14.01,2013-03-14 19:09:00,
2013-03-14 14:10:00,81.7,24.2,25.60,West,270,9.4,9.4,12,0.00,,---,0.00,VWS V14.01,2013-03-14 19:10:00,
2013-03-14 14:11:00,81.7,24.2,25.60,NW,315,4.0,10.1,12,0.00,,---,0.00,VWS V14.01,2013-03-14 19:11:00,
2013-03-14 14:12:00,81.7,24.2,25.60,NW,315,9.8,9.8,12,0.00,,---,0.00,VWS V14.01,2013-03-14 19:12:00,
2013-03-14 14:13:00,82.8,23.0,25.60,NW,315,4.0,9.8,11,0.00,,---,0.00,VWS V14.01,2013-03-14 19:13:00,
2013-03-14 14:14:00,83.1,23.2,25.60,North,0,6.5,6.5,11,0.00,,---,0.00,VWS V14.01,2013-03-14 19:14:00,
2013-03-14 14:15:00,83.1,23.2,25.60,ENE,68,4.3,6.5,11,0.00,,---,0.00,VWS V14.01,2013-03-14 19:15:00,
2013-03-14 14:16:00,83.1,23.2,25.60,ESE,112,2.7,5.6,11,0.00,,---,0.00,VWS V14.01,2013-03-14 19:16:00,
2013-03-14 14:17:00,83.5,23.5,25.60,SSE,158,6.5,6.5,11,0.00,,---,0.00,VWS V14.01,2013-03-14 19:17:00,
2013-03-14 14:18:00,83.5,23.5,25.60,NNW,338,4.0,6.5,11,0.00,,---,0.00,VWS V14.01,2013-03-14 19:18:00,
2013-03-14 14:19:00,83.5,23.5,25.60,West,270,6.5,9.6,11,0.00,,---,0.00,VWS V14.01,2013-03-14 19:19:00,
2013-03-14 14:20:00,82.8,23.0,25.60,West,270,9.6,9.6,11,0.00,,---,0.00,VWS V14.01,2013-03-14 19:20:00,
2013-03-14 14:21:00,82.4,22.7,25.60,WNW,292,8.7,12.3,11,0.00,,---,0.00,VWS V14.01,2013-03-14 19:21:00,
2013-03-14 14:22:00,81.5,24.0,25.60,NW,315,7.8,8.7,12,0.00,,---,0.00,VWS V14.01,2013-03-14 19:22:00,
2013-03-14 14:23:00,82.2,24.6,25.60,WNW,292,7.6,7.8,12,0.00,,---,0.00,VWS V14.01,2013-03-14 19:23:00,
2013-03-14 14:24:00,82.6,22.8,25.57,NW,315,4.3,8.7,11,0.00,,---,0.00,VWS V14.01,2013-03-14 19:24:00,
2013-03-14 14:25:00,82.4,22.7,25.57,WNW,292,1.1,4.3,11,0.00,,---,0.00,VWS V14.01,2013-03-14 19:25:00,
2013-03-14 14:26:00,82.9,23.1,25.57,NNW,338,7.4,7.8,11,0.00,,---,0.00,VWS V14.01,2013-03-14 19:26:00,
2013-03-14 14:27:00,83.5,23.5,25.57,NNW,338,6.3,7.4,11,0.00,,---,0.00,VWS V14.01,2013-03-14 19:27:00,
2013-03-14 14:28:00,83.5,23.5,25.57,NW,315,7.4,7.4,11,0.00,,---,0.00,VWS V14.01,2013-03-14 19:28:00,
2013-03-14 14:29:00,82.2,24.6,25.57,NW,315,12.3,12.3,12,0.00,,---,0.00,VWS V14.01,2013-03-14 19:29:00,
2013-03-14 14:30:00,82.4,22.7,25.57,NW,315,8.5,12.3,11,0.00,,---,0.00,VWS V14.01,2013-03-14 19:30:00,
2013-03-14 14:31:00,82.8,23.0,25.57,NW,315,5.4,8.5,11,0.00,,---,0.00,VWS V14.01,2013-03-14 19:31:00,
2013-03-14 14:32:00,82.8,23.0,25.57,West,270,10.7,10.7,11,0.00,,---,0.00,VWS V14.01,2013-03-14 19:32:00,
2013-03-14 14:33:00,82.8,23.0,25.57,WNW,292,7.4,10.7,11,0.00,,---,0.00,VWS V14.01,2013-03-14 19:33:00,
2013-03-14 14:34:00,82.8,23.0,25.57,WNW,292,7.4,7.4,11,0.00,,---,0.00,VWS V14.01,2013-03-14 19:34:00,
2013-03-14 14:35:00,81.3,23.9,25.57,WSW,248,4.3,7.4,12,0.00,,---,0.00,VWS V14.01,2013-03-14 19:35:00,
2013-03-14 14:36:00,82.0,24.5,25.57,WNW,292,4.9,4.9,12,0.00,,---,0.00,VWS V14.01,2013-03-14 19:36:00,
2013-03-14 14:37:00,82.0,24.5,25.57,NW,315,8.1,10.3,12,0.00,,---,0.00,VWS V14.01,2013-03-14 19:37:00,
2013-03-14 14:38:00,81.9,24.3,25.57,NW,315,8.1,11.4,12,0.00,,---,0.00,VWS V14.01,2013-03-14 19:38:00,
2013-03-14 14:39:00,81.9,24.3,25.60,West,270,10.1,12.1,12,0.00,,---,0.00,VWS V14.01,2013-03-14 19:39:00,
2013-03-14 14:40:00,80.2,23.1,25.60,WSW,248,8.7,10.3,12,0.00,,---,0.00,VWS V14.01,2013-03-14 19:40:00,
2013-03-14 14:41:00,80.6,23.4,25.60,WNW,292,13.0,13.0,12,0.00,,---,0.00,VWS V14.01,2013-03-14 19:41:00,
2013-03-14 14:42:00,80.6,23.4,25.60,WNW,292,9.4,13.0,12,0.00,,---,0.00,VWS V14.01,2013-03-14 19:42:00,
2013-03-14 14:43:00,80.2,23.1,25.60,WNW,292,7.6,9.4,12,0.00,,---,0.00,VWS V14.01,2013-03-14 19:43:00,
2013-03-14 14:44:00,81.3,23.9,25.60,West,270,3.6,7.6,12,0.00,,---,0.00,VWS V14.01,2013-03-14 19:44:00,
2013-03-14 14:45:00,81.3,23.9,25.60,WNW,292,6.0,6.0,12,0.00,,---,0.00,VWS V14.01,2013-03-14 19:45:00,
2013-03-14 14:46:00,81.3,23.9,25.60,WNW,292,3.6,6.0,12,0.00,,---,0.00,VWS V14.01,2013-03-14 19:46:00,
2013-03-14 14:47:00,83.3,23.4,25.60,NNE,22,2.9,4.0,11,0.00,,---,0.00,VWS V14.01,2013-03-14 19:47:00,
2013-03-14 14:48:00,83.3,23.4,25.60,NNW,338,6.5,7.4,11,0.00,,---,0.00,VWS V14.01,2013-03-14 19:48:00,
2013-03-14 14:49:00,83.3,23.4,25.60,NW,315,3.6,6.5,11,0.00,,---,0.00,VWS V14.01,2013-03-14 19:49:00,
2013-03-14 14:50:00,83.3,23.4,25.60,NNE,22,2.5,3.6,11,0.00,,---,0.00,VWS V14.01,2013-03-14 19:50:00,
2013-03-14 14:51:00,84.4,24.2,25.60,NW,315,7.4,8.5,11,0.00,,---,0.00,VWS V14.01,2013-03-14 19:51:00,
2013-03-14 14:52:00,83.8,23.8,25.60,NNW,338,10.3,13.0,11,0.00,,---,0.00,VWS V14.01,2013-03-14 19:52:00,
2013-03-14 14:53:00,82.6,22.8,25.60,NNW,338,14.5,14.5,11,0.00,,---,0.00,VWS V14.01,2013-03-14 19:53:00,
2013-03-14 14:54:00,82.6,22.8,25.60,North,0,7.6,14.5,11,0.00,,---,0.00,VWS V14.01,2013-03-14 19:54:00,
2013-03-14 14:55:00,82.4,22.7,25.60,NNW,338,6.9,7.6,11,0.00,,---,0.00,VWS V14.01,2013-03-14 19:55:00,
2013-03-14 14:56:00,82.6,22.8,25.60,North,0,5.6,8.5,11,0.00,,---,0.00,VWS V14.01,2013-03-14 19:56:00,
2013-03-14 14:57:00,82.6,22.8,25.60,NW,315,4.9,5.6,11,0.00,,---,0.00,VWS V14.01,2013-03-14 19:57:00,
2013-03-14 14:58:00,83.8,23.8,25.60,ENE,68,1.3,4.9,11,0.00,,---,0.00,VWS V14.01,2013-03-14 19:58:00,
2013-03-14 14:59:00,84.7,24.5,25.60,North,0,2.0,3.1,11,0.00,,---,0.00,VWS V14.01,2013-03-14 19:59:00,
2013-03-14 15:00:00,84.7,24.5,25.60,NW,315,0.0,2.0,11,0.00,,---,0.00,VWS V14.01,2013-03-14 20:00:00,
2013-03-14 15:02:00,86.4,25.7,25.60,SW,225,2.5,2.5,11,0.00,,---,0.00,VWS V14.01,2013-03-14 20:02:00,
2013-03-14 15:03:00,87.4,26.5,25.60,WNW,292,1.6,2.5,11,0.00,,---,0.00,VWS V14.01,2013-03-14 20:03:00,
2013-03-14 15:04:00,88.0,24.7,25.60,ENE,68,2.5,2.5,10,0.00,,---,0.00,VWS V14.01,2013-03-14 20:04:00,
2013-03-14 15:05:00,88.2,24.8,25.60,WNW,292,6.3,6.5,10,0.00,,---,0.00,VWS V14.01,2013-03-14 20:05:00,
2013-03-14 15:06:00,87.3,26.4,25.60,NW,315,5.6,6.3,11,0.00,,---,0.00,VWS V14.01,2013-03-14 20:06:00,
2013-03-14 15:07:00,87.3,26.4,25.60,NW,315,6.3,6.3,11,0.00,,---,0.00,VWS V14.01,2013-03-14 20:07:00,
2013-03-14 15:08:00,86.0,25.4,25.60,NNW,338,4.3,7.8,11,0.00,,---,0.00,VWS V14.01,2013-03-14 20:08:00,
2013-03-14 15:09:00,86.2,25.6,25.57,NNE,22,2.0,4.3,11,0.00,,---,0.00,VWS V14.01,2013-03-14 20:09:00,
2013-03-14 15:10:00,85.1,24.7,25.57,WNW,292,6.5,6.5,11,0.00,,---,0.00,VWS V14.01,2013-03-14 20:10:00,
2013-03-14 15:11:00,85.5,25.0,25.57,West,270,5.4,6.0,11,0.00,,---,0.00,VWS V14.01,2013-03-14 20:11:00,
2013-03-14 15:12:00,84.7,24.5,25.57,SSE,158,3.1,6.0,11,0.00,,---,0.00,VWS V14.01,2013-03-14 20:12:00,
2013-03-14 15:13:00,85.3,24.9,25.57,South,180,3.8,3.8,11,0.00,,---,0.00,VWS V14.01,2013-03-14 20:13:00,
2013-03-14 15:14:00,83.8,23.8,25.57,SW,225,5.6,6.5,11,0.00,,---,0.00,VWS V14.01,2013-03-14 20:14:00,
2013-03-14 15:15:00,82.6,22.8,25.57,SW,225,4.9,5.6,11,0.00,,---,0.00,VWS V14.01,2013-03-14 20:15:00,
2013-03-14 15:16:00,82.8,23.0,25.57,SW,225,4.0,4.9,11,0.00,,---,0.00,VWS V14.01,2013-03-14 20:16:00,
2013-03-14 15:17:00,83.3,23.4,25.57,WSW,248,3.6,4.9,11,0.00,,---,0.00,VWS V14.01,2013-03-14 20:17:00,
2013-03-14 15:18:00,84.2,24.0,25.57,West,270,3.8,4.0,11,0.00,,---,0.00,VWS V14.01,2013-03-14 20:18:00,
2013-03-14 15:19:00,83.3,23.4,25.57,West,270,3.1,8.5,11,0.00,,---,0.00,VWS V14.01,2013-03-14 20:19:00,
2013-03-14 15:20:00,83.3,23.4,25.57,West,270,2.9,4.0,11,0.00,,---,0.00,VWS V14.01,2013-03-14 20:20:00,
2013-03-14 15:21:00,84.9,24.6,25.57,NNE,22,2.9,3.6,11,0.00,,---,0.00,VWS V14.01,2013-03-14 20:21:00,
2013-03-14 15:22:00,85.5,25.0,25.57,NNW,338,5.8,5.8,11,0.00,,---,0.00,VWS V14.01,2013-03-14 20:22:00,
2013-03-14 15:23:00,85.5,25.0,25.57,NNW,338,6.3,7.6,11,0.00,,---,0.00,VWS V14.01,2013-03-14 20:23:00,
2013-03-14 15:24:00,85.5,25.0,25.57,NW,315,6.0,6.3,11,0.00,,---,0.00,VWS V14.01,2013-03-14 20:24:00,
2013-03-14 15:25:00,84.7,24.5,25.57,North,0,6.3,7.4,11,0.00,,---,0.00,VWS V14.01,2013-03-14 20:25:00,
2013-03-14 15:26:00,84.6,24.3,25.57,NW,315,5.4,8.5,11,0.00,,---,0.00,VWS V14.01,2013-03-14 20:26:00,
2013-03-14 15:27:00,84.4,24.2,25.57,WNW,292,7.4,7.4,11,0.00,,---,0.00,VWS V14.01,2013-03-14 20:27:00,
2013-03-14 15:28:00,82.6,22.8,25.57,WNW,292,6.3,9.8,11,0.00,,---,0.00,VWS V14.01,2013-03-14 20:28:00,
2013-03-14 15:29:00,82.4,22.7,25.57,West,270,7.8,9.0,11,0.00,,---,0.00,VWS V14.01,2013-03-14 20:29:00,
2013-03-14 15:30:00,82.8,23.0,25.57,WNW,292,6.3,8.5,11,0.00,,---,0.00,VWS V14.01,2013-03-14 20:30:00,
2013-03-14 15:31:00,83.3,23.4,25.57,NW,315,3.8,6.3,11,0.00,,---,0.00,VWS V14.01,2013-03-14 20:31:00,
2013-03-14 15:32:00,83.7,23.6,25.57,West,270,6.0,6.0,11,0.00,,---,0.00,VWS V14.01,2013-03-14 20:32:00,
2013-03-14 15:33:00,82.4,22.7,25.57,WNW,292,6.5,10.5,11,0.00,,---,0.00,VWS V14.01,2013-03-14 20:33:00,
2013-03-14 15:34:00,82.6,22.8,25.57,WNW,292,8.1,8.1,11,0.00,,---,0.00,VWS V14.01,2013-03-14 20:34:00,
2013-03-14 15:35:00,82.6,22.8,25.57,West,270,8.5,10.3,11,0.00,,---,0.00,VWS V14.01,2013-03-14 20:35:00,
2013-03-14 15:36:00,81.3,23.9,25.57,West,270,7.4,10.5,12,0.00,,---,0.00,VWS V14.01,2013-03-14 20:36:00,
2013-03-14 15:37:00,81.5,24.0,25.57,WSW,248,6.5,7.4,12,0.00,,---,0.00,VWS V14.01,2013-03-14 20:37:00,
2013-03-14 15:38:00,81.9,24.3,25.57,SSW,202,3.1,6.5,12,0.00,,---,0.00,VWS V14.01,2013-03-14 20:38:00,
2013-03-14 15:39:00,82.0,24.5,25.57,WSW,248,11.2,11.2,12,0.00,,---,0.00,VWS V14.01,2013-03-14 20:39:00,
2013-03-14 15:40:00,81.1,23.8,25.57,WSW,248,10.3,11.2,12,0.00,,---,0.00,VWS V14.01,2013-03-14 20:40:00,
2013-03-14 15:41:00,81.1,23.8,25.57,SW,225,9.6,10.3,12,0.00,,---,0.00,VWS V14.01,2013-03-14 20:41:00,
2013-03-14 15:42:00,80.8,23.5,25.57,WSW,248,7.4,10.7,12,0.00,,---,0.00,VWS V14.01,2013-03-14 20:42:00,
2013-03-14 15:43:00,80.8,23.5,25.57,WSW,248,6.3,7.4,12,0.00,,---,0.00,VWS V14.01,2013-03-14 20:43:00,
2013-03-14 15:44:00,80.8,23.5,25.57,WSW,248,8.1,10.5,12,0.00,,---,0.00,VWS V14.01,2013-03-14 20:44:00,
2013-03-14 15:45:00,81.1,23.8,25.57,West,270,7.4,8.5,12,0.00,,---,0.00,VWS V14.01,2013-03-14 20:45:00,
2013-03-14 15:46:00,80.8,23.5,25.57,SW,225,4.9,8.1,12,0.00,,---,0.00,VWS V14.01,2013-03-14 20:46:00,
2013-03-14 15:47:00,81.5,24.0,25.57,SSW,202,2.9,4.9,12,0.00,,---,0.00,VWS V14.01,2013-03-14 20:47:00,
2013-03-14 15:48:00,82.8,23.0,25.57,West,270,2.7,2.9,11,0.00,,---,0.00,VWS V14.01,2013-03-14 20:48:00,
2013-03-14 15:49:00,83.1,23.2,25.57,WNW,292,5.6,5.6,11,0.00,,---,0.00,VWS V14.01,2013-03-14 20:49:00,
2013-03-14 15:50:00,82.8,23.0,25.57,West,270,8.7,8.7,11,0.00,,---,0.00,VWS V14.01,2013-03-14 20:50:00,
2013-03-14 15:51:00,81.0,23.6,25.57,West,270,9.8,14.8,12,0.00,,---,0.00,VWS V14.01,2013-03-14 20:51:00,
2013-03-14 15:52:00,81.1,23.8,25.57,WNW,292,9.0,10.5,12,0.00,,---,0.00,VWS V14.01,2013-03-14 20:52:00,
2013-03-14 15:53:00,81.3,23.9,25.57,WNW,292,6.3,9.0,12,0.00,,---,0.00,VWS V14.01,2013-03-14 20:53:00,
2013-03-14 15:54:00,81.9,24.3,25.57,West,270,7.4,8.5,12,0.00,,---,0.00,VWS V14.01,2013-03-14 20:54:00,
2013-03-14 15:55:00,82.8,23.0,25.57,West,270,2.2,7.4,11,0.00,,---,0.00,VWS V14.01,2013-03-14 20:55:00,
2013-03-14 15:56:00,83.7,23.6,25.57,SSE,158,1.1,2.2,11,0.00,,---,0.00,VWS V14.01,2013-03-14 20:56:00,
2013-03-14 15:57:00,84.2,24.0,25.57,West,270,3.1,3.1,11,0.00,,---,0.00,VWS V14.01,2013-03-14 20:57:00,
2013-03-14 15:58:00,84.2,24.0,25.57,North,0,5.8,7.8,11,0.00,,---,0.00,VWS V14.01,2013-03-14 20:58:00,
2013-03-14 15:59:00,83.8,23.8,25.57,North,0,4.3,5.8,11,0.00,,---,0.00,VWS V14.01,2013-03-14 20:59:00,
2013-03-14 16:00:00,84.2,24.0,25.57,West,270,5.8,5.8,11,0.00,,---,0.00,VWS V14.01,2013-03-14 21:00:00,
2013-03-14 16:01:00,82.9,23.1,25.57,West,270,11.0,11.0,11,0.00,,---,0.00,VWS V14.01,2013-03-14 21:01:00,
2013-03-14 16:02:00,81.5,24.0,25.57,SW,225,10.1,11.0,12,0.00,,---,0.00,VWS V14.01,2013-03-14 21:02:00,
2013-03-14 16:03:00,81.1,23.8,25.57,WSW,248,5.8,10.1,12,0.00,,---,0.00,VWS V14.01,2013-03-14 21:03:00,
2013-03-14 16:04:00,81.9,24.3,25.57,WNW,292,4.0,5.8,12,0.00,,---,0.00,VWS V14.01,2013-03-14 21:04:00,
2013-03-14 16:05:00,81.9,24.3,25.57,South,180,1.3,6.3,12,0.00,,---,0.00,VWS V14.01,2013-03-14 21:05:00,
2013-03-14 16:06:00,81.9,24.3,25.57,WNW,292,6.3,6.5,12,0.00,,---,0.00,VWS V14.01,2013-03-14 21:06:00,
2013-03-14 16:07:00,82.9,23.1,25.57,NW,315,4.0,7.2,11,0.00,,---,0.00,VWS V14.01,2013-03-14 21:07:00,
2013-03-14 16:08:00,83.3,23.4,25.57,WNW,292,4.3,6.3,11,0.00,,---,0.00,VWS V14.01,2013-03-14 21:08:00,
2013-03-14 16:09:00,83.1,23.2,25.57,West,270,5.8,5.8,11,0.00,,---,0.00,VWS V14.01,2013-03-14 21:09:00,
2013-03-14 16:10:00,83.1,23.2,25.57,South,180,3.6,3.6,11,0.00,,---,0.00,VWS V14.01,2013-03-14 21:10:00,
2013-03-14 16:11:00,83.1,23.2,25.57,WNW,292,4.3,4.3,11,0.00,,---,0.00,VWS V14.01,2013-03-14 21:11:00,
2013-03-14 16:12:00,83.1,23.2,25.57,NW,315,3.4,4.3,11,0.00,,---,0.00,VWS V14.01,2013-03-14 21:12:00,
2013-03-14 16:13:00,83.1,23.2,25.57,NNW,338,5.8,6.3,11,0.00,,---,0.00,VWS V14.01,2013-03-14 21:13:00,
2013-03-14 16:14:00,83.3,23.4,25.57,NNE,22,2.7,6.5,11,0.00,,---,0.00,VWS V14.01,2013-03-14 21:14:00,
2013-03-14 16:15:00,83.8,23.8,25.57,SSE,158,1.1,4.0,11,0.00,,---,0.00,VWS V14.01,2013-03-14 21:15:00,
2013-03-14 16:16:00,84.2,24.0,25.57,SW,225,0.0,2.7,11,0.00,,---,0.00,VWS V14.01,2013-03-14 21:16:00,
2013-03-14 16:17:00,84.4,24.2,25.57,ESE,112,3.4,3.4,11,0.00,,---,0.00,VWS V14.01,2013-03-14 21:17:00,
2013-03-14 16:18:00,84.0,23.9,25.57,ESE,112,4.9,4.9,11,0.00,,---,0.00,VWS V14.01,2013-03-14 21:18:00,
2013-03-14 16:19:00,84.4,24.2,25.57,ESE,112,3.6,4.9,11,0.00,,---,0.00,VWS V14.01,2013-03-14 21:19:00,
2013-03-14 16:20:00,84.6,24.3,25.57,ESE,112,3.6,3.6,11,0.00,,---,0.00,VWS V14.01,2013-03-14 21:20:00,
2013-03-14 16:21:00,85.5,25.0,25.57,ESE,112,0.0,3.6,11,0.00,,---,0.00,VWS V14.01,2013-03-14 21:21:00,
2013-03-14 16:22:00,86.2,25.6,25.57,WNW,292,3.6,3.6,11,0.00,,---,0.00,VWS V14.01,2013-03-14 21:22:00,
2013-03-14 16:23:00,86.5,25.9,25.57,NE,45,2.0,4.7,11,0.00,,---,0.00,VWS V14.01,2013-03-14 21:23:00,
2013-03-14 16:24:00,86.5,25.9,25.57,NNW,338,7.6,7.6,11,0.00,,---,0.00,VWS V14.01,2013-03-14 21:24:00,
2013-03-14 16:25:00,85.6,25.2,25.57,NNE,22,7.4,7.4,11,0.00,,---,0.00,VWS V14.01,2013-03-14 21:25:00,
2013-03-14 16:26:00,85.3,24.9,25.57,NE,45,7.8,7.8,11,0.00,,---,0.00,VWS V14.01,2013-03-14 21:26:00,
2013-03-14 16:27:00,85.3,24.9,25.57,East,90,4.7,7.8,11,0.00,,---,0.00,VWS V14.01,2013-03-14 21:27:00,
2013-03-14 16:28:00,85.3,24.9,25.57,ENE,68,3.4,4.7,11,0.00,,---,0.00,VWS V14.01,2013-03-14 21:28:00,
2013-03-14 16:29:00,85.6,25.2,25.57,NE,45,2.2,3.4,11,0.00,,---,0.00,VWS V14.01,2013-03-14 21:29:00,
2013-03-14 16:30:00,85.5,25.0,25.57,NNE,22,2.9,4.9,11,0.00,,---,0.00,VWS V14.01,2013-03-14 21:30:00,
2013-03-14 16:31:00,85.8,25.3,25.57,NE,45,3.4,3.6,11,0.00,,---,0.00,VWS V14.01,2013-03-14 21:31:00,
2013-03-14 16:32:00,85.8,25.3,25.57,ENE,68,2.5,4.3,11,0.00,,---,0.00,VWS V14.01,2013-03-14 21:32:00,
2013-03-14 16:33:00,85.8,25.3,25.57,ESE,112,2.9,4.0,11,0.00,,---,0.00,VWS V14.01,2013-03-14 21:33:00,
2013-03-14 16:34:00,85.8,25.3,25.57,ESE,112,2.9,3.6,11,0.00,,---,0.00,VWS V14.01,2013-03-14 21:34:00,
2013-03-14 16:35:00,84.2,24.0,25.57,SW,225,2.9,4.0,11,0.00,,---,0.00,VWS V14.01,2013-03-14 21:35:00,
2013-03-14 16:36:00,83.3,23.4,25.57,WSW,248,3.1,3.1,11,0.00,,---,0.00,VWS V14.01,2013-03-14 21:36:00,
2013-03-14 16:37:00,83.5,23.5,25.57,West,270,5.4,5.4,11,0.00,,---,0.00,VWS V14.01,2013-03-14 21:37:00,
2013-03-14 16:38:00,83.3,23.4,25.57,West,270,3.8,5.4,11,0.00,,---,0.00,VWS V14.01,2013-03-14 21:38:00,
2013-03-14 16:39:00,83.3,23.4,25.54,ENE,68,0.0,3.8,11,0.00,,---,0.00,VWS V14.01,2013-03-14 21:39:00,
2013-03-14 16:40:00,86.0,25.4,25.54,NNE,22,2.5,2.5,11,0.00,,---,0.00,VWS V14.01,2013-03-14 21:40:00,
2013-03-14 16:42:00,86.0,25.4,25.54,NNW,338,2.5,3.6,11,0.00,,---,0.00,VWS V14.01,2013-03-14 21:42:00,
2013-03-14 16:43:00,86.7,26.0,25.54,ENE,68,2.0,2.9,11,0.00,,---,0.00,VWS V14.01,2013-03-14 21:43:00,
2013-03-14 16:44:00,86.9,26.1,25.54,ENE,68,2.0,2.2,11,0.00,,---,0.00,VWS V14.01,2013-03-14 21:44:00,
2013-03-14 16:45:00,87.1,26.3,25.54,ESE,112,2.5,2.7,11,0.00,,---,0.00,VWS V14.01,2013-03-14 21:45:00,
2013-03-14 16:46:00,87.1,26.3,25.54,NNE,22,2.0,2.5,11,0.00,,---,0.00,VWS V14.01,2013-03-14 21:46:00,
2013-03-14 16:47:00,87.3,26.4,25.54,ENE,68,1.1,2.2,11,0.00,,---,0.00,VWS V14.01,2013-03-14 21:47:00,
2013-03-14 16:48:00,87.8,24.5,25.54,NE,45,2.5,2.5,10,0.00,,---,0.00,VWS V14.01,2013-03-14 21:48:00,
2013-03-14 16:49:00,87.8,24.5,25.54,NE,45,2.9,2.9,10,0.00,,---,0.00,VWS V14.01,2013-03-14 21:49:00,
2013-03-14 16:50:00,87.1,26.3,25.54,ESE,112,7.4,7.4,11,0.00,,---,0.00,VWS V14.01,2013-03-14 21:50:00,
2013-03-14 16:51:00,87.1,26.3,25.54,NNE,22,2.9,7.4,11,0.00,,---,0.00,VWS V14.01,2013-03-14 21:51:00,
2013-03-14 16:52:00,87.1,26.3,25.54,North,0,2.7,2.9,11,0.00,,---,0.00,VWS V14.01,2013-03-14 21:52:00,
2013-03-14 16:54:00,86.7,26.0,25.54,North,0,2.7,2.7,11,0.00,,---,0.00,VWS V14.01,2013-03-14 21:54:00,
2013-03-14 16:55:00,86.7,26.0,25.54,NNE,22,5.8,5.8,11,0.00,,---,0.00,VWS V14.01,2013-03-14 21:55:00,
2013-03-14 16:56:00,86.7,26.0,25.54,NNE,22,5.8,5.8,11,0.00,,---,0.00,VWS V14.01,2013-03-14 21:56:00,
2013-03-14 16:57:00,85.6,25.2,25.54,ENE,68,2.9,5.8,11,0.00,,---,0.00,VWS V14.01,2013-03-14 21:57:00,
2013-03-14 16:58:00,86.0,25.4,25.54,NNE,22,1.6,2.9,11,0.00,,---,0.00,VWS V14.01,2013-03-14 21:58:00,
2013-03-14 16:59:00,85.6,25.2,25.54,NNW,338,1.6,1.6,11,0.00,,---,0.00,VWS V14.01,2013-03-14 21:59:00,
2013-03-14 17:00:00,85.6,25.2,25.54,NNW,338,1.6,1.6,11,0.00,,---,0.00,VWS V14.01,2013-03-14 22:00:00,
2013-03-14 17:01:00,85.6,25.2,25.54,NNE,22,4.0,4.9,11,0.00,,---,0.00,VWS V14.01,2013-03-14 22:01:00,
2013-03-14 17:02:00,85.6,25.2,25.54,NNE,22,7.8,7.8,11,0.00,,---,0.00,VWS V14.01,2013-03-14 22:02:00,
2013-03-14 17:03:00,84.7,24.5,25.54,NNE,22,4.3,7.8,11,0.00,,---,0.00,VWS V14.01,2013-03-14 22:03:00,
2013-03-14 17:04:00,84.7,24.5,25.54,ESE,112,5.4,5.4,11,0.00,,---,0.00,VWS V14.01,2013-03-14 22:04:00,
2013-03-14 17:05:00,83.7,23.6,25.54,ESE,112,8.5,8.5,11,0.00,,---,0.00,VWS V14.01,2013-03-14 22:05:00,
2013-03-14 17:06:00,83.1,23.2,25.54,ENE,68,6.5,8.5,11,0.00,,---,0.00,VWS V14.01,2013-03-14 22:06:00,
2013-03-14 17:07:00,82.6,22.8,25.54,East,90,8.5,8.5,11,0.00,,---,0.00,VWS V14.01,2013-03-14 22:07:00,
2013-03-14 17:08:00,82.2,24.6,25.54,East,90,7.8,8.5,12,0.00,,---,0.00,VWS V14.01,2013-03-14 22:08:00,
2013-03-14 17:09:00,81.9,24.3,25.54,ENE,68,7.4,7.8,12,0.00,,---,0.00,VWS V14.01,2013-03-14 22:09:00,
2013-03-14 17:10:00,81.9,24.3,25.54,East,90,5.4,7.4,12,0.00,,---,0.00,VWS V14.01,2013-03-14 22:10:00,
2013-03-14 17:11:00,81.7,24.2,25.54,NNE,22,2.7,5.4,12,0.00,,---,0.00,VWS V14.01,2013-03-14 22:11:00,
2013-03-14 17:12:00,82.2,24.6,25.54,NNE,22,6.5,6.5,12,0.00,,---,0.00,VWS V14.01,2013-03-14 22:12:00,
2013-03-14 17:13:00,82.0,24.5,25.54,North,0,8.7,8.7,12,0.00,,---,0.00,VWS V14.01,2013-03-14 22:13:00,
2013-03-14 17:14:00,81.5,24.0,25.54,NNW,338,7.4,10.3,12,0.00,,---,0.00,VWS V14.01,2013-03-14 22:14:00,
2013-03-14 17:15:00,81.5,24.0,25.54,ENE,68,4.0,7.4,12,0.00,,---,0.00,VWS V14.01,2013-03-14 22:15:00,
2013-03-14 17:16:00,81.9,24.3,25.54,NNE,22,6.0,7.2,12,0.00,,---,0.00,VWS V14.01,2013-03-14 22:16:00,
2013-03-14 17:17:00,81.9,24.3,25.54,NNW,338,5.8,6.0,12,0.00,,---,0.00,VWS V14.01,2013-03-14 22:17:00,
2013-03-14 17:18:00,81.7,24.2,25.54,NNE,22,8.7,8.7,12,0.00,,---,0.00,VWS V14.01,2013-03-14 22:18:00,
2013-03-14 17:19:00,81.1,23.8,25.54,ENE,68,13.2,13.4,12,0.00,,---,0.00,VWS V14.01,2013-03-14 22:19:00,
2013-03-14 17:20:00,80.8,23.5,25.54,NE,45,8.5,13.4,12,0.00,,---,0.00,VWS V14.01,2013-03-14 22:20:00,
2013-03-14 17:21:00,80.6,23.4,25.54,ENE,68,7.2,8.5,12,0.00,,---,0.00,VWS V14.01,2013-03-14 22:21:00,
2013-03-14 17:22:00,80.4,23.2,25.54,ENE,68,7.2,7.2,12,0.00,,---,0.00,VWS V14.01,2013-03-14 22:22:00,
2013-03-14 17:23:00,80.8,23.5,25.54,ENE,68,7.2,7.2,12,0.00,,---,0.00,VWS V14.01,2013-03-14 22:23:00,
2013-03-14 17:24:00,80.2,23.1,25.54,ESE,112,10.1,10.5,12,0.00,,---,0.00,VWS V14.01,2013-03-14 22:24:00,
2013-03-14 17:25:00,79.5,22.5,25.54,ENE,68,9.6,14.8,12,0.00,,---,0.00,VWS V14.01,2013-03-14 22:25:00,
2013-03-14 17:26:00,79.2,22.2,25.54,ESE,112,12.3,12.3,12,0.00,,---,0.00,VWS V14.01,2013-03-14 22:26:00,
2013-03-14 17:27:00,79.0,22.1,25.54,ESE,112,12.3,12.3,12,0.00,,---,0.00,VWS V14.01,2013-03-14 22:27:00,
2013-03-14 17:28:00,79.0,22.1,25.54,ESE,112,12.3,12.3,12,0.00,,---,0.00,VWS V14.01,2013-03-14 22:28:00,
2013-03-14 17:29:00,78.3,23.4,25.54,ESE,112,12.3,12.3,13,0.00,,---,0.00,VWS V14.01,2013-03-14 22:29:00,
2013-03-14 17:30:00,78.3,23.4,25.54,ESE,112,12.3,12.3,13,0.00,,---,0.00,VWS V14.01,2013-03-14 22:30:00,
2013-03-14 17:31:00,78.8,22.0,25.54,ESE,112,8.5,12.3,12,0.00,,---,0.00,VWS V14.01,2013-03-14 22:31:00,
2013-03-14 17:32:00,78.8,22.0,25.54,ESE,112,16.6,16.6,12,0.00,,---,0.00,VWS V14.01,2013-03-14 22:32:00,
2013-03-14 17:33:00,78.4,23.6,25.54,ESE,112,13.2,19.5,13,0.00,,---,0.00,VWS V14.01,2013-03-14 22:33:00,
2013-03-14 17:34:00,78.3,23.4,25.54,ESE,112,13.2,13.2,13,0.00,,---,0.00,VWS V14.01,2013-03-14 22:34:00,
2013-03-14 17:35:00,79.0,22.1,25.54,ESE,112,13.2,13.2,12,0.00,,---,0.00,VWS V14.01,2013-03-14 22:35:00,
2013-03-14 17:36:00,79.5,22.5,25.54,North,0,0.0,13.2,12,0.00,,---,0.00,VWS V14.01,2013-03-14 22:36:00,
2013-03-14 17:37:00,79.5,22.5,25.54,ENE,68,2.5,2.5,12,0.00,,---,0.00,VWS V14.01,2013-03-14 22:37:00,
2013-03-14 17:38:00,80.2,23.1,25.54,ENE,68,3.8,3.8,12,0.00,,---,0.00,VWS V14.01,2013-03-14 22:38:00,
2013-03-14 17:39:00,80.4,23.2,25.54,ENE,68,5.6,6.5,12,0.00,,---,0.00,VWS V14.01,2013-03-14 22:39:00,
2013-03-14 17:40:00,80.4,23.2,25.54,ENE,68,7.4,8.7,12,0.00,,---,0.00,VWS V14.01,2013-03-14 22:40:00,
2013-03-14 17:41:00,79.9,22.8,25.54,ENE,68,8.1,8.5,12,0.00,,---,0.00,VWS V14.01,2013-03-14 22:41:00,
2013-03-14 17:42:00,79.9,22.8,25.54,ENE,68,8.1,8.1,12,0.00,,---,0.00,VWS V14.01,2013-03-14 22:42:00,
2013-03-14 17:43:00,79.3,22.4,25.54,ENE,68,10.3,10.3,12,0.00,,---,0.00,VWS V14.01,2013-03-14 22:43:00,
2013-03-14 17:44:00,79.0,22.1,25.54,ENE,68,10.3,10.3,12,0.00,,---,0.00,VWS V14.01,2013-03-14 22:44:00,
2013-03-14 17:45:00,78.6,23.7,25.54,ENE,68,6.9,10.3,13,0.00,,---,0.00,VWS V14.01,2013-03-14 22:45:00,
2013-03-14 17:46:00,78.6,23.7,25.54,ENE,68,13.0,13.0,13,0.00,,---,0.00,VWS V14.01,2013-03-14 22:46:00,
2013-03-14 17:47:00,78.3,23.4,25.54,ENE,68,10.7,13.0,13,0.00,,---,0.00,VWS V14.01,2013-03-14 22:47:00,
2013-03-14 17:48:00,78.3,23.4,25.54,East,90,10.1,10.7,13,0.00,,---,0.00,VWS V14.01,2013-03-14 22:48:00,
2013-03-14 17:49:00,77.9,23.1,25.54,ENE,68,7.4,10.1,13,0.00,,---,0.00,VWS V14.01,2013-03-14 22:49:00,
2013-03-14 17:50:00,77.7,23.0,25.54,East,90,12.1,12.1,13,0.00,,---,0.00,VWS V14.01,2013-03-14 22:50:00,
2013-03-14 17:51:00,77.5,22.9,25.54,East,90,12.1,12.1,13,0.00,,---,0.00,VWS V14.01,2013-03-14 22:51:00,
2013-03-14 17:52:00,77.5,22.9,25.54,ESE,112,10.1,12.8,13,0.00,,---,0.00,VWS V14.01,2013-03-14 22:52:00,
2013-03-14 17:53:00,77.2,22.6,25.54,ESE,112,10.1,10.1,13,0.00,,---,0.00,VWS V14.01,2013-03-14 22:53:00,
2013-03-14 17:54:00,77.0,22.4,25.51,ESE,112,12.3,12.3,13,0.00,,---,0.00,VWS V14.01,2013-03-14 22:54:00,
2013-03-14 17:55:00,76.8,22.3,25.51,ESE,112,12.3,12.3,13,0.00,,---,0.00,VWS V14.01,2013-03-14 22:55:00,
2013-03-14 17:56:00,76.5,22.0,25.51,ESE,112,10.5,12.3,13,0.00,,---,0.00,VWS V14.01,2013-03-14 22:56:00,
2013-03-14 17:57:00,76.3,21.9,25.51,ESE,112,10.5,10.5,13,0.00,,---,0.00,VWS V14.01,2013-03-14 22:57:00,
2013-03-14 17:58:00,76.3,21.9,25.51,ESE,112,10.5,10.5,13,0.00,,---,0.00,VWS V14.01,2013-03-14 22:58:00,
2013-03-14 17:59:00,76.1,21.7,25.51,ESE,112,10.5,10.5,13,0.00,,---,0.00,VWS V14.01,2013-03-14 22:59:00,
2013-03-14 18:00:00,75.9,21.6,25.51,ESE,112,10.5,10.5,13,0.00,,---,0.00,VWS V14.01,2013-03-14 23:00:00,
2013-03-14 18:01:00,75.7,21.5,25.51,ESE,112,10.5,10.5,13,0.00,,---,0.00,VWS V14.01,2013-03-14 23:01:00,
2013-03-14 18:02:00,75.7,21.5,25.51,ESE,112,10.5,10.5,13,0.00,,---,0.00,VWS V14.01,2013-03-14 23:02:00,
2013-03-14 18:03:00,75.6,21.3,25.51,ESE,112,10.5,10.5,13,0.00,,---,0.00,VWS V14.01,2013-03-14 23:03:00,
2013-03-14 18:04:00,75.6,21.3,25.51,ESE,112,10.5,10.5,13,0.00,,---,0.00,VWS V14.01,2013-03-14 23:04:00,
2013-03-14 18:05:00,75.4,21.2,25.51,ESE,112,10.5,10.5,13,0.00,,---,0.00,VWS V14.01,2013-03-14 23:05:00,
2013-03-14 18:06:00,75.0,20.9,25.51,ESE,112,10.5,10.5,13,0.00,,---,0.00,VWS V14.01,2013-03-14 23:06:00,
2013-03-14 18:07:00,75.0,20.9,25.51,ESE,112,10.5,10.5,13,0.00,,---,0.00,VWS V14.01,2013-03-14 23:07:00,
2013-03-14 18:08:00,75.0,20.9,25.51,ESE,112,10.5,10.5,13,0.00,,---,0.00,VWS V14.01,2013-03-14 23:08:00,
2013-03-14 18:09:00,74.8,20.7,25.51,ESE,112,10.5,10.5,13,0.00,,---,0.00,VWS V14.01,2013-03-14 23:09:00,
2013-03-14 18:10:00,74.8,20.7,25.51,ESE,112,10.5,10.5,13,0.00,,---,0.00,VWS V14.01,2013-03-14 23:10:00,
2013-03-14 18:11:00,74.7,20.6,25.51,ESE,112,10.5,10.5,13,0.00,,---,0.00,VWS V14.01,2013-03-14 23:11:00,
2013-03-14 18:12:00,74.7,20.6,25.51,ESE,112,10.5,10.5,13,0.00,,---,0.00,VWS V14.01,2013-03-14 23:12:00,
2013-03-14 18:13:00,74.5,20.5,25.51,ESE,112,10.5,10.5,13,0.00,,---,0.00,VWS V14.01,2013-03-14 23:13:00,
2013-03-14 18:14:00,74.5,20.5,25.51,ESE,112,10.5,10.5,13,0.00,,---,0.00,VWS V14.01,2013-03-14 23:14:00,
2013-03-14 18:15:00,74.3,20.3,25.51,ESE,112,10.5,10.5,13,0.00,,---,0.00,VWS V14.01,2013-03-14 23:15:00,
2013-03-14 18:16:00,74.3,20.3,25.51,ESE,112,10.5,10.5,13,0.00,,---,0.00,VWS V14.01,2013-03-14 23:16:00,
2013-03-14 18:17:00,74.3,20.3,25.51,ESE,112,10.5,10.5,13,0.00,,---,0.00,VWS V14.01,2013-03-14 23:17:00,
2013-03-14 18:18:00,74.1,20.2,25.51,ESE,112,10.5,10.5,13,0.00,,---,0.00,VWS V14.01,2013-03-14 23:18:00,
2013-03-14 18:19:00,74.1,20.2,25.51,ESE,112,10.5,10.5,13,0.00,,---,0.00,VWS V14.01,2013-03-14 23:19:00,
2013-03-14 18:20:00,74.1,20.2,25.51,ESE,112,10.5,10.5,13,0.00,,---,0.00,VWS V14.01,2013-03-14 23:20:00,
2013-03-14 18:21:00,73.9,20.0,25.51,ESE,112,10.5,10.5,13,0.00,,---,0.00,VWS V14.01,2013-03-14 23:21:00,
2013-03-14 18:22:00,73.9,20.0,25.51,ESE,112,10.5,10.5,13,0.00,,---,0.00,VWS V14.01,2013-03-14 23:22:00,
2013-03-14 18:23:00,73.9,20.0,25.51,ESE,112,10.5,10.5,13,0.00,,---,0.00,VWS V14.01,2013-03-14 23:23:00,
2013-03-14 18:24:00,73.8,19.9,25.54,ESE,112,10.5,10.5,13,0.00,,---,0.00,VWS V14.01,2013-03-14 23:24:00,
2013-03-14 18:25:00,73.6,19.8,25.54,ESE,112,10.5,10.5,13,0.00,,---,0.00,VWS V14.01,2013-03-14 23:25:00,
2013-03-14 18:26:00,73.4,19.6,25.54,ESE,112,10.5,10.5,13,0.00,,---,0.00,VWS V14.01,2013-03-14 23:26:00,
2013-03-14 18:28:00,73.4,19.6,25.54,ESE,112,10.5,10.5,13,0.00,,---,0.00,VWS V14.01,2013-03-14 23:28:00,
2013-03-14 18:29:00,73.4,19.6,25.54,ESE,112,10.5,10.5,13,0.00,,---,0.00,VWS V14.01,2013-03-14 23:29:00,
2013-03-14 18:30:00,73.2,21.2,25.54,ESE,112,10.5,10.5,14,0.00,,---,0.00,VWS V14.01,2013-03-14 23:30:00,
2013-03-14 18:31:00,73.2,21.2,25.54,ESE,112,10.5,10.5,14,0.00,,---,0.00,VWS V14.01,2013-03-14 23:31:00,
2013-03-14 18:32:00,73.2,21.2,25.54,ESE,112,10.5,10.5,14,0.00,,---,0.00,VWS V14.01,2013-03-14 23:32:00,
2013-03-14 18:34:00,72.9,20.9,25.54,ESE,112,10.5,10.5,14,0.00,,---,0.00,VWS V14.01,2013-03-14 23:34:00,
2013-03-14 18:35:00,72.7,20.8,25.54,ESE,112,10.5,10.5,14,0.00,,---,0.00,VWS V14.01,2013-03-14 23:35:00,
2013-03-14 18:36:00,72.7,20.8,25.54,ESE,112,10.5,10.5,14,0.00,,---,0.00,VWS V14.01,2013-03-14 23:36:00,
2013-03-14 18:37:00,72.5,20.6,25.54,ESE,112,10.5,10.5,14,0.00,,---,0.00,VWS V14.01,2013-03-14 23:37:00,
2013-03-14 18:38:00,72.5,20.6,25.54,ESE,112,10.5,10.5,14,0.00,,---,0.00,VWS V14.01,2013-03-14 23:38:00,
2013-03-14 18:39:00,72.5,20.6,25.51,ESE,112,10.5,10.5,14,0.00,,---,0.00,VWS V14.01,2013-03-14 23:39:00,
2013-03-14 18:40:00,72.3,20.5,25.51,ESE,112,10.5,10.5,14,0.00,,---,0.00,VWS V14.01,2013-03-14 23:40:00,
2013-03-14 18:41:00,72.3,20.5,25.51,ESE,112,10.5,10.5,14,0.00,,---,0.00,VWS V14.01,2013-03-14 23:41:00,
2013-03-14 18:42:00,72.1,20.4,25.51,ESE,112,10.5,10.5,14,0.00,,---,0.00,VWS V14.01,2013-03-14 23:42:00,
2013-03-14 18:43:00,72.0,20.2,25.51,ESE,112,10.5,10.5,14,0.00,,---,0.00,VWS V14.01,2013-03-14 23:43:00,
2013-03-14 18:44:00,72.0,20.2,25.51,ESE,112,10.5,10.5,14,0.00,,---,0.00,VWS V14.01,2013-03-14 23:44:00,
2013-03-14 18:45:00,71.8,20.1,25.51,ESE,112,10.5,10.5,14,0.00,,---,0.00,VWS V14.01,2013-03-14 23:45:00,
2013-03-14 18:46:00,71.8,20.1,25.51,ESE,112,10.5,10.5,14,0.00,,---,0.00,VWS V14.01,2013-03-14 23:46:00,
2013-03-14 18:47:00,71.6,19.9,25.51,ESE,112,10.5,10.5,14,0.00,,---,0.00,VWS V14.01,2013-03-14 23:47:00,
2013-03-14 18:48:00,71.4,19.8,25.51,ESE,112,10.5,10.5,14,0.00,,---,0.00,VWS V14.01,2013-03-14 23:48:00,
2013-03-14 18:49:00,71.4,19.8,25.51,ESE,112,10.5,10.5,14,0.00,,---,0.00,VWS V14.01,2013-03-14 23:49:00,
2013-03-14 18:50:00,71.1,19.5,25.51,ESE,112,10.5,10.5,14,0.00,,---,0.00,VWS V14.01,2013-03-14 23:50:00,
2013-03-14 18:51:00,70.9,19.4,25.51,ESE,112,10.5,10.5,14,0.00,,---,0.00,VWS V14.01,2013-03-14 23:51:00,
2013-03-14 18:52:00,70.9,19.4,25.51,ESE,112,10.5,10.5,14,0.00,,---,0.00,VWS V14.01,2013-03-14 23:52:00,
2013-03-14 18:53:00,70.7,19.2,25.51,ESE,112,10.5,10.5,14,0.00,,---,0.00,VWS V14.01,2013-03-14 23:53:00,
2013-03-14 18:54:00,70.7,19.2,25.51,ESE,112,10.5,10.5,14,0.00,,---,0.00,VWS V14.01,2013-03-14 23:54:00,
2013-03-14 18:55:00,70.7,19.2,25.54,ESE,112,10.5,10.5,14,0.00,,---,0.00,VWS V14.01,2013-03-14 23:55:00,
2013-03-14 18:56:00,70.3,18.9,25.54,ESE,112,10.5,10.5,14,0.00,,---,0.00,VWS V14.01,2013-03-14 23:56:00,
2013-03-14 18:57:00,70.2,18.8,25.54,ESE,112,10.5,10.5,14,0.00,,---,0.00,VWS V14.01,2013-03-14 23:57:00,
2013-03-14 18:58:00,70.2,18.8,25.54,ESE,112,10.5,10.5,14,0.00,,---,0.00,VWS V14.01,2013-03-14 23:58:00,
2013-03-14 18:59:00,70.0,18.6,25.54,ESE,112,10.5,10.5,14,0.00,,---,0.00,VWS V14.01,2013-03-14 23:59:00,
2013-03-14 19:00:00,69.8,18.5,25.54,ESE,112,10.5,10.5,14,0.00,,---,0.00,VWS V14.01,2013-03-15 00:00:00,
2013-03-14 19:01:00,69.6,20.0,25.54,ESE,112,10.5,10.5,15,0.00,,---,0.00,VWS V14.01,2013-03-15 00:01:00,
2013-03-14 19:02:00,69.6,20.0,25.54,ESE,112,10.5,10.5,15,0.00,,---,0.00,VWS V14.01,2013-03-15 00:02:00,
2013-03-14 19:03:00,69.6,20.0,25.54,ESE,112,10.5,10.5,15,0.00,,---,0.00,VWS V14.01,2013-03-15 00:03:00,
2013-03-14 19:04:00,69.6,20.0,25.54,ESE,112,10.5,10.5,15,0.00,,---,0.00,VWS V14.01,2013-03-15 00:04:00,
2013-03-14 19:05:00,69.6,20.0,25.54,ESE,112,10.5,10.5,15,0.00,,---,0.00,VWS V14.01,2013-03-15 00:05:00,
2013-03-14 19:06:00,68.9,19.4,25.54,ESE,112,10.5,10.5,15,0.00,,---,0.00,VWS V14.01,2013-03-15 00:06:00,
2013-03-14 19:07:00,68.7,19.2,25.54,ESE,112,10.5,10.5,15,0.00,,---,0.00,VWS V14.01,2013-03-15 00:07:00,
2013-03-14 19:08:00,68.5,19.1,25.54,ESE,112,10.5,10.5,15,0.00,,---,0.00,VWS V14.01,2013-03-15 00:08:00,
2013-03-14 19:09:00,68.5,19.1,25.51,ESE,112,10.5,10.5,15,0.00,,---,0.00,VWS V14.01,2013-03-15 00:09:00,
2013-03-14 19:10:00,68.2,18.8,25.51,ESE,112,10.5,10.5,15,0.00,,---,0.00,VWS V14.01,2013-03-15 00:10:00,
2013-03-14 19:11:00,68.2,18.8,25.51,ESE,112,10.5,10.5,15,0.00,,---,0.00,VWS V14.01,2013-03-15 00:11:00,
2013-03-14 19:12:00,68.0,18.7,25.51,ESE,112,10.5,10.5,15,0.00,,---,0.00,VWS V14.01,2013-03-15 00:12:00,
2013-03-14 19:13:00,67.6,18.4,25.51,ESE,112,10.5,10.5,15,0.00,,---,0.00,VWS V14.01,2013-03-15 00:13:00,
2013-03-14 19:14:00,67.5,18.2,25.51,ESE,112,10.5,10.5,15,0.00,,---,0.00,VWS V14.01,2013-03-15 00:14:00,
2013-03-14 19:15:00,67.3,18.1,25.51,ESE,112,10.5,10.5,15,0.00,,---,0.00,VWS V14.01,2013-03-15 00:15:00,
2013-03-14 19:16:00,67.3,18.1,25.51,ESE,112,10.5,10.5,15,0.00,,---,0.00,VWS V14.01,2013-03-15 00:16:00,
2013-03-14 19:17:00,67.3,18.1,25.51,ESE,112,10.5,10.5,15,0.00,,---,0.00,VWS V14.01,2013-03-15 00:17:00,
2013-03-14 19:18:00,67.1,17.9,25.51,ESE,112,10.5,10.5,15,0.00,,---,0.00,VWS V14.01,2013-03-15 00:18:00,
2013-03-14 19:19:00,66.9,17.8,25.51,ESE,112,10.5,10.5,15,0.00,,---,0.00,VWS V14.01,2013-03-15 00:19:00,
2013-03-14 19:20:00,66.7,17.6,25.51,ESE,112,10.5,10.5,15,0.00,,---,0.00,VWS V14.01,2013-03-15 00:20:00,
2013-03-14 19:21:00,66.7,17.6,25.51,ESE,112,10.5,10.5,15,0.00,,---,0.00,VWS V14.01,2013-03-15 00:21:00,
2013-03-14 19:22:00,66.6,17.5,25.51,ESE,112,10.5,10.5,15,0.00,,---,0.00,VWS V14.01,2013-03-15 00:22:00,
2013-03-14 19:23:00,66.4,17.4,25.51,ESE,112,10.5,10.5,15,0.00,,---,0.00,VWS V14.01,2013-03-15 00:23:00,
2013-03-14 19:24:00,66.2,17.2,25.51,ESE,112,10.5,10.5,15,0.00,,---,0.00,VWS V14.01,2013-03-15 00:24:00,
2013-03-14 19:25:00,66.2,17.2,25.51,ESE,112,10.5,10.5,15,0.00,,---,0.00,VWS V14.01,2013-03-15 00:25:00,
2013-03-14 19:26:00,66.0,17.1,25.51,ESE,112,10.5,10.5,15,0.00,,---,0.00,VWS V14.01,2013-03-15 00:26:00,
2013-03-14 19:27:00,65.8,16.9,25.51,ESE,112,10.5,10.5,15,0.00,,---,0.00,VWS V14.01,2013-03-15 00:27:00,
2013-03-14 19:28:00,65.7,16.8,25.51,ESE,112,10.5,10.5,15,0.00,,---,0.00,VWS V14.01,2013-03-15 00:28:00,
2013-03-14 19:29:00,65.7,16.8,25.51,ESE,112,10.5,10.5,15,0.00,,---,0.00,VWS V14.01,2013-03-15 00:29:00,
2013-03-14 19:30:00,65.5,16.6,25.51,ESE,112,10.5,10.5,15,0.00,,---,0.00,VWS V14.01,2013-03-15 00:30:00,
2013-03-14 19:31:00,65.5,16.6,25.51,ESE,112,10.5,10.5,15,0.00,,---,0.00,VWS V14.01,2013-03-15 00:31:00,
2013-03-14 19:32:00,65.3,16.5,25.51,ESE,112,10.5,10.5,15,0.00,,---,0.00,VWS V14.01,2013-03-15 00:32:00,
2013-03-14 19:33:00,65.1,16.4,25.51,ESE,112,10.5,10.5,15,0.00,,---,0.00,VWS V14.01,2013-03-15 00:33:00,
2013-03-14 19:34:00,65.1,16.4,25.51,ESE,112,10.5,10.5,15,0.00,,---,0.00,VWS V14.01,2013-03-15 00:34:00,
2013-03-14 19:35:00,64.9,16.2,25.51,ESE,112,10.5,10.5,15,0.00,,---,0.00,VWS V14.01,2013-03-15 00:35:00,
2013-03-14 19:36:00,64.8,16.1,25.51,ESE,112,10.5,10.5,15,0.00,,---,0.00,VWS V14.01,2013-03-15 00:36:00,
2013-03-14 19:37:00,64.8,16.1,25.51,ESE,112,10.5,10.5,15,0.00,,---,0.00,VWS V14.01,2013-03-15 00:37:00,
2013-03-14 19:38:00,64.8,16.1,25.51,ESE,112,10.5,10.5,15,0.00,,---,0.00,VWS V14.01,2013-03-15 00:38:00,
2013-03-14 19:39:00,64.8,16.1,25.54,ESE,112,10.5,10.5,15,0.00,,---,0.00,VWS V14.01,2013-03-15 00:39:00,
2013-03-14 19:40:00,64.8,16.1,25.54,ESE,112,10.5,10.5,15,0.00,,---,0.00,VWS V14.01,2013-03-15 00:40:00,
2013-03-14 19:41:00,64.8,16.1,25.54,ESE,112,10.5,10.5,15,0.00,,---,0.00,VWS V14.01,2013-03-15 00:41:00,
2013-03-14 19:42:00,64.6,15.9,25.54,ESE,112,10.5,10.5,15,0.00,,---,0.00,VWS V14.01,2013-03-15 00:42:00,
2013-03-14 19:43:00,64.6,15.9,25.54,ESE,112,10.5,10.5,15,0.00,,---,0.00,VWS V14.01,2013-03-15 00:43:00,
2013-03-14 19:44:00,64.6,15.9,25.54,ESE,112,10.5,10.5,15,0.00,,---,0.00,VWS V14.01,2013-03-15 00:44:00,
2013-03-14 19:45:00,64.4,15.8,25.54,ESE,112,10.5,10.5,15,0.00,,---,0.00,VWS V14.01,2013-03-15 00:45:00,
2013-03-14 19:46:00,64.4,15.8,25.54,ESE,112,10.5,10.5,15,0.00,,---,0.00,VWS V14.01,2013-03-15 00:46:00,
2013-03-14 19:47:00,64.4,15.8,25.54,ESE,112,10.5,10.5,15,0.00,,---,0.00,VWS V14.01,2013-03-15 00:47:00,
2013-03-14 19:48:00,64.4,15.8,25.54,ESE,112,10.5,10.5,15,0.00,,---,0.00,VWS V14.01,2013-03-15 00:48:00,
2013-03-14 19:49:00,64.4,15.8,25.54,ESE,112,10.5,10.5,15,0.00,,---,0.00,VWS V14.01,2013-03-15 00:49:00,
2013-03-14 19:50:00,64.4,15.8,25.54,ESE,112,10.5,10.5,15,0.00,,---,0.00,VWS V14.01,2013-03-15 00:50:00,
2013-03-14 19:51:00,64.2,17.1,25.54,ESE,112,10.5,10.5,16,0.00,,---,0.00,VWS V14.01,2013-03-15 00:51:00,
2013-03-14 19:52:00,64.0,17.0,25.54,ESE,112,10.5,10.5,16,0.00,,---,0.00,VWS V14.01,2013-03-15 00:52:00,
2013-03-14 19:53:00,64.0,17.0,25.54,ESE,112,10.5,10.5,16,0.00,,---,0.00,VWS V14.01,2013-03-15 00:53:00,
2013-03-14 19:54:00,63.9,16.8,25.54,ESE,112,10.5,10.5,16,0.00,,---,0.00,VWS V14.01,2013-03-15 00:54:00,
2013-03-14 19:55:00,63.9,16.8,25.54,ESE,112,10.5,10.5,16,0.00,,---,0.00,VWS V14.01,2013-03-15 00:55:00,
2013-03-14 19:56:00,63.9,16.8,25.54,ESE,112,10.5,10.5,16,0.00,,---,0.00,VWS V14.01,2013-03-15 00:56:00,
2013-03-14 19:57:00,63.9,16.8,25.54,ESE,112,10.5,10.5,16,0.00,,---,0.00,VWS V14.01,2013-03-15 00:57:00,
2013-03-14 19:58:00,64.0,17.0,25.54,ESE,112,10.5,10.5,16,0.00,,---,0.00,VWS V14.01,2013-03-15 00:58:00,
2013-03-14 19:59:00,64.0,17.0,25.54,ESE,112,10.5,10.5,16,0.00,,---,0.00,VWS V14.01,2013-03-15 00:59:00,
2013-03-14 20:00:00,64.2,17.1,25.54,ESE,112,10.5,10.5,16,0.00,,---,0.00,VWS V14.01,2013-03-15 01:00:00,
2013-03-14 20:01:00,64.0,17.0,25.54,ESE,112,10.5,10.5,16,0.00,,---,0.00,VWS V14.01,2013-03-15 01:01:00,
2013-03-14 20:02:00,64.0,17.0,25.54,ESE,112,10.5,10.5,16,0.00,,---,0.00,VWS V14.01,2013-03-15 01:02:00,
2013-03-14 20:03:00,64.0,17.0,25.54,ESE,112,10.5,10.5,16,0.00,,---,0.00,VWS V14.01,2013-03-15 01:03:00,
2013-03-14 20:04:00,64.0,17.0,25.54,ESE,112,10.5,10.5,16,0.00,,---,0.00,VWS V14.01,2013-03-15 01:04:00,
2013-03-14 20:05:00,64.2,17.1,25.54,ESE,112,10.5,10.5,16,0.00,,---,0.00,VWS V14.01,2013-03-15 01:05:00,
2013-03-14 20:06:00,64.2,17.1,25.54,ESE,112,10.5,10.5,16,0.00,,---,0.00,VWS V14.01,2013-03-15 01:06:00,
2013-03-14 20:07:00,64.2,17.1,25.54,ESE,112,10.5,10.5,16,0.00,,---,0.00,VWS V14.01,2013-03-15 01:07:00,
2013-03-14 20:08:00,64.0,17.0,25.54,ESE,112,10.5,10.5,16,0.00,,---,0.00,VWS V14.01,2013-03-15 01:08:00,
2013-03-14 20:09:00,64.0,17.0,25.54,ESE,112,10.5,10.5,16,0.00,,---,0.00,VWS V14.01,2013-03-15 01:09:00,
2013-03-14 20:10:00,64.0,17.0,25.54,ESE,112,10.5,10.5,16,0.00,,---,0.00,VWS V14.01,2013-03-15 01:10:00,
2013-03-14 20:11:00,64.0,17.0,25.54,ESE,112,10.5,10.5,16,0.00,,---,0.00,VWS V14.01,2013-03-15 01:11:00,
2013-03-14 20:12:00,63.9,16.8,25.54,ESE,112,10.5,10.5,16,0.00,,---,0.00,VWS V14.01,2013-03-15 01:12:00,
2013-03-14 20:13:00,63.9,16.8,25.54,ESE,112,10.5,10.5,16,0.00,,---,0.00,VWS V14.01,2013-03-15 01:13:00,
2013-03-14 20:14:00,63.9,16.8,25.54,ESE,112,10.5,10.5,16,0.00,,---,0.00,VWS V14.01,2013-03-15 01:14:00,
2013-03-14 20:15:00,63.9,16.8,25.54,ESE,112,10.5,10.5,16,0.00,,---,0.00,VWS V14.01,2013-03-15 01:15:00,
2013-03-14 20:16:00,63.9,16.8,25.54,ESE,112,10.5,10.5,16,0.00,,---,0.00,VWS V14.01,2013-03-15 01:16:00,
2013-03-14 20:17:00,64.0,17.0,25.54,ESE,112,10.5,10.5,16,0.00,,---,0.00,VWS V14.01,2013-03-15 01:17:00,
2013-03-14 20:18:00,64.0,17.0,25.54,ESE,112,10.5,10.5,16,0.00,,---,0.00,VWS V14.01,2013-03-15 01:18:00,
2013-03-14 20:19:00,64.0,17.0,25.54,ESE,112,10.5,10.5,16,0.00,,---,0.00,VWS V14.01,2013-03-15 01:19:00,
2013-03-14 20:20:00,63.9,16.8,25.54,ESE,112,10.5,10.5,16,0.00,,---,0.00,VWS V14.01,2013-03-15 01:20:00,
2013-03-14 20:21:00,63.9,16.8,25.54,ESE,112,10.5,10.5,16,0.00,,---,0.00,VWS V14.01,2013-03-15 01:21:00,
2013-03-14 20:22:00,63.9,16.8,25.54,ESE,112,10.5,10.5,16,0.00,,---,0.00,VWS V14.01,2013-03-15 01:22:00,
2013-03-14 20:23:00,63.9,16.8,25.54,ESE,112,10.5,10.5,16,0.00,,---,0.00,VWS V14.01,2013-03-15 01:23:00,
2013-03-14 20:24:00,63.7,16.7,25.54,ESE,112,10.5,10.5,16,0.00,,---,0.00,VWS V14.01,2013-03-15 01:24:00,
2013-03-14 20:25:00,63.7,16.7,25.54,ESE,112,10.5,10.5,16,0.00,,---,0.00,VWS V14.01,2013-03-15 01:25:00,
2013-03-14 20:26:00,63.7,16.7,25.54,ESE,112,10.5,10.5,16,0.00,,---,0.00,VWS V14.01,2013-03-15 01:26:00,
2013-03-14 20:27:00,63.7,16.7,25.54,ESE,112,10.5,10.5,16,0.00,,---,0.00,VWS V14.01,2013-03-15 01:27:00,
2013-03-14 20:28:00,63.7,16.7,25.54,ESE,112,10.5,10.5,16,0.00,,---,0.00,VWS V14.01,2013-03-15 01:28:00,
2013-03-14 20:29:00,63.7,16.7,25.54,ESE,112,10.5,10.5,16,0.00,,---,0.00,VWS V14.01,2013-03-15 01:29:00,
2013-03-14 20:30:00,63.7,16.7,25.54,ESE,112,10.5,10.5,16,0.00,,---,0.00,VWS V14.01,2013-03-15 01:30:00,
2013-03-14 20:31:00,63.7,16.7,25.54,ESE,112,10.5,10.5,16,0.00,,---,0.00,VWS V14.01,2013-03-15 01:31:00,
2013-03-14 20:32:00,63.7,16.7,25.54,ESE,112,10.5,10.5,16,0.00,,---,0.00,VWS V14.01,2013-03-15 01:32:00,
2013-03-14 20:33:00,63.5,16.5,25.54,ESE,112,10.5,10.5,16,0.00,,---,0.00,VWS V14.01,2013-03-15 01:33:00,
2013-03-14 20:34:00,63.5,16.5,25.54,ESE,112,10.5,10.5,16,0.00,,---,0.00,VWS V14.01,2013-03-15 01:34:00,
2013-03-14 20:35:00,63.3,16.4,25.54,ESE,112,10.5,10.5,16,0.00,,---,0.00,VWS V14.01,2013-03-15 01:35:00,
2013-03-14 20:36:00,63.1,16.2,25.54,ESE,112,10.5,10.5,16,0.00,,---,0.00,VWS V14.01,2013-03-15 01:36:00,
2013-03-14 20:37:00,63.1,16.2,25.54,ESE,112,10.5,10.5,16,0.00,,---,0.00,VWS V14.01,2013-03-15 01:37:00,
2013-03-14 20:38:00,63.1,16.2,25.54,ESE,112,10.5,10.5,16,0.00,,---,0.00,VWS V14.01,2013-03-15 01:38:00,
2013-03-14 20:39:00,63.0,16.1,25.54,ESE,112,10.5,10.5,16,0.00,,---,0.00,VWS V14.01,2013-03-15 01:39:00,
2013-03-14 20:40:00,63.0,16.1,25.54,ESE,112,10.5,10.5,16,0.00,,---,0.00,VWS V14.01,2013-03-15 01:40:00,
2013-03-14 20:41:00,63.0,16.1,25.54,ESE,112,10.5,10.5,16,0.00,,---,0.00,VWS V14.01,2013-03-15 01:41:00,
2013-03-14 20:42:00,63.0,16.1,25.54,ESE,112,10.5,10.5,16,0.00,,---,0.00,VWS V14.01,2013-03-15 01:42:00,
2013-03-14 20:43:00,63.0,16.1,25.54,ESE,112,10.5,10.5,16,0.00,,---,0.00,VWS V14.01,2013-03-15 01:43:00,
2013-03-14 20:44:00,62.8,15.9,25.54,ESE,112,10.5,10.5,16,0.00,,---,0.00,VWS V14.01,2013-03-15 01:44:00,
2013-03-14 20:45:00,62.8,15.9,25.54,ESE,112,10.5,10.5,16,0.00,,---,0.00,VWS V14.01,2013-03-15 01:45:00,
2013-03-14 20:47:00,62.8,15.9,25.54,ESE,112,10.5,10.5,16,0.00,,---,0.00,VWS V14.01,2013-03-15 01:47:00,
2013-03-14 20:48:00,62.6,15.8,25.54,ESE,112,10.5,10.5,16,0.00,,---,0.00,VWS V14.01,2013-03-15 01:48:00,
2013-03-14 20:49:00,62.6,15.8,25.54,ESE,112,10.5,10.5,16,0.00,,---,0.00,VWS V14.01,2013-03-15 01:49:00,
2013-03-14 20:50:00,62.4,15.7,25.54,ESE,112,10.5,10.5,16,0.00,,---,0.00,VWS V14.01,2013-03-15 01:50:00,
2013-03-14 20:51:00,62.4,15.7,25.54,ESE,112,10.5,10.5,16,0.00,,---,0.00,VWS V14.01,2013-03-15 01:51:00,
2013-03-14 20:52:00,62.2,15.5,25.54,ESE,112,10.5,10.5,16,0.00,,---,0.00,VWS V14.01,2013-03-15 01:52:00,
2013-03-14 20:53:00,62.2,15.5,25.54,ESE,112,10.5,10.5,16,0.00,,---,0.00,VWS V14.01,2013-03-15 01:53:00,
2013-03-14 20:54:00,62.2,15.5,25.57,ESE,112,10.5,10.5,16,0.00,,---,0.00,VWS V14.01,2013-03-15 01:54:00,
2013-03-14 20:55:00,62.1,15.4,25.57,ESE,112,10.5,10.5,16,0.00,,---,0.00,VWS V14.01,2013-03-15 01:55:00,
2013-03-14 20:56:00,62.1,15.4,25.57,ESE,112,10.5,10.5,16,0.00,,---,0.00,VWS V14.01,2013-03-15 01:56:00,
2013-03-14 20:57:00,62.1,15.4,25.57,ESE,112,10.5,10.5,16,0.00,,---,0.00,VWS V14.01,2013-03-15 01:57:00,
2013-03-14 20:58:00,61.7,15.1,25.57,ESE,112,10.5,10.5,16,0.00,,---,0.00,VWS V14.01,2013-03-15 01:58:00,
2013-03-14 20:59:00,61.7,15.1,25.57,ESE,112,10.5,10.5,16,0.00,,---,0.00,VWS V14.01,2013-03-15 01:59:00,
2013-03-14 21:00:00,61.5,14.9,25.57,ESE,112,10.5,10.5,16,0.00,,---,0.00,VWS V14.01,2013-03-15 02:00:00,
2013-03-14 21:01:00,61.3,14.8,25.57,ESE,112,10.5,10.5,16,0.00,,---,0.00,VWS V14.01,2013-03-15 02:01:00,
2013-03-14 21:02:00,61.3,14.8,25.57,ESE,112,10.5,10.5,16,0.00,,---,0.00,VWS V14.01,2013-03-15 02:02:00,
2013-03-14 21:03:00,61.3,14.8,25.57,ESE,112,10.5,10.5,16,0.00,,---,0.00,VWS V14.01,2013-03-15 02:03:00,
2013-03-14 21:04:00,61.2,14.6,25.57,ESE,112,10.5,10.5,16,0.00,,---,0.00,VWS V14.01,2013-03-15 02:04:00,
2013-03-14 21:05:00,61.0,14.5,25.57,ESE,112,10.5,10.5,16,0.00,,---,0.00,VWS V14.01,2013-03-15 02:05:00,
2013-03-14 21:06:00,60.8,14.4,25.57,ESE,112,10.5,10.5,16,0.00,,---,0.00,VWS V14.01,2013-03-15 02:06:00,
2013-03-14 21:07:00,60.8,14.4,25.57,ESE,112,10.5,10.5,16,0.00,,---,0.00,VWS V14.01,2013-03-15 02:07:00,
2013-03-14 21:08:00,60.8,14.4,25.57,ESE,112,10.5,10.5,16,0.00,,---,0.00,VWS V14.01,2013-03-15 02:08:00,
2013-03-14 21:09:00,60.8,14.4,25.57,ESE,112,10.5,10.5,16,0.00,,---,0.00,VWS V14.01,2013-03-15 02:09:00,
2013-03-14 21:10:00,60.6,15.6,25.57,ESE,112,10.5,10.5,17,0.00,,---,0.00,VWS V14.01,2013-03-15 02:10:00,
2013-03-14 21:12:00,60.6,15.6,25.57,ESE,112,10.5,10.5,17,0.00,,---,0.00,VWS V14.01,2013-03-15 02:12:00,
2013-03-14 21:13:00,60.6,15.6,25.57,ESE,112,10.5,10.5,17,0.00,,---,0.00,VWS V14.01,2013-03-15 02:13:00,
2013-03-14 21:14:00,60.6,15.6,25.57,ESE,112,10.5,10.5,17,0.00,,---,0.00,VWS V14.01,2013-03-15 02:14:00,
2013-03-14 21:15:00,60.4,15.4,25.57,ESE,112,10.5,10.5,17,0.00,,---,0.00,VWS V14.01,2013-03-15 02:15:00,
2013-03-14 21:16:00,60.4,15.4,25.57,ESE,112,10.5,10.5,17,0.00,,---,0.00,VWS V14.01,2013-03-15 02:16:00,
2013-03-14 21:17:00,60.3,15.3,25.57,ESE,112,10.5,10.5,17,0.00,,---,0.00,VWS V14.01,2013-03-15 02:17:00,
2013-03-14 21:18:00,60.1,15.1,25.57,ESE,112,10.5,10.5,17,0.00,,---,0.00,VWS V14.01,2013-03-15 02:18:00,
2013-03-14 21:19:00,60.1,15.1,25.57,ESE,112,10.5,10.5,17,0.00,,---,0.00,VWS V14.01,2013-03-15 02:19:00,
2013-03-14 21:20:00,60.1,15.1,25.57,ESE,112,10.5,10.5,17,0.00,,---,0.00,VWS V14.01,2013-03-15 02:20:00,
2013-03-14 21:21:00,59.9,15.0,25.57,ESE,112,10.5,10.5,17,0.00,,---,0.00,VWS V14.01,2013-03-15 02:21:00,
2013-03-14 21:22:00,59.9,15.0,25.57,ESE,112,10.5,10.5,17,0.00,,---,0.00,VWS V14.01,2013-03-15 02:22:00,
2013-03-14 21:23:00,59.7,14.9,25.57,ESE,112,10.5,10.5,17,0.00,,---,0.00,VWS V14.01,2013-03-15 02:23:00,
2013-03-14 21:24:00,59.7,14.9,25.57,ESE,112,10.5,10.5,17,0.00,,---,0.00,VWS V14.01,2013-03-15 02:24:00,
2013-03-14 21:25:00,59.7,14.9,25.57,ESE,112,10.5,10.5,17,0.00,,---,0.00,VWS V14.01,2013-03-15 02:25:00,
2013-03-14 21:26:00,59.4,14.6,25.57,ESE,112,10.5,10.5,17,0.00,,---,0.00,VWS V14.01,2013-03-15 02:26:00,
2013-03-14 21:27:00,59.4,14.6,25.57,ESE,112,10.5,10.5,17,0.00,,---,0.00,VWS V14.01,2013-03-15 02:27:00,
2013-03-14 21:28:00,59.4,14.6,25.57,ESE,112,10.5,10.5,17,0.00,,---,0.00,VWS V14.01,2013-03-15 02:28:00,
2013-03-14 21:29:00,59.4,14.6,25.57,SE,135,8.5,10.5,17,0.00,,---,0.00,VWS V14.01,2013-03-15 02:29:00,
2013-03-14 21:30:00,59.4,14.6,25.57,SSE,158,9.8,9.8,17,0.00,,---,0.00,VWS V14.01,2013-03-15 02:30:00,
2013-03-14 21:31:00,59.2,14.4,25.57,SSE,158,9.8,9.8,17,0.00,,---,0.00,VWS V14.01,2013-03-15 02:31:00,
2013-03-14 21:32:00,59.2,14.4,25.57,SSE,158,9.8,9.8,17,0.00,,---,0.00,VWS V14.01,2013-03-15 02:32:00,
2013-03-14 21:33:00,59.2,14.4,25.57,SSE,158,9.8,9.8,17,0.00,,---,0.00,VWS V14.01,2013-03-15 02:33:00,
2013-03-14 21:34:00,59.2,14.4,25.57,SSE,158,9.8,9.8,17,0.00,,---,0.00,VWS V14.01,2013-03-15 02:34:00,
2013-03-14 21:35:00,59.2,14.4,25.57,SSE,158,9.8,9.8,17,0.00,,---,0.00,VWS V14.01,2013-03-15 02:35:00,
2013-03-14 21:36:00,59.0,14.3,25.57,South,180,9.8,9.8,17,0.00,,---,0.00,VWS V14.01,2013-03-15 02:36:00,
2013-03-14 21:37:00,59.0,14.3,25.57,South,180,9.8,9.8,17,0.00,,---,0.00,VWS V14.01,2013-03-15 02:37:00,
2013-03-14 21:38:00,58.8,14.1,25.57,SSE,158,9.8,10.1,17,0.00,,---,0.00,VWS V14.01,2013-03-15 02:38:00,
2013-03-14 21:39:00,58.8,14.1,25.57,SSE,158,6.9,9.8,17,0.00,,---,0.00,VWS V14.01,2013-03-15 02:39:00,
2013-03-14 21:40:00,58.8,14.1,25.57,SSE,158,6.0,6.9,17,0.00,,---,0.00,VWS V14.01,2013-03-15 02:40:00,
2013-03-14 21:41:00,58.6,14.0,25.57,SE,135,6.0,6.0,17,0.00,,---,0.00,VWS V14.01,2013-03-15 02:41:00,
2013-03-14 21:42:00,58.6,14.0,25.57,SE,135,9.6,9.6,17,0.00,,---,0.00,VWS V14.01,2013-03-15 02:42:00,
2013-03-14 21:43:00,58.6,14.0,25.57,SSE,158,6.0,6.0,17,0.00,,---,0.00,VWS V14.01,2013-03-15 02:43:00,
2013-03-14 21:44:00,58.6,14.0,25.57,SSE,158,11.2,11.2,17,0.00,,---,0.00,VWS V14.01,2013-03-15 02:44:00,
2013-03-14 21:45:00,58.8,14.1,25.57,SSE,158,11.2,11.2,17,0.00,,---,0.00,VWS V14.01,2013-03-15 02:45:00,
2013-03-14 21:46:00,58.8,14.1,25.57,SSE,158,11.2,11.2,17,0.00,,---,0.00,VWS V14.01,2013-03-15 02:46:00,
2013-03-14 21:47:00,58.8,14.1,25.57,SSE,158,9.0,9.0,17,0.00,,---,0.00,VWS V14.01,2013-03-15 02:47:00,
2013-03-14 21:48:00,58.8,14.1,25.57,SSE,158,9.0,9.0,17,0.00,,---,0.00,VWS V14.01,2013-03-15 02:48:00,
2013-03-14 21:49:00,58.8,14.1,25.57,SSE,158,9.0,9.0,17,0.00,,---,0.00,VWS V14.01,2013-03-15 02:49:00,
2013-03-14 21:50:00,58.8,14.1,25.57,SE,135,8.7,9.0,17,0.00,,---,0.00,VWS V14.01,2013-03-15 02:50:00,
2013-03-14 21:51:00,58.6,16.5,25.57,SE,135,8.7,8.7,19,0.00,,---,0.00,VWS V14.01,2013-03-15 02:51:00,
2013-03-14 21:52:00,58.6,16.5,25.57,SE,135,8.7,8.7,19,0.00,,---,0.00,VWS V14.01,2013-03-15 02:52:00,
2013-03-14 21:53:00,58.6,16.5,25.57,SE,135,8.1,8.7,19,0.00,,---,0.00,VWS V14.01,2013-03-15 02:53:00,
2013-03-14 21:54:00,58.6,16.5,25.57,SE,135,8.1,8.1,19,0.00,,---,0.00,VWS V14.01,2013-03-15 02:54:00,
2013-03-14 21:55:00,58.6,16.5,25.57,SE,135,8.1,8.1,19,0.00,,---,0.00,VWS V14.01,2013-03-15 02:55:00,
2013-03-14 21:56:00,58.6,16.5,25.57,SE,135,8.1,8.1,19,0.00,,---,0.00,VWS V14.01,2013-03-15 02:56:00,
2013-03-14 21:57:00,58.8,16.7,25.57,SE,135,9.6,9.6,19,0.00,,---,0.00,VWS V14.01,2013-03-15 02:57:00,
2013-03-14 21:58:00,58.8,16.7,25.57,SE,135,10.1,10.1,19,0.00,,---,0.00,VWS V14.01,2013-03-15 02:58:00,
2013-03-14 21:59:00,58.6,16.5,25.57,SE,135,5.4,10.1,19,0.00,,---,0.00,VWS V14.01,2013-03-15 02:59:00,
2013-03-14 22:00:00,58.6,16.5,25.57,ESE,112,6.5,8.1,19,0.00,,---,0.00,VWS V14.01,2013-03-15 03:00:00,
2013-03-14 22:01:00,58.6,16.5,25.57,SE,135,7.8,7.8,19,0.00,,---,0.00,VWS V14.01,2013-03-15 03:01:00,
2013-03-14 22:02:00,58.6,16.5,25.57,SE,135,7.6,7.8,19,0.00,,---,0.00,VWS V14.01,2013-03-15 03:02:00,
2013-03-14 22:03:00,58.6,16.5,25.57,SSE,158,7.6,8.5,19,0.00,,---,0.00,VWS V14.01,2013-03-15 03:03:00,
2013-03-14 22:04:00,58.6,16.5,25.57,South,180,12.5,12.5,19,0.00,,---,0.00,VWS V14.01,2013-03-15 03:04:00,
2013-03-14 22:05:00,58.6,16.5,25.57,ESE,112,7.8,12.5,19,0.00,,---,0.00,VWS V14.01,2013-03-15 03:05:00,
2013-03-14 22:06:00,58.6,16.5,25.57,SE,135,7.4,7.4,19,0.00,,---,0.00,VWS V14.01,2013-03-15 03:06:00,
2013-03-14 22:07:00,58.5,16.4,25.57,SE,135,8.7,8.7,19,0.00,,---,0.00,VWS V14.01,2013-03-15 03:07:00,
2013-03-14 22:08:00,58.5,16.4,25.57,SSE,158,10.1,10.1,19,0.00,,---,0.00,VWS V14.01,2013-03-15 03:08:00,
2013-03-14 22:09:00,58.5,16.4,25.60,SE,135,7.4,10.1,19,0.00,,---,0.00,VWS V14.01,2013-03-15 03:09:00,
2013-03-14 22:10:00,58.5,16.4,25.60,SE,135,9.2,9.2,19,0.00,,---,0.00,VWS V14.01,2013-03-15 03:10:00,
2013-03-14 22:11:00,58.6,16.5,25.60,SE,135,9.8,12.3,19,0.00,,---,0.00,VWS V14.01,2013-03-15 03:11:00,
2013-03-14 22:12:00,58.8,16.7,25.60,South,180,8.7,12.8,19,0.00,,---,0.00,VWS V14.01,2013-03-15 03:12:00,
2013-03-14 22:13:00,58.8,16.7,25.60,SSE,158,10.5,10.5,19,0.00,,---,0.00,VWS V14.01,2013-03-15 03:13:00,
2013-03-14 22:14:00,59.0,16.8,25.60,SSW,202,12.1,12.1,19,0.00,,---,0.00,VWS V14.01,2013-03-15 03:14:00,
2013-03-14 22:15:00,59.0,16.8,25.60,SSE,158,9.8,12.1,19,0.00,,---,0.00,VWS V14.01,2013-03-15 03:15:00,
2013-03-14 22:16:00,59.2,17.0,25.60,SSE,158,13.4,13.4,19,0.00,,---,0.00,VWS V14.01,2013-03-15 03:16:00,
2013-03-14 22:17:00,59.2,17.0,25.60,ESE,112,7.8,13.4,19,0.00,,---,0.00,VWS V14.01,2013-03-15 03:17:00,
2013-03-14 22:18:00,59.0,16.8,25.60,SE,135,7.2,7.8,19,0.00,,---,0.00,VWS V14.01,2013-03-15 03:18:00,
2013-03-14 22:19:00,59.0,16.8,25.60,SE,135,8.1,8.5,19,0.00,,---,0.00,VWS V14.01,2013-03-15 03:19:00,
2013-03-14 22:20:00,59.0,16.8,25.60,ESE,112,9.8,11.0,19,0.00,,---,0.00,VWS V14.01,2013-03-15 03:20:00,
2013-03-14 22:21:00,59.0,16.8,25.60,ESE,112,9.8,9.8,19,0.00,,---,0.00,VWS V14.01,2013-03-15 03:21:00,
2013-03-14 22:23:00,59.0,0.0,25.60,ESE,112,5.8,9.8,16,0.00,,---,0.00,VWS V14.01,2013-03-15 03:23:00,
2013-03-14 22:24:00,59.0,0.0,25.60,SE,135,12.1,15.2,16,0.00,,---,0.00,VWS V14.01,2013-03-15 03:24:00,
2013-03-14 22:25:00,58.8,16.7,25.60,SE,135,5.8,6.3,19,0.00,,---,0.00,VWS V14.01,2013-03-15 03:25:00,
2013-03-14 22:26:00,58.8,16.7,25.60,South,180,6.5,6.5,19,0.00,,---,0.00,VWS V14.01,2013-03-15 03:26:00,
2013-03-14 22:27:00,58.8,16.7,25.60,South,180,6.5,6.5,19,0.00,,---,0.00,VWS V14.01,2013-03-15 03:27:00,
2013-03-14 22:28:00,58.6,16.5,25.60,SE,135,8.7,8.7,19,0.00,,---,0.00,VWS V14.01,2013-03-15 03:28:00,
2013-03-14 22:29:00,58.6,16.5,25.60,SE,135,8.7,8.7,19,0.00,,---,0.00,VWS V14.01,2013-03-15 03:29:00,
2013-03-14 22:30:00,80.2,67.0,25.60,ESE,112,7.4,8.7,64,0.00,,---,0.00,VWS V14.01,2013-03-15 03:30:00,
2013-03-14 22:31:00,80.2,67.0,25.60,ESE,112,7.4,7.4,64,0.00,,---,0.00,VWS V14.01,2013-03-15 03:31:00,
2013-03-14 22:32:00,80.2,67.0,25.60,ESE,112,7.4,7.4,64,0.00,,---,0.00,VWS V14.01,2013-03-15 03:32:00,
2013-03-14 22:33:00,58.6,19.9,25.60,SSE,158,12.1,12.1,22,0.00,,---,0.00,VWS V14.01,2013-03-15 03:33:00,
2013-03-14 22:34:00,58.6,19.9,25.60,SSE,158,10.1,12.1,22,0.00,,---,0.00,VWS V14.01,2013-03-15 03:34:00,
2013-03-14 22:35:00,58.6,19.9,25.60,SSE,158,9.8,10.1,22,0.00,,---,0.00,VWS V14.01,2013-03-15 03:35:00,
2013-03-14 22:36:00,58.6,19.9,25.60,South,180,7.4,10.5,22,0.00,,---,0.00,VWS V14.01,2013-03-15 03:36:00,
2013-03-14 22:37:00,58.6,19.9,25.60,ESE,112,9.6,9.6,22,0.00,,---,0.00,VWS V14.01,2013-03-15 03:37:00,
2013-03-14 22:38:00,58.6,19.9,25.60,SSE,158,6.5,9.6,22,0.00,,---,0.00,VWS V14.01,2013-03-15 03:38:00,
2013-03-14 22:39:00,58.5,19.8,25.60,ESE,112,8.5,10.5,22,0.00,,---,0.00,VWS V14.01,2013-03-15 03:39:00,
2013-03-14 22:40:00,58.5,19.8,25.60,SE,135,5.6,10.5,22,0.00,,---,0.00,VWS V14.01,2013-03-15 03:40:00,
2013-03-14 22:41:00,58.5,19.8,25.60,SE,135,10.1,10.1,22,0.00,,---,0.00,VWS V14.01,2013-03-15 03:41:00,
2013-03-14 22:42:00,58.5,19.8,25.60,SSE,158,7.8,10.1,22,0.00,,---,0.00,VWS V14.01,2013-03-15 03:42:00,
2013-03-14 22:43:00,58.5,19.8,25.60,SSE,158,6.9,7.8,22,0.00,,---,0.00,VWS V14.01,2013-03-15 03:43:00,
2013-03-14 22:44:00,58.1,19.5,25.60,SE,135,7.8,10.5,22,0.00,,---,0.00,VWS V14.01,2013-03-15 03:44:00,
2013-03-14 22:45:00,58.1,19.5,25.60,SSE,158,6.3,8.1,22,0.00,,---,0.00,VWS V14.01,2013-03-15 03:45:00,
2013-03-14 22:46:00,58.1,19.5,25.60,SE,135,9.8,9.8,22,0.00,,---,0.00,VWS V14.01,2013-03-15 03:46:00,
2013-03-14 22:47:00,58.1,19.5,25.60,ESE,112,7.8,10.3,22,0.00,,---,0.00,VWS V14.01,2013-03-15 03:47:00,
2013-03-14 22:48:00,58.1,19.5,25.60,ESE,112,8.1,8.1,22,0.00,,---,0.00,VWS V14.01,2013-03-15 03:48:00,
2013-03-14 22:49:00,57.9,19.3,25.60,SE,135,7.6,9.8,22,0.00,,---,0.00,VWS V14.01,2013-03-15 03:49:00,
2013-03-14 22:50:00,57.9,21.4,25.60,ESE,112,8.5,11.0,24,0.00,,---,0.00,VWS V14.01,2013-03-15 03:50:00,
2013-03-14 22:51:00,57.9,21.4,25.60,ESE,112,10.1,10.1,24,0.00,,---,0.00,VWS V14.01,2013-03-15 03:51:00,
2013-03-14 22:52:00,57.7,21.2,25.60,SE,135,10.7,10.7,24,0.00,,---,0.00,VWS V14.01,2013-03-15 03:52:00,
2013-03-14 22:53:00,57.7,21.2,25.60,ESE,112,7.8,12.3,24,0.00,,---,0.00,VWS V14.01,2013-03-15 03:53:00,
2013-03-14 22:54:00,57.7,21.2,25.60,SE,135,6.3,9.2,24,0.00,,---,0.00,VWS V14.01,2013-03-15 03:54:00,
2013-03-14 22:56:00,57.6,21.1,25.60,SE,135,6.0,8.7,24,0.00,,---,0.00,VWS V14.01,2013-03-15 03:56:00,
2013-03-14 22:57:00,57.4,20.9,25.60,SE,135,7.8,7.8,24,0.00,,---,0.00,VWS V14.01,2013-03-15 03:57:00,
2013-03-14 22:58:00,57.4,20.9,25.60,South,180,7.8,8.7,24,0.00,,---,0.00,VWS V14.01,2013-03-15 03:58:00,
2013-03-14 22:59:00,57.4,20.9,25.60,SE,135,7.6,7.8,24,0.00,,---,0.00,VWS V14.01,2013-03-15 03:59:00,
2013-03-14 23:00:00,57.4,20.9,25.60,SSE,158,8.5,8.5,24,0.00,,---,0.00,VWS V14.01,2013-03-15 04:00:00,
2013-03-14 23:01:00,57.4,20.9,25.60,South,180,6.3,12.3,24,0.00,,---,0.00,VWS V14.01,2013-03-15 04:01:00,
2013-03-14 23:02:00,57.2,20.8,25.60,SE,135,10.7,10.7,24,0.00,,---,0.00,VWS V14.01,2013-03-15 04:02:00,
2013-03-14 23:03:00,57.2,21.7,25.60,SE,135,9.6,11.0,25,0.00,,---,0.00,VWS V14.01,2013-03-15 04:03:00,
2013-03-14 23:04:00,57.2,21.7,25.60,SSE,158,9.8,9.8,25,0.00,,---,0.00,VWS V14.01,2013-03-15 04:04:00,
2013-03-14 23:05:00,57.2,21.7,25.60,SE,135,7.8,9.8,25,0.00,,---,0.00,VWS V14.01,2013-03-15 04:05:00,
2013-03-14 23:06:00,57.2,21.7,25.60,SSE,158,9.8,10.5,25,0.00,,---,0.00,VWS V14.01,2013-03-15 04:06:00,
2013-03-14 23:07:00,57.2,21.7,25.60,SE,135,8.1,9.8,25,0.00,,---,0.00,VWS V14.01,2013-03-15 04:07:00,
2013-03-14 23:08:00,57.0,21.6,25.60,SSE,158,10.5,10.5,25,0.00,,---,0.00,VWS V14.01,2013-03-15 04:08:00,
2013-03-14 23:09:00,57.0,21.6,25.60,SE,135,8.7,10.5,25,0.00,,---,0.00,VWS V14.01,2013-03-15 04:09:00,
2013-03-14 23:10:00,57.0,21.6,25.60,SSE,158,6.0,9.8,25,0.00,,---,0.00,VWS V14.01,2013-03-15 04:10:00,
2013-03-14 23:11:00,57.0,21.6,25.60,SSE,158,6.3,6.3,25,0.00,,---,0.00,VWS V14.01,2013-03-15 04:11:00,
2013-03-14 23:12:00,57.0,21.6,25.60,SSE,158,10.3,10.3,25,0.00,,---,0.00,VWS V14.01,2013-03-15 04:12:00,
2013-03-14 23:13:00,57.0,21.6,25.60,SSE,158,12.3,12.3,25,0.00,,---,0.00,VWS V14.01,2013-03-15 04:13:00,
2013-03-14 23:15:00,57.0,21.6,25.60,SE,135,8.1,12.3,25,0.00,,---,0.00,VWS V14.01,2013-03-15 04:15:00,
2013-03-14 23:16:00,57.0,21.6,25.60,SSE,158,8.1,8.5,25,0.00,,---,0.00,VWS V14.01,2013-03-15 04:16:00,
2013-03-14 23:17:00,56.8,21.4,25.60,SE,135,6.3,6.3,25,0.00,,---,0.00,VWS V14.01,2013-03-15 04:17:00,
2013-03-14 23:18:00,56.8,21.4,25.60,SSE,158,6.0,10.5,25,0.00,,---,0.00,VWS V14.01,2013-03-15 04:18:00,
2013-03-14 23:19:00,56.8,21.4,25.60,SE,135,7.2,7.8,25,0.00,,---,0.00,VWS V14.01,2013-03-15 04:19:00,
2013-03-14 23:20:00,56.8,21.4,25.60,SSW,202,5.6,8.1,25,0.00,,---,0.00,VWS V14.01,2013-03-15 04:20:00,
2013-03-14 23:21:00,56.8,21.4,25.60,SSE,158,10.1,10.1,25,0.00,,---,0.00,VWS V14.01,2013-03-15 04:21:00,
2013-03-14 23:22:00,56.8,21.4,25.60,SSE,158,6.7,6.7,25,0.00,,---,0.00,VWS V14.01,2013-03-15 04:22:00,
2013-03-14 23:23:00,56.8,21.4,25.60,SE,135,9.8,9.8,25,0.00,,---,0.00,VWS V14.01,2013-03-15 04:23:00,
2013-03-14 23:24:00,56.8,21.4,25.60,SSE,158,6.3,9.8,25,0.00,,---,0.00,VWS V14.01,2013-03-15 04:24:00,
2013-03-14 23:25:00,56.8,21.4,25.60,SSE,158,6.7,9.6,25,0.00,,---,0.00,VWS V14.01,2013-03-15 04:25:00,
2013-03-14 23:26:00,56.8,21.4,25.60,SSE,158,7.6,7.8,25,0.00,,---,0.00,VWS V14.01,2013-03-15 04:26:00,
2013-03-14 23:27:00,56.8,21.4,25.60,SSE,158,6.3,8.1,25,0.00,,---,0.00,VWS V14.01,2013-03-15 04:27:00,
2013-03-14 23:28:00,56.8,21.4,25.60,SSE,158,9.0,9.0,25,0.00,,---,0.00,VWS V14.01,2013-03-15 04:28:00,
2013-03-14 23:29:00,56.8,21.4,25.60,South,180,7.4,9.0,25,0.00,,---,0.00,VWS V14.01,2013-03-15 04:29:00,
2013-03-14 23:30:00,56.8,21.4,25.60,SSE,158,9.0,9.0,25,0.00,,---,0.00,VWS V14.01,2013-03-15 04:30:00,
2013-03-14 23:31:00,56.8,21.4,25.60,SE,135,6.3,10.1,25,0.00,,---,0.00,VWS V14.01,2013-03-15 04:31:00,
2013-03-14 23:32:00,56.8,21.4,25.60,SSE,158,7.8,9.8,25,0.00,,---,0.00,VWS V14.01,2013-03-15 04:32:00,
2013-03-14 23:33:00,57.0,21.6,25.60,SE,135,11.0,11.0,25,0.00,,---,0.00,VWS V14.01,2013-03-15 04:33:00,
2013-03-14 23:35:00,57.0,21.6,25.60,South,180,7.6,12.5,25,0.00,,---,0.00,VWS V14.01,2013-03-15 04:35:00,
2013-03-14 23:36:00,57.2,21.7,25.60,ESE,112,7.8,11.0,25,0.00,,---,0.00,VWS V14.01,2013-03-15 04:36:00,
2013-03-14 23:37:00,57.2,21.7,25.60,South,180,7.8,7.8,25,0.00,,---,0.00,VWS V14.01,2013-03-15 04:37:00,
2013-03-14 23:38:00,57.2,21.7,25.60,SSE,158,10.3,11.0,25,0.00,,---,0.00,VWS V14.01,2013-03-15 04:38:00,
2013-03-14 23:39:00,57.4,21.9,25.60,South,180,10.7,12.3,25,0.00,,---,0.00,VWS V14.01,2013-03-15 04:39:00,
2013-03-14 23:40:00,57.4,21.9,25.60,SSE,158,10.5,11.0,25,0.00,,---,0.00,VWS V14.01,2013-03-15 04:40:00,
2013-03-14 23:41:00,57.4,21.9,25.60,SSE,158,10.5,14.8,25,0.00,,---,0.00,VWS V14.01,2013-03-15 04:41:00,
2013-03-14 23:42:00,57.4,21.9,25.60,South,180,11.0,11.0,25,0.00,,---,0.00,VWS V14.01,2013-03-15 04:42:00,
2013-03-14 23:43:00,57.4,21.9,25.60,SSE,158,7.8,11.4,25,0.00,,---,0.00,VWS V14.01,2013-03-15 04:43:00,
2013-03-14 23:44:00,57.4,21.9,25.60,SSE,158,11.0,11.0,25,0.00,,---,0.00,VWS V14.01,2013-03-15 04:44:00,
2013-03-14 23:45:00,57.4,21.9,25.60,South,180,10.3,12.5,25,0.00,,---,0.00,VWS V14.01,2013-03-15 04:45:00,
2013-03-14 23:46:00,57.4,21.9,25.60,SSE,158,10.5,12.5,25,0.00,,---,0.00,VWS V14.01,2013-03-15 04:46:00,
2013-03-14 23:47:00,57.4,21.9,25.60,SSE,158,7.6,11.0,25,0.00,,---,0.00,VWS V14.01,2013-03-15 04:47:00,
2013-03-14 23:48:00,57.2,21.7,25.60,South,180,11.2,11.2,25,0.00,,---,0.00,VWS V14.01,2013-03-15 04:48:00,
2013-03-14 23:49:00,57.2,21.7,25.60,SSE,158,9.8,14.5,25,0.00,,---,0.00,VWS V14.01,2013-03-15 04:49:00,
2013-03-14 23:50:00,57.2,21.7,25.60,South,180,10.3,12.1,25,0.00,,---,0.00,VWS V14.01,2013-03-15 04:50:00,
2013-03-14 23:51:00,57.2,21.7,25.60,South,180,10.3,10.3,25,0.00,,---,0.00,VWS V14.01,2013-03-15 04:51:00,
2013-03-14 23:52:00,57.4,21.9,25.60,SSE,158,8.5,12.3,25,0.00,,---,0.00,VWS V14.01,2013-03-15 04:52:00,
2013-03-14 23:53:00,57.4,21.9,25.60,SSE,158,8.5,11.2,25,0.00,,---,0.00,VWS V14.01,2013-03-15 04:53:00,
2013-03-14 23:54:00,57.4,21.9,25.60,SE,135,12.8,12.8,25,0.00,,---,0.00,VWS V14.01,2013-03-15 04:54:00,
2013-03-14 23:55:00,57.4,21.9,25.60,SSE,158,12.5,13.6,25,0.00,,---,0.00,VWS V14.01,2013-03-15 04:55:00,
2013-03-14 23:56:00,57.4,21.9,25.60,SE,135,10.3,12.5,25,0.00,,---,0.00,VWS V14.01,2013-03-15 04:56:00,
2013-03-14 23:57:00,57.4,21.9,25.60,SSE,158,13.0,13.0,25,0.00,,---,0.00,VWS V14.01,2013-03-15 04:57:00,
2013-03-14 23:58:00,57.4,21.9,25.60,SSE,158,8.5,13.0,25,0.00,,---,0.00,VWS V14.01,2013-03-15 04:58:00,
2013-03-14 23:59:00,57.2,22.6,25.60,SSE,158,8.5,8.5,26,0.00,,---,0.00,VWS V14.01,2013-03-15 04:59:00,